<?xml version="1.0" encoding="UTF-8" standalone="no" ?>
<gpx xmlns="http://www.topografix.com/GPX/1/1" xmlns:xsi="http://www.w3.org/2001/XMLSchema-instance" xsi:schemaLocation="http://www.topografix.com/GPX/1/1 http://www.topografix.com/GPX/1/1/gpx.xsd" version="1.1" creator="VisuGPX - https://www.visugpx.com">
  <metadata>
    <name>Barlagne et forêt d\'Issaux à proximité de la Pierre St Martin</name>
    <desc><![CDATA[Barlagne et forêt d\'Issaux à proximité de la Pierre St Martin. Neige de rêve tombée la veille. Il fallait arriver tôt pour profiter de la belle poudre car les clients étaient nombreux. ]]></desc>
  </metadata>
  <trk>
    <name><![CDATA[Barlagne et forêt d\'Issaux à proximité de la Pierre St Martin_1]]></name>
    <trkseg>
      <trkpt lat="43.00362" lon="-0.68867">
        <ele>748.1</ele>
        <time>2015-02-22T09:09:47Z</time>
      </trkpt>
      <trkpt lat="43.00359" lon="-0.68879">
        <ele>748.95002357905</ele>
        <time>2015-02-22T09:10:52Z</time>
      </trkpt>
      <trkpt lat="43.00361" lon="-0.68879">
        <ele>748.95002357905</ele>
        <time>2015-02-22T09:11:59Z</time>
      </trkpt>
      <trkpt lat="43.00362" lon="-0.68879">
        <ele>748.95002357905</ele>
        <time>2015-02-22T09:12:04Z</time>
      </trkpt>
      <trkpt lat="43.00365" lon="-0.68867">
        <ele>754.83635881941</ele>
        <time>2015-02-22T09:12:27Z</time>
      </trkpt>
      <trkpt lat="43.00363" lon="-0.68864">
        <ele>754.83635881941</ele>
        <time>2015-02-22T09:12:32Z</time>
      </trkpt>
      <trkpt lat="43.00363" lon="-0.68866">
        <ele>754.83635881941</ele>
        <time>2015-02-22T09:12:37Z</time>
      </trkpt>
      <trkpt lat="43.00362" lon="-0.68868">
        <ele>754.83635881941</ele>
        <time>2015-02-22T09:12:52Z</time>
      </trkpt>
      <trkpt lat="43.00362" lon="-0.68868">
        <ele>754.83635881941</ele>
        <time>2015-02-22T09:12:57Z</time>
      </trkpt>
      <trkpt lat="43.00355" lon="-0.6886">
        <ele>759.24393258005</ele>
        <time>2015-02-22T09:13:52Z</time>
      </trkpt>
      <trkpt lat="43.00355" lon="-0.6886">
        <ele>759.24393258005</ele>
        <time>2015-02-22T09:13:58Z</time>
      </trkpt>
      <trkpt lat="43.00359" lon="-0.68873">
        <ele>763.22818960925</ele>
        <time>2015-02-22T09:14:37Z</time>
      </trkpt>
      <trkpt lat="43.00359" lon="-0.68872">
        <ele>763.22818960925</ele>
        <time>2015-02-22T09:14:42Z</time>
      </trkpt>
      <trkpt lat="43.00357" lon="-0.68856">
        <ele>766.93975748054</ele>
        <time>2015-02-22T09:14:52Z</time>
      </trkpt>
      <trkpt lat="43.00355" lon="-0.68854">
        <ele>766.93975748054</ele>
        <time>2015-02-22T09:14:57Z</time>
      </trkpt>
      <trkpt lat="43.00351" lon="-0.6885">
        <ele>766.93975748054</ele>
        <time>2015-02-22T09:15:02Z</time>
      </trkpt>
      <trkpt lat="43.00354" lon="-0.68866">
        <ele>770.25734807521</ele>
        <time>2015-02-22T09:15:07Z</time>
      </trkpt>
      <trkpt lat="43.00354" lon="-0.68869">
        <ele>770.25734807521</ele>
        <time>2015-02-22T09:15:12Z</time>
      </trkpt>
      <trkpt lat="43.00362" lon="-0.68876">
        <ele>773.33838708424</ele>
        <time>2015-02-22T09:15:22Z</time>
      </trkpt>
      <trkpt lat="43.00363" lon="-0.68876">
        <ele>773.33838708424</ele>
        <time>2015-02-22T09:15:27Z</time>
      </trkpt>
      <trkpt lat="43.00359" lon="-0.68876">
        <ele>773.33838708424</ele>
        <time>2015-02-22T09:18:43Z</time>
      </trkpt>
      <trkpt lat="43.0036" lon="-0.68878">
        <ele>773.33838708424</ele>
        <time>2015-02-22T09:18:49Z</time>
      </trkpt>
      <trkpt lat="43.00369" lon="-0.68879">
        <ele>776.57462010488</ele>
        <time>2015-02-22T09:19:12Z</time>
      </trkpt>
      <trkpt lat="43.00371" lon="-0.6888">
        <ele>776.57462010488</ele>
        <time>2015-02-22T09:19:20Z</time>
      </trkpt>
      <trkpt lat="43.00366" lon="-0.68884">
        <ele>776.57462010488</ele>
        <time>2015-02-22T09:19:28Z</time>
      </trkpt>
      <trkpt lat="43.00362" lon="-0.68888">
        <ele>779.10184362872</ele>
        <time>2015-02-22T09:19:33Z</time>
      </trkpt>
      <trkpt lat="43.00359" lon="-0.68892">
        <ele>779.10184362872</ele>
        <time>2015-02-22T09:19:39Z</time>
      </trkpt>
      <trkpt lat="43.00357" lon="-0.68896">
        <ele>779.10184362872</ele>
        <time>2015-02-22T09:19:44Z</time>
      </trkpt>
      <trkpt lat="43.00354" lon="-0.68899">
        <ele>781.051556575</ele>
        <time>2015-02-22T09:19:48Z</time>
      </trkpt>
      <trkpt lat="43.00351" lon="-0.689">
        <ele>781.051556575</ele>
        <time>2015-02-22T09:19:53Z</time>
      </trkpt>
      <trkpt lat="43.00349" lon="-0.68902">
        <ele>781.051556575</ele>
        <time>2015-02-22T09:19:59Z</time>
      </trkpt>
      <trkpt lat="43.00346" lon="-0.68905">
        <ele>781.051556575</ele>
        <time>2015-02-22T09:20:03Z</time>
      </trkpt>
      <trkpt lat="43.00345" lon="-0.68906">
        <ele>782.46951652521</ele>
        <time>2015-02-22T09:20:08Z</time>
      </trkpt>
      <trkpt lat="43.0034" lon="-0.68908">
        <ele>782.46951652521</ele>
        <time>2015-02-22T09:20:13Z</time>
      </trkpt>
      <trkpt lat="43.00335" lon="-0.68909">
        <ele>783.46050342887</ele>
        <time>2015-02-22T09:20:18Z</time>
      </trkpt>
      <trkpt lat="43.00334" lon="-0.68909">
        <ele>783.46050342887</ele>
        <time>2015-02-22T09:20:24Z</time>
      </trkpt>
      <trkpt lat="43.00331" lon="-0.68909">
        <ele>783.46050342887</ele>
        <time>2015-02-22T09:20:29Z</time>
      </trkpt>
      <trkpt lat="43.00329" lon="-0.6891">
        <ele>783.46050342887</ele>
        <time>2015-02-22T09:20:32Z</time>
      </trkpt>
      <trkpt lat="43.00326" lon="-0.68917">
        <ele>784.17610376191</ele>
        <time>2015-02-22T09:20:40Z</time>
      </trkpt>
      <trkpt lat="43.00324" lon="-0.68918">
        <ele>784.17610376191</ele>
        <time>2015-02-22T09:20:43Z</time>
      </trkpt>
      <trkpt lat="43.0032" lon="-0.68918">
        <ele>784.17610376191</ele>
        <time>2015-02-22T09:20:49Z</time>
      </trkpt>
      <trkpt lat="43.00318" lon="-0.68918">
        <ele>784.17610376191</ele>
        <time>2015-02-22T09:20:52Z</time>
      </trkpt>
      <trkpt lat="43.00313" lon="-0.6892">
        <ele>784.71680122383</ele>
        <time>2015-02-22T09:20:59Z</time>
      </trkpt>
      <trkpt lat="43.0031" lon="-0.6892">
        <ele>784.71680122383</ele>
        <time>2015-02-22T09:21:03Z</time>
      </trkpt>
      <trkpt lat="43.00306" lon="-0.68923">
        <ele>784.71680122383</ele>
        <time>2015-02-22T09:21:09Z</time>
      </trkpt>
      <trkpt lat="43.00301" lon="-0.68926">
        <ele>785.14364909294</ele>
        <time>2015-02-22T09:21:12Z</time>
      </trkpt>
      <trkpt lat="43.00296" lon="-0.68933">
        <ele>785.14364909294</ele>
        <time>2015-02-22T09:21:19Z</time>
      </trkpt>
      <trkpt lat="43.00293" lon="-0.68939">
        <ele>785.42682468375</ele>
        <time>2015-02-22T09:21:24Z</time>
      </trkpt>
      <trkpt lat="43.0029" lon="-0.68942">
        <ele>785.42682468375</ele>
        <time>2015-02-22T09:21:28Z</time>
      </trkpt>
      <trkpt lat="43.0029" lon="-0.68948">
        <ele>785.42682468375</ele>
        <time>2015-02-22T09:21:32Z</time>
      </trkpt>
      <trkpt lat="43.0029" lon="-0.68952">
        <ele>785.55208512921</ele>
        <time>2015-02-22T09:21:38Z</time>
      </trkpt>
      <trkpt lat="43.00292" lon="-0.68959">
        <ele>785.55208512921</ele>
        <time>2015-02-22T09:21:44Z</time>
      </trkpt>
      <trkpt lat="43.00293" lon="-0.68965">
        <ele>785.48648272254</ele>
        <time>2015-02-22T09:21:49Z</time>
      </trkpt>
      <trkpt lat="43.00293" lon="-0.68969">
        <ele>785.48648272254</ele>
        <time>2015-02-22T09:21:52Z</time>
      </trkpt>
      <trkpt lat="43.00295" lon="-0.68974">
        <ele>785.48648272254</ele>
        <time>2015-02-22T09:21:58Z</time>
      </trkpt>
      <trkpt lat="43.00296" lon="-0.68979">
        <ele>785.29274040416</ele>
        <time>2015-02-22T09:22:02Z</time>
      </trkpt>
      <trkpt lat="43.00297" lon="-0.68992">
        <ele>785.11566870239</ele>
        <time>2015-02-22T09:22:09Z</time>
      </trkpt>
      <trkpt lat="43.00296" lon="-0.68998">
        <ele>785.11566870239</ele>
        <time>2015-02-22T09:22:12Z</time>
      </trkpt>
      <trkpt lat="43.00295" lon="-0.69003">
        <ele>785.11566870239</ele>
        <time>2015-02-22T09:22:19Z</time>
      </trkpt>
      <trkpt lat="43.00294" lon="-0.69007">
        <ele>784.87588782105</ele>
        <time>2015-02-22T09:22:24Z</time>
      </trkpt>
      <trkpt lat="43.00295" lon="-0.69012">
        <ele>784.87588782105</ele>
        <time>2015-02-22T09:22:28Z</time>
      </trkpt>
      <trkpt lat="43.00295" lon="-0.69016">
        <ele>784.87588782105</ele>
        <time>2015-02-22T09:22:32Z</time>
      </trkpt>
      <trkpt lat="43.00296" lon="-0.69022">
        <ele>784.57660270589</ele>
        <time>2015-02-22T09:22:39Z</time>
      </trkpt>
      <trkpt lat="43.00297" lon="-0.69028">
        <ele>784.57660270589</ele>
        <time>2015-02-22T09:22:43Z</time>
      </trkpt>
      <trkpt lat="43.00296" lon="-0.69034">
        <ele>784.57660270589</ele>
        <time>2015-02-22T09:22:49Z</time>
      </trkpt>
      <trkpt lat="43.00295" lon="-0.69037">
        <ele>784.29240840507</ele>
        <time>2015-02-22T09:22:52Z</time>
      </trkpt>
      <trkpt lat="43.00294" lon="-0.69043">
        <ele>784.29240840507</ele>
        <time>2015-02-22T09:22:59Z</time>
      </trkpt>
      <trkpt lat="43.00294" lon="-0.69048">
        <ele>784.29240840507</ele>
        <time>2015-02-22T09:23:04Z</time>
      </trkpt>
      <trkpt lat="43.00295" lon="-0.69052">
        <ele>784.05616745345</ele>
        <time>2015-02-22T09:23:09Z</time>
      </trkpt>
      <trkpt lat="43.00296" lon="-0.69054">
        <ele>784.05616745345</ele>
        <time>2015-02-22T09:23:12Z</time>
      </trkpt>
      <trkpt lat="43.00296" lon="-0.6906">
        <ele>784.05616745345</ele>
        <time>2015-02-22T09:23:19Z</time>
      </trkpt>
      <trkpt lat="43.00296" lon="-0.69064">
        <ele>783.74878970193</ele>
        <time>2015-02-22T09:23:23Z</time>
      </trkpt>
      <trkpt lat="43.00296" lon="-0.69067">
        <ele>783.74878970193</ele>
        <time>2015-02-22T09:23:29Z</time>
      </trkpt>
      <trkpt lat="43.00295" lon="-0.69071">
        <ele>783.74878970193</ele>
        <time>2015-02-22T09:23:32Z</time>
      </trkpt>
      <trkpt lat="43.00293" lon="-0.69078">
        <ele>783.42203237941</ele>
        <time>2015-02-22T09:23:39Z</time>
      </trkpt>
      <trkpt lat="43.00293" lon="-0.69084">
        <ele>783.42203237941</ele>
        <time>2015-02-22T09:23:44Z</time>
      </trkpt>
      <trkpt lat="43.00293" lon="-0.69086">
        <ele>783.42203237941</ele>
        <time>2015-02-22T09:23:49Z</time>
      </trkpt>
      <trkpt lat="43.00287" lon="-0.69095">
        <ele>783.12044151686</ele>
        <time>2015-02-22T09:23:59Z</time>
      </trkpt>
      <trkpt lat="43.00286" lon="-0.69099">
        <ele>783.12044151686</ele>
        <time>2015-02-22T09:24:03Z</time>
      </trkpt>
      <trkpt lat="43.00285" lon="-0.69104">
        <ele>783.12044151686</ele>
        <time>2015-02-22T09:24:09Z</time>
      </trkpt>
      <trkpt lat="43.00284" lon="-0.69106">
        <ele>783.12044151686</ele>
        <time>2015-02-22T09:24:12Z</time>
      </trkpt>
      <trkpt lat="43.00283" lon="-0.69114">
        <ele>782.81239180308</ele>
        <time>2015-02-22T09:24:19Z</time>
      </trkpt>
      <trkpt lat="43.00283" lon="-0.6912">
        <ele>782.81239180308</ele>
        <time>2015-02-22T09:24:24Z</time>
      </trkpt>
      <trkpt lat="43.00282" lon="-0.69124">
        <ele>782.81239180308</ele>
        <time>2015-02-22T09:24:28Z</time>
      </trkpt>
      <trkpt lat="43.00282" lon="-0.69126">
        <ele>782.48308892636</ele>
        <time>2015-02-22T09:24:32Z</time>
      </trkpt>
      <trkpt lat="43.00283" lon="-0.69135">
        <ele>782.48308892636</ele>
        <time>2015-02-22T09:24:40Z</time>
      </trkpt>
      <trkpt lat="43.00285" lon="-0.69139">
        <ele>782.16082876496</ele>
        <time>2015-02-22T09:24:43Z</time>
      </trkpt>
      <trkpt lat="43.00285" lon="-0.69143">
        <ele>782.16082876496</ele>
        <time>2015-02-22T09:24:49Z</time>
      </trkpt>
      <trkpt lat="43.00284" lon="-0.69147">
        <ele>782.16082876496</ele>
        <time>2015-02-22T09:24:52Z</time>
      </trkpt>
      <trkpt lat="43.00284" lon="-0.69155">
        <ele>781.84383157721</ele>
        <time>2015-02-22T09:24:59Z</time>
      </trkpt>
      <trkpt lat="43.00282" lon="-0.69161">
        <ele>781.84383157721</ele>
        <time>2015-02-22T09:25:03Z</time>
      </trkpt>
      <trkpt lat="43.00283" lon="-0.69165">
        <ele>781.84383157721</ele>
        <time>2015-02-22T09:25:08Z</time>
      </trkpt>
      <trkpt lat="43.00281" lon="-0.69171">
        <ele>781.48935075892</ele>
        <time>2015-02-22T09:25:13Z</time>
      </trkpt>
      <trkpt lat="43.00279" lon="-0.69178">
        <ele>781.48935075892</ele>
        <time>2015-02-22T09:25:19Z</time>
      </trkpt>
      <trkpt lat="43.00277" lon="-0.69181">
        <ele>781.48935075892</ele>
        <time>2015-02-22T09:25:24Z</time>
      </trkpt>
      <trkpt lat="43.00276" lon="-0.69185">
        <ele>781.15561805325</ele>
        <time>2015-02-22T09:25:29Z</time>
      </trkpt>
      <trkpt lat="43.00274" lon="-0.69192">
        <ele>781.15561805325</ele>
        <time>2015-02-22T09:25:32Z</time>
      </trkpt>
      <trkpt lat="43.00275" lon="-0.692">
        <ele>780.84199343642</ele>
        <time>2015-02-22T09:25:38Z</time>
      </trkpt>
      <trkpt lat="43.00274" lon="-0.69204">
        <ele>780.84199343642</ele>
        <time>2015-02-22T09:25:44Z</time>
      </trkpt>
      <trkpt lat="43.00275" lon="-0.6921">
        <ele>780.84199343642</ele>
        <time>2015-02-22T09:25:48Z</time>
      </trkpt>
      <trkpt lat="43.00274" lon="-0.69214">
        <ele>780.59066694888</ele>
        <time>2015-02-22T09:25:52Z</time>
      </trkpt>
      <trkpt lat="43.00272" lon="-0.6922">
        <ele>780.59066694888</ele>
        <time>2015-02-22T09:26:00Z</time>
      </trkpt>
      <trkpt lat="43.00271" lon="-0.69224">
        <ele>780.59066694888</ele>
        <time>2015-02-22T09:26:03Z</time>
      </trkpt>
      <trkpt lat="43.00269" lon="-0.6923">
        <ele>780.3721581955</ele>
        <time>2015-02-22T09:26:09Z</time>
      </trkpt>
      <trkpt lat="43.00269" lon="-0.69237">
        <ele>780.3721581955</ele>
        <time>2015-02-22T09:26:12Z</time>
      </trkpt>
      <trkpt lat="43.00269" lon="-0.69245">
        <ele>780.18763605858</ele>
        <time>2015-02-22T09:26:19Z</time>
      </trkpt>
      <trkpt lat="43.00267" lon="-0.69251">
        <ele>780.18763605858</ele>
        <time>2015-02-22T09:26:24Z</time>
      </trkpt>
      <trkpt lat="43.00266" lon="-0.69255">
        <ele>780.18763605858</ele>
        <time>2015-02-22T09:26:28Z</time>
      </trkpt>
      <trkpt lat="43.00265" lon="-0.69262">
        <ele>780.05301492178</ele>
        <time>2015-02-22T09:26:32Z</time>
      </trkpt>
      <trkpt lat="43.00262" lon="-0.69264">
        <ele>780.05301492178</ele>
        <time>2015-02-22T09:26:37Z</time>
      </trkpt>
      <trkpt lat="43.0026" lon="-0.69267">
        <ele>780.05301492178</ele>
        <time>2015-02-22T09:26:42Z</time>
      </trkpt>
      <trkpt lat="43.00257" lon="-0.69278">
        <ele>780.01236364466</ele>
        <time>2015-02-22T09:26:48Z</time>
      </trkpt>
      <trkpt lat="43.00256" lon="-0.69282">
        <ele>780.01236364466</ele>
        <time>2015-02-22T09:26:52Z</time>
      </trkpt>
      <trkpt lat="43.00253" lon="-0.69286">
        <ele>780.01236364466</ele>
        <time>2015-02-22T09:27:00Z</time>
      </trkpt>
      <trkpt lat="43.00252" lon="-0.69289">
        <ele>780.07890318219</ele>
        <time>2015-02-22T09:27:03Z</time>
      </trkpt>
      <trkpt lat="43.00249" lon="-0.69295">
        <ele>780.07890318219</ele>
        <time>2015-02-22T09:27:09Z</time>
      </trkpt>
      <trkpt lat="43.00248" lon="-0.693">
        <ele>780.12027806461</ele>
        <time>2015-02-22T09:27:12Z</time>
      </trkpt>
      <trkpt lat="43.00244" lon="-0.69304">
        <ele>780.12027806461</ele>
        <time>2015-02-22T09:27:19Z</time>
      </trkpt>
      <trkpt lat="43.00242" lon="-0.69307">
        <ele>780.12027806461</ele>
        <time>2015-02-22T09:27:23Z</time>
      </trkpt>
      <trkpt lat="43.00239" lon="-0.69312">
        <ele>780.30227942731</ele>
        <time>2015-02-22T09:27:29Z</time>
      </trkpt>
      <trkpt lat="43.00237" lon="-0.69315">
        <ele>780.30227942731</ele>
        <time>2015-02-22T09:27:32Z</time>
      </trkpt>
      <trkpt lat="43.00234" lon="-0.6932">
        <ele>780.30227942731</ele>
        <time>2015-02-22T09:27:40Z</time>
      </trkpt>
      <trkpt lat="43.00233" lon="-0.69323">
        <ele>780.51758056699</ele>
        <time>2015-02-22T09:27:43Z</time>
      </trkpt>
      <trkpt lat="43.00231" lon="-0.69328">
        <ele>780.51758056699</ele>
        <time>2015-02-22T09:27:48Z</time>
      </trkpt>
      <trkpt lat="43.00229" lon="-0.69333">
        <ele>780.51758056699</ele>
        <time>2015-02-22T09:27:53Z</time>
      </trkpt>
      <trkpt lat="43.00226" lon="-0.69338">
        <ele>780.73791065755</ele>
        <time>2015-02-22T09:27:58Z</time>
      </trkpt>
      <trkpt lat="43.00226" lon="-0.69345">
        <ele>780.73791065755</ele>
        <time>2015-02-22T09:28:04Z</time>
      </trkpt>
      <trkpt lat="43.00222" lon="-0.69348">
        <ele>780.98082720103</ele>
        <time>2015-02-22T09:28:08Z</time>
      </trkpt>
      <trkpt lat="43.0022" lon="-0.6935">
        <ele>780.98082720103</ele>
        <time>2015-02-22T09:28:12Z</time>
      </trkpt>
      <trkpt lat="43.00216" lon="-0.69355">
        <ele>780.98082720103</ele>
        <time>2015-02-22T09:28:18Z</time>
      </trkpt>
      <trkpt lat="43.00211" lon="-0.69358">
        <ele>781.24766700456</ele>
        <time>2015-02-22T09:28:24Z</time>
      </trkpt>
      <trkpt lat="43.00209" lon="-0.69362">
        <ele>781.24766700456</ele>
        <time>2015-02-22T09:28:29Z</time>
      </trkpt>
      <trkpt lat="43.00206" lon="-0.69362">
        <ele>781.24766700456</ele>
        <time>2015-02-22T09:28:32Z</time>
      </trkpt>
      <trkpt lat="43.002" lon="-0.69367">
        <ele>781.67395775058</ele>
        <time>2015-02-22T09:28:40Z</time>
      </trkpt>
      <trkpt lat="43.00197" lon="-0.69367">
        <ele>781.67395775058</ele>
        <time>2015-02-22T09:28:43Z</time>
      </trkpt>
      <trkpt lat="43.00193" lon="-0.69362">
        <ele>781.67395775058</ele>
        <time>2015-02-22T09:28:49Z</time>
      </trkpt>
      <trkpt lat="43.00194" lon="-0.69357">
        <ele>782.26556051458</ele>
        <time>2015-02-22T09:28:52Z</time>
      </trkpt>
      <trkpt lat="43.00197" lon="-0.69351">
        <ele>782.26556051458</ele>
        <time>2015-02-22T09:28:59Z</time>
      </trkpt>
      <trkpt lat="43.00199" lon="-0.69347">
        <ele>782.26556051458</ele>
        <time>2015-02-22T09:29:03Z</time>
      </trkpt>
      <trkpt lat="43.002" lon="-0.69341">
        <ele>782.84621244218</ele>
        <time>2015-02-22T09:29:09Z</time>
      </trkpt>
      <trkpt lat="43.00202" lon="-0.69338">
        <ele>782.84621244218</ele>
        <time>2015-02-22T09:29:12Z</time>
      </trkpt>
      <trkpt lat="43.00204" lon="-0.69332">
        <ele>782.84621244218</ele>
        <time>2015-02-22T09:29:19Z</time>
      </trkpt>
      <trkpt lat="43.00205" lon="-0.69327">
        <ele>783.59813152898</ele>
        <time>2015-02-22T09:29:24Z</time>
      </trkpt>
      <trkpt lat="43.00205" lon="-0.69323">
        <ele>783.59813152898</ele>
        <time>2015-02-22T09:29:28Z</time>
      </trkpt>
      <trkpt lat="43.00205" lon="-0.69318">
        <ele>783.59813152898</ele>
        <time>2015-02-22T09:29:33Z</time>
      </trkpt>
      <trkpt lat="43.00205" lon="-0.69313">
        <ele>784.35771440212</ele>
        <time>2015-02-22T09:29:39Z</time>
      </trkpt>
      <trkpt lat="43.00205" lon="-0.69309">
        <ele>784.35771440212</ele>
        <time>2015-02-22T09:29:43Z</time>
      </trkpt>
      <trkpt lat="43.00204" lon="-0.69303">
        <ele>784.35771440212</ele>
        <time>2015-02-22T09:29:49Z</time>
      </trkpt>
      <trkpt lat="43.00204" lon="-0.693">
        <ele>785.10899138285</ele>
        <time>2015-02-22T09:29:52Z</time>
      </trkpt>
      <trkpt lat="43.00202" lon="-0.6929">
        <ele>785.10899138285</ele>
        <time>2015-02-22T09:29:59Z</time>
      </trkpt>
      <trkpt lat="43.00202" lon="-0.69285">
        <ele>785.85231739078</ele>
        <time>2015-02-22T09:30:03Z</time>
      </trkpt>
      <trkpt lat="43.00202" lon="-0.69276">
        <ele>785.85231739078</ele>
        <time>2015-02-22T09:30:09Z</time>
      </trkpt>
      <trkpt lat="43.00201" lon="-0.69268">
        <ele>786.60314875796</ele>
        <time>2015-02-22T09:30:12Z</time>
      </trkpt>
      <trkpt lat="43.00201" lon="-0.6926">
        <ele>786.60314875796</ele>
        <time>2015-02-22T09:30:19Z</time>
      </trkpt>
      <trkpt lat="43.00201" lon="-0.69256">
        <ele>786.60314875796</ele>
        <time>2015-02-22T09:30:23Z</time>
      </trkpt>
      <trkpt lat="43.00201" lon="-0.6925">
        <ele>787.33047609855</ele>
        <time>2015-02-22T09:30:28Z</time>
      </trkpt>
      <trkpt lat="43.00201" lon="-0.69243">
        <ele>787.33047609855</ele>
        <time>2015-02-22T09:30:32Z</time>
      </trkpt>
      <trkpt lat="43.00201" lon="-0.69235">
        <ele>788.05104036242</ele>
        <time>2015-02-22T09:30:39Z</time>
      </trkpt>
      <trkpt lat="43.00203" lon="-0.6923">
        <ele>788.05104036242</ele>
        <time>2015-02-22T09:30:44Z</time>
      </trkpt>
      <trkpt lat="43.00203" lon="-0.69225">
        <ele>788.05104036242</ele>
        <time>2015-02-22T09:30:48Z</time>
      </trkpt>
      <trkpt lat="43.00202" lon="-0.69218">
        <ele>788.79528619182</ele>
        <time>2015-02-22T09:30:52Z</time>
      </trkpt>
      <trkpt lat="43.00201" lon="-0.69209">
        <ele>788.79528619182</ele>
        <time>2015-02-22T09:30:59Z</time>
      </trkpt>
      <trkpt lat="43.002" lon="-0.69206">
        <ele>789.47108478574</ele>
        <time>2015-02-22T09:31:03Z</time>
      </trkpt>
      <trkpt lat="43.00199" lon="-0.692">
        <ele>789.47108478574</ele>
        <time>2015-02-22T09:31:10Z</time>
      </trkpt>
      <trkpt lat="43.00198" lon="-0.69191">
        <ele>790.35337509149</ele>
        <time>2015-02-22T09:31:12Z</time>
      </trkpt>
      <trkpt lat="43.00195" lon="-0.69191">
        <ele>790.35337509149</ele>
        <time>2015-02-22T09:31:18Z</time>
      </trkpt>
      <trkpt lat="43.00194" lon="-0.69198">
        <ele>790.35337509149</ele>
        <time>2015-02-22T09:31:24Z</time>
      </trkpt>
      <trkpt lat="43.00192" lon="-0.69203">
        <ele>791.36492817544</ele>
        <time>2015-02-22T09:31:28Z</time>
      </trkpt>
      <trkpt lat="43.00192" lon="-0.69209">
        <ele>791.36492817544</ele>
        <time>2015-02-22T09:31:32Z</time>
      </trkpt>
      <trkpt lat="43.00192" lon="-0.69217">
        <ele>792.46437625075</ele>
        <time>2015-02-22T09:31:39Z</time>
      </trkpt>
      <trkpt lat="43.00192" lon="-0.69222">
        <ele>792.46437625075</ele>
        <time>2015-02-22T09:31:43Z</time>
      </trkpt>
      <trkpt lat="43.00191" lon="-0.69225">
        <ele>792.46437625075</ele>
        <time>2015-02-22T09:31:50Z</time>
      </trkpt>
      <trkpt lat="43.0019" lon="-0.69229">
        <ele>793.61359300625</ele>
        <time>2015-02-22T09:31:52Z</time>
      </trkpt>
      <trkpt lat="43.00187" lon="-0.69235">
        <ele>793.61359300625</ele>
        <time>2015-02-22T09:31:59Z</time>
      </trkpt>
      <trkpt lat="43.00185" lon="-0.6924">
        <ele>794.71827625174</ele>
        <time>2015-02-22T09:32:04Z</time>
      </trkpt>
      <trkpt lat="43.00185" lon="-0.69242">
        <ele>794.71827625174</ele>
        <time>2015-02-22T09:32:08Z</time>
      </trkpt>
      <trkpt lat="43.00184" lon="-0.69246">
        <ele>794.71827625174</ele>
        <time>2015-02-22T09:32:12Z</time>
      </trkpt>
      <trkpt lat="43.00181" lon="-0.69251">
        <ele>795.79569062964</ele>
        <time>2015-02-22T09:32:19Z</time>
      </trkpt>
      <trkpt lat="43.00178" lon="-0.69254">
        <ele>795.79569062964</ele>
        <time>2015-02-22T09:32:23Z</time>
      </trkpt>
      <trkpt lat="43.00176" lon="-0.69257">
        <ele>795.79569062964</ele>
        <time>2015-02-22T09:32:29Z</time>
      </trkpt>
      <trkpt lat="43.00174" lon="-0.69259">
        <ele>796.81750821953</ele>
        <time>2015-02-22T09:32:32Z</time>
      </trkpt>
      <trkpt lat="43.00169" lon="-0.69263">
        <ele>796.81750821953</ele>
        <time>2015-02-22T09:32:39Z</time>
      </trkpt>
      <trkpt lat="43.00167" lon="-0.69268">
        <ele>797.75792311124</ele>
        <time>2015-02-22T09:32:44Z</time>
      </trkpt>
      <trkpt lat="43.00165" lon="-0.6927">
        <ele>797.75792311124</ele>
        <time>2015-02-22T09:32:48Z</time>
      </trkpt>
      <trkpt lat="43.00163" lon="-0.69274">
        <ele>797.75792311124</ele>
        <time>2015-02-22T09:32:52Z</time>
      </trkpt>
      <trkpt lat="43.00159" lon="-0.69278">
        <ele>798.666870895</ele>
        <time>2015-02-22T09:32:59Z</time>
      </trkpt>
      <trkpt lat="43.00158" lon="-0.69282">
        <ele>798.666870895</ele>
        <time>2015-02-22T09:33:03Z</time>
      </trkpt>
      <trkpt lat="43.00155" lon="-0.69287">
        <ele>798.666870895</ele>
        <time>2015-02-22T09:33:09Z</time>
      </trkpt>
      <trkpt lat="43.00153" lon="-0.69291">
        <ele>799.54629529062</ele>
        <time>2015-02-22T09:33:12Z</time>
      </trkpt>
      <trkpt lat="43.0015" lon="-0.69293">
        <ele>799.54629529062</ele>
        <time>2015-02-22T09:33:19Z</time>
      </trkpt>
      <trkpt lat="43.00147" lon="-0.69296">
        <ele>799.54629529062</ele>
        <time>2015-02-22T09:33:23Z</time>
      </trkpt>
      <trkpt lat="43.00144" lon="-0.69299">
        <ele>800.36881350441</ele>
        <time>2015-02-22T09:33:29Z</time>
      </trkpt>
      <trkpt lat="43.00142" lon="-0.69302">
        <ele>800.36881350441</ele>
        <time>2015-02-22T09:33:32Z</time>
      </trkpt>
      <trkpt lat="43.0014" lon="-0.69305">
        <ele>800.36881350441</ele>
        <time>2015-02-22T09:33:38Z</time>
      </trkpt>
      <trkpt lat="43.00139" lon="-0.69309">
        <ele>801.16776097006</ele>
        <time>2015-02-22T09:33:44Z</time>
      </trkpt>
      <trkpt lat="43.00135" lon="-0.69313">
        <ele>801.16776097006</ele>
        <time>2015-02-22T09:33:49Z</time>
      </trkpt>
      <trkpt lat="43.00133" lon="-0.69316">
        <ele>801.16776097006</ele>
        <time>2015-02-22T09:33:52Z</time>
      </trkpt>
      <trkpt lat="43.00129" lon="-0.69321">
        <ele>801.93013151433</ele>
        <time>2015-02-22T09:33:59Z</time>
      </trkpt>
      <trkpt lat="43.00126" lon="-0.69324">
        <ele>801.93013151433</ele>
        <time>2015-02-22T09:34:03Z</time>
      </trkpt>
      <trkpt lat="43.00124" lon="-0.69326">
        <ele>801.93013151433</ele>
        <time>2015-02-22T09:34:08Z</time>
      </trkpt>
      <trkpt lat="43.00121" lon="-0.6933">
        <ele>802.62949895392</ele>
        <time>2015-02-22T09:34:13Z</time>
      </trkpt>
      <trkpt lat="43.00117" lon="-0.69333">
        <ele>802.62949895392</ele>
        <time>2015-02-22T09:34:19Z</time>
      </trkpt>
      <trkpt lat="43.00115" lon="-0.69334">
        <ele>802.62949895392</ele>
        <time>2015-02-22T09:34:23Z</time>
      </trkpt>
      <trkpt lat="43.00112" lon="-0.69337">
        <ele>803.31428526696</ele>
        <time>2015-02-22T09:34:29Z</time>
      </trkpt>
      <trkpt lat="43.0011" lon="-0.69336">
        <ele>803.31428526696</ele>
        <time>2015-02-22T09:34:32Z</time>
      </trkpt>
      <trkpt lat="43.00107" lon="-0.69334">
        <ele>803.31428526696</ele>
        <time>2015-02-22T09:34:39Z</time>
      </trkpt>
      <trkpt lat="43.00104" lon="-0.69335">
        <ele>803.31428526696</ele>
        <time>2015-02-22T09:34:44Z</time>
      </trkpt>
      <trkpt lat="43.00101" lon="-0.69341">
        <ele>804.02912043033</ele>
        <time>2015-02-22T09:34:48Z</time>
      </trkpt>
      <trkpt lat="43.00098" lon="-0.69342">
        <ele>804.02912043033</ele>
        <time>2015-02-22T09:34:52Z</time>
      </trkpt>
      <trkpt lat="43.00096" lon="-0.69331">
        <ele>804.82956339727</ele>
        <time>2015-02-22T09:35:09Z</time>
      </trkpt>
      <trkpt lat="43.00094" lon="-0.69334">
        <ele>804.82956339727</ele>
        <time>2015-02-22T09:35:12Z</time>
      </trkpt>
      <trkpt lat="43.00092" lon="-0.69333">
        <ele>804.82956339727</ele>
        <time>2015-02-22T09:35:19Z</time>
      </trkpt>
      <trkpt lat="43.00083" lon="-0.69332">
        <ele>805.69430286144</ele>
        <time>2015-02-22T09:35:28Z</time>
      </trkpt>
      <trkpt lat="43.0008" lon="-0.69331">
        <ele>805.69430286144</ele>
        <time>2015-02-22T09:35:32Z</time>
      </trkpt>
      <trkpt lat="43.00077" lon="-0.69329">
        <ele>805.69430286144</ele>
        <time>2015-02-22T09:35:39Z</time>
      </trkpt>
      <trkpt lat="43.00076" lon="-0.69328">
        <ele>805.69430286144</ele>
        <time>2015-02-22T09:35:43Z</time>
      </trkpt>
      <trkpt lat="43.00072" lon="-0.69327">
        <ele>806.61799624757</ele>
        <time>2015-02-22T09:35:52Z</time>
      </trkpt>
      <trkpt lat="43.00069" lon="-0.69326">
        <ele>806.61799624757</ele>
        <time>2015-02-22T09:35:59Z</time>
      </trkpt>
      <trkpt lat="43.00067" lon="-0.69325">
        <ele>806.61799624757</ele>
        <time>2015-02-22T09:36:04Z</time>
      </trkpt>
      <trkpt lat="43.00061" lon="-0.69326">
        <ele>807.53777524671</ele>
        <time>2015-02-22T09:36:13Z</time>
      </trkpt>
      <trkpt lat="43.00059" lon="-0.69329">
        <ele>807.53777524671</ele>
        <time>2015-02-22T09:36:17Z</time>
      </trkpt>
      <trkpt lat="43.00058" lon="-0.69334">
        <ele>807.53777524671</ele>
        <time>2015-02-22T09:36:24Z</time>
      </trkpt>
      <trkpt lat="43.00056" lon="-0.69338">
        <ele>808.42445657283</ele>
        <time>2015-02-22T09:36:28Z</time>
      </trkpt>
      <trkpt lat="43.00054" lon="-0.69342">
        <ele>808.42445657283</ele>
        <time>2015-02-22T09:36:32Z</time>
      </trkpt>
      <trkpt lat="43.00052" lon="-0.69346">
        <ele>808.42445657283</ele>
        <time>2015-02-22T09:36:39Z</time>
      </trkpt>
      <trkpt lat="43.00051" lon="-0.69351">
        <ele>809.20783815196</ele>
        <time>2015-02-22T09:36:44Z</time>
      </trkpt>
      <trkpt lat="43.00049" lon="-0.69354">
        <ele>809.20783815196</ele>
        <time>2015-02-22T09:36:48Z</time>
      </trkpt>
      <trkpt lat="43.00047" lon="-0.69358">
        <ele>809.20783815196</ele>
        <time>2015-02-22T09:36:53Z</time>
      </trkpt>
      <trkpt lat="43.00045" lon="-0.69361">
        <ele>809.90983550604</ele>
        <time>2015-02-22T09:36:58Z</time>
      </trkpt>
      <trkpt lat="43.00042" lon="-0.69365">
        <ele>809.90983550604</ele>
        <time>2015-02-22T09:37:02Z</time>
      </trkpt>
      <trkpt lat="43.0004" lon="-0.69372">
        <ele>810.55092451504</ele>
        <time>2015-02-22T09:37:09Z</time>
      </trkpt>
      <trkpt lat="43.00038" lon="-0.69375">
        <ele>810.55092451504</ele>
        <time>2015-02-22T09:37:12Z</time>
      </trkpt>
      <trkpt lat="43.00037" lon="-0.69377">
        <ele>810.55092451504</ele>
        <time>2015-02-22T09:37:18Z</time>
      </trkpt>
      <trkpt lat="43.00031" lon="-0.69384">
        <ele>811.32328314434</ele>
        <time>2015-02-22T09:37:24Z</time>
      </trkpt>
      <trkpt lat="43.00028" lon="-0.69383">
        <ele>811.32328314434</ele>
        <time>2015-02-22T09:37:28Z</time>
      </trkpt>
      <trkpt lat="43.00027" lon="-0.69385">
        <ele>811.32328314434</ele>
        <time>2015-02-22T09:37:32Z</time>
      </trkpt>
      <trkpt lat="43.00026" lon="-0.69389">
        <ele>811.32328314434</ele>
        <time>2015-02-22T09:37:39Z</time>
      </trkpt>
      <trkpt lat="43.00026" lon="-0.69395">
        <ele>812.04397316081</ele>
        <time>2015-02-22T09:37:44Z</time>
      </trkpt>
      <trkpt lat="43.00025" lon="-0.69398">
        <ele>812.04397316081</ele>
        <time>2015-02-22T09:37:49Z</time>
      </trkpt>
      <trkpt lat="43.00023" lon="-0.694">
        <ele>812.04397316081</ele>
        <time>2015-02-22T09:37:52Z</time>
      </trkpt>
      <trkpt lat="43.00021" lon="-0.69406">
        <ele>812.68794255265</ele>
        <time>2015-02-22T09:37:59Z</time>
      </trkpt>
      <trkpt lat="43.00018" lon="-0.69409">
        <ele>812.68794255265</ele>
        <time>2015-02-22T09:38:04Z</time>
      </trkpt>
      <trkpt lat="43.00016" lon="-0.69411">
        <ele>812.68794255265</ele>
        <time>2015-02-22T09:38:08Z</time>
      </trkpt>
      <trkpt lat="43.0001" lon="-0.69418">
        <ele>813.26103350741</ele>
        <time>2015-02-22T09:38:13Z</time>
      </trkpt>
      <trkpt lat="43.00005" lon="-0.69421">
        <ele>813.26103350741</ele>
        <time>2015-02-22T09:38:19Z</time>
      </trkpt>
      <trkpt lat="43.00002" lon="-0.69423">
        <ele>813.75443468195</ele>
        <time>2015-02-22T09:38:23Z</time>
      </trkpt>
      <trkpt lat="42.99998" lon="-0.69425">
        <ele>813.75443468195</ele>
        <time>2015-02-22T09:38:29Z</time>
      </trkpt>
      <trkpt lat="42.99996" lon="-0.69427">
        <ele>813.75443468195</ele>
        <time>2015-02-22T09:38:32Z</time>
      </trkpt>
      <trkpt lat="42.99993" lon="-0.69428">
        <ele>814.27554506755</ele>
        <time>2015-02-22T09:38:38Z</time>
      </trkpt>
      <trkpt lat="42.99991" lon="-0.69429">
        <ele>814.27554506755</ele>
        <time>2015-02-22T09:38:44Z</time>
      </trkpt>
      <trkpt lat="42.99988" lon="-0.69429">
        <ele>814.27554506755</ele>
        <time>2015-02-22T09:38:48Z</time>
      </trkpt>
      <trkpt lat="42.99985" lon="-0.69431">
        <ele>814.27554506755</ele>
        <time>2015-02-22T09:38:53Z</time>
      </trkpt>
      <trkpt lat="42.99979" lon="-0.69429">
        <ele>814.73636594165</ele>
        <time>2015-02-22T09:38:59Z</time>
      </trkpt>
      <trkpt lat="42.99976" lon="-0.69429">
        <ele>814.73636594165</ele>
        <time>2015-02-22T09:39:03Z</time>
      </trkpt>
      <trkpt lat="42.99971" lon="-0.69432">
        <ele>814.73636594165</ele>
        <time>2015-02-22T09:39:09Z</time>
      </trkpt>
      <trkpt lat="42.99969" lon="-0.69432">
        <ele>815.11320247069</ele>
        <time>2015-02-22T09:39:12Z</time>
      </trkpt>
      <trkpt lat="42.99963" lon="-0.69435">
        <ele>815.11320247069</ele>
        <time>2015-02-22T09:39:19Z</time>
      </trkpt>
      <trkpt lat="42.99959" lon="-0.69433">
        <ele>815.4420086655</ele>
        <time>2015-02-22T09:39:24Z</time>
      </trkpt>
      <trkpt lat="42.99958" lon="-0.69433">
        <ele>815.4420086655</ele>
        <time>2015-02-22T09:39:28Z</time>
      </trkpt>
      <trkpt lat="42.99953" lon="-0.69437">
        <ele>815.4420086655</ele>
        <time>2015-02-22T09:39:33Z</time>
      </trkpt>
      <trkpt lat="42.99951" lon="-0.69438">
        <ele>815.69855262059</ele>
        <time>2015-02-22T09:39:39Z</time>
      </trkpt>
      <trkpt lat="42.99948" lon="-0.6944">
        <ele>815.69855262059</ele>
        <time>2015-02-22T09:39:43Z</time>
      </trkpt>
      <trkpt lat="42.99942" lon="-0.69444">
        <ele>815.88941827202</ele>
        <time>2015-02-22T09:39:49Z</time>
      </trkpt>
      <trkpt lat="42.99938" lon="-0.69446">
        <ele>815.88941827202</ele>
        <time>2015-02-22T09:39:52Z</time>
      </trkpt>
      <trkpt lat="42.99931" lon="-0.69449">
        <ele>816.04972647284</ele>
        <time>2015-02-22T09:39:58Z</time>
      </trkpt>
      <trkpt lat="42.99926" lon="-0.69449">
        <ele>816.04972647284</ele>
        <time>2015-02-22T09:40:04Z</time>
      </trkpt>
      <trkpt lat="42.99923" lon="-0.69449">
        <ele>816.04972647284</ele>
        <time>2015-02-22T09:40:08Z</time>
      </trkpt>
      <trkpt lat="42.9992" lon="-0.69449">
        <ele>816.19767342482</ele>
        <time>2015-02-22T09:40:12Z</time>
      </trkpt>
      <trkpt lat="42.99917" lon="-0.69446">
        <ele>816.19767342482</ele>
        <time>2015-02-22T09:40:19Z</time>
      </trkpt>
      <trkpt lat="42.99914" lon="-0.69446">
        <ele>816.19767342482</ele>
        <time>2015-02-22T09:40:23Z</time>
      </trkpt>
      <trkpt lat="42.9991" lon="-0.69447">
        <ele>816.35013839755</ele>
        <time>2015-02-22T09:40:29Z</time>
      </trkpt>
      <trkpt lat="42.99907" lon="-0.69448">
        <ele>816.35013839755</ele>
        <time>2015-02-22T09:40:32Z</time>
      </trkpt>
      <trkpt lat="42.99904" lon="-0.6945">
        <ele>816.35013839755</ele>
        <time>2015-02-22T09:40:38Z</time>
      </trkpt>
      <trkpt lat="42.99901" lon="-0.69451">
        <ele>816.46503310393</ele>
        <time>2015-02-22T09:40:44Z</time>
      </trkpt>
      <trkpt lat="42.99897" lon="-0.69453">
        <ele>816.46503310393</ele>
        <time>2015-02-22T09:40:48Z</time>
      </trkpt>
      <trkpt lat="42.99892" lon="-0.69457">
        <ele>816.53228876901</ele>
        <time>2015-02-22T09:40:52Z</time>
      </trkpt>
      <trkpt lat="42.99887" lon="-0.6946">
        <ele>816.53228876901</ele>
        <time>2015-02-22T09:40:57Z</time>
      </trkpt>
      <trkpt lat="42.99882" lon="-0.69461">
        <ele>816.55710781758</ele>
        <time>2015-02-22T09:41:02Z</time>
      </trkpt>
      <trkpt lat="42.99877" lon="-0.69462">
        <ele>816.55710781758</ele>
        <time>2015-02-22T09:41:08Z</time>
      </trkpt>
      <trkpt lat="42.99873" lon="-0.69465">
        <ele>816.57324865439</ele>
        <time>2015-02-22T09:41:13Z</time>
      </trkpt>
      <trkpt lat="42.99869" lon="-0.69468">
        <ele>816.57324865439</ele>
        <time>2015-02-22T09:41:19Z</time>
      </trkpt>
      <trkpt lat="42.99862" lon="-0.6947">
        <ele>816.59755406496</ele>
        <time>2015-02-22T09:41:24Z</time>
      </trkpt>
      <trkpt lat="42.99861" lon="-0.69471">
        <ele>816.59755406496</ele>
        <time>2015-02-22T09:41:28Z</time>
      </trkpt>
      <trkpt lat="42.99856" lon="-0.6947">
        <ele>816.59755406496</ele>
        <time>2015-02-22T09:41:33Z</time>
      </trkpt>
      <trkpt lat="42.99851" lon="-0.69471">
        <ele>816.63114336289</ele>
        <time>2015-02-22T09:41:38Z</time>
      </trkpt>
      <trkpt lat="42.99846" lon="-0.69474">
        <ele>816.63114336289</ele>
        <time>2015-02-22T09:41:44Z</time>
      </trkpt>
      <trkpt lat="42.99842" lon="-0.69475">
        <ele>816.64613946153</ele>
        <time>2015-02-22T09:41:49Z</time>
      </trkpt>
      <trkpt lat="42.99838" lon="-0.69477">
        <ele>816.64613946153</ele>
        <time>2015-02-22T09:41:52Z</time>
      </trkpt>
      <trkpt lat="42.99833" lon="-0.69479">
        <ele>816.63115099539</ele>
        <time>2015-02-22T09:41:58Z</time>
      </trkpt>
      <trkpt lat="42.99829" lon="-0.69481">
        <ele>816.63115099539</ele>
        <time>2015-02-22T09:42:04Z</time>
      </trkpt>
      <trkpt lat="42.99825" lon="-0.69482">
        <ele>816.63115099539</ele>
        <time>2015-02-22T09:42:08Z</time>
      </trkpt>
      <trkpt lat="42.99822" lon="-0.69483">
        <ele>816.63335809852</ele>
        <time>2015-02-22T09:42:13Z</time>
      </trkpt>
      <trkpt lat="42.99819" lon="-0.69484">
        <ele>816.63335809852</ele>
        <time>2015-02-22T09:42:18Z</time>
      </trkpt>
      <trkpt lat="42.99814" lon="-0.69486">
        <ele>816.63335809852</ele>
        <time>2015-02-22T09:42:23Z</time>
      </trkpt>
      <trkpt lat="42.99811" lon="-0.69485">
        <ele>816.66752807195</ele>
        <time>2015-02-22T09:42:29Z</time>
      </trkpt>
      <trkpt lat="42.99808" lon="-0.69483">
        <ele>816.66752807195</ele>
        <time>2015-02-22T09:42:33Z</time>
      </trkpt>
      <trkpt lat="42.99806" lon="-0.69481">
        <ele>816.66752807195</ele>
        <time>2015-02-22T09:42:38Z</time>
      </trkpt>
      <trkpt lat="42.99806" lon="-0.6948">
        <ele>816.66752807195</ele>
        <time>2015-02-22T09:42:44Z</time>
      </trkpt>
      <trkpt lat="42.99813" lon="-0.6947">
        <ele>816.90584282273</ele>
        <time>2015-02-22T09:42:58Z</time>
      </trkpt>
      <trkpt lat="42.99815" lon="-0.69466">
        <ele>816.90584282273</ele>
        <time>2015-02-22T09:43:03Z</time>
      </trkpt>
      <trkpt lat="42.99817" lon="-0.69463">
        <ele>816.90584282273</ele>
        <time>2015-02-22T09:43:09Z</time>
      </trkpt>
      <trkpt lat="42.99821" lon="-0.69459">
        <ele>817.20433738062</ele>
        <time>2015-02-22T09:43:12Z</time>
      </trkpt>
      <trkpt lat="42.99815" lon="-0.6947">
        <ele>818.25139608432</ele>
        <time>2015-02-22T09:43:19Z</time>
      </trkpt>
      <trkpt lat="42.99806" lon="-0.69459">
        <ele>820.22111672913</ele>
        <time>2015-02-22T09:43:43Z</time>
      </trkpt>
      <trkpt lat="42.99802" lon="-0.69455">
        <ele>820.22111672913</ele>
        <time>2015-02-22T09:43:49Z</time>
      </trkpt>
      <trkpt lat="42.99799" lon="-0.69454">
        <ele>820.22111672913</ele>
        <time>2015-02-22T09:43:53Z</time>
      </trkpt>
      <trkpt lat="42.99793" lon="-0.69452">
        <ele>822.23399612504</ele>
        <time>2015-02-22T09:43:58Z</time>
      </trkpt>
      <trkpt lat="42.9979" lon="-0.69448">
        <ele>822.23399612504</ele>
        <time>2015-02-22T09:44:04Z</time>
      </trkpt>
      <trkpt lat="42.99786" lon="-0.69446">
        <ele>822.23399612504</ele>
        <time>2015-02-22T09:44:08Z</time>
      </trkpt>
      <trkpt lat="42.99783" lon="-0.69445">
        <ele>824.09516724737</ele>
        <time>2015-02-22T09:44:12Z</time>
      </trkpt>
      <trkpt lat="42.99777" lon="-0.69442">
        <ele>824.09516724737</ele>
        <time>2015-02-22T09:44:19Z</time>
      </trkpt>
      <trkpt lat="42.99776" lon="-0.69441">
        <ele>824.09516724737</ele>
        <time>2015-02-22T09:44:23Z</time>
      </trkpt>
      <trkpt lat="42.9977" lon="-0.6944">
        <ele>825.79754610203</ele>
        <time>2015-02-22T09:44:29Z</time>
      </trkpt>
      <trkpt lat="42.99769" lon="-0.69438">
        <ele>825.79754610203</ele>
        <time>2015-02-22T09:44:32Z</time>
      </trkpt>
      <trkpt lat="42.99761" lon="-0.69436">
        <ele>827.36385313582</ele>
        <time>2015-02-22T09:44:39Z</time>
      </trkpt>
      <trkpt lat="42.99758" lon="-0.69433">
        <ele>827.36385313582</ele>
        <time>2015-02-22T09:44:44Z</time>
      </trkpt>
      <trkpt lat="42.99755" lon="-0.6943">
        <ele>827.36385313582</ele>
        <time>2015-02-22T09:44:48Z</time>
      </trkpt>
      <trkpt lat="42.99753" lon="-0.69428">
        <ele>828.80111414237</ele>
        <time>2015-02-22T09:44:53Z</time>
      </trkpt>
      <trkpt lat="42.99749" lon="-0.69429">
        <ele>828.80111414237</ele>
        <time>2015-02-22T09:44:59Z</time>
      </trkpt>
      <trkpt lat="42.99746" lon="-0.69427">
        <ele>828.80111414237</ele>
        <time>2015-02-22T09:45:03Z</time>
      </trkpt>
      <trkpt lat="42.99736" lon="-0.69429">
        <ele>831.09646642478</ele>
        <time>2015-02-22T09:45:09Z</time>
      </trkpt>
      <trkpt lat="42.99733" lon="-0.69431">
        <ele>831.09646642478</ele>
        <time>2015-02-22T09:45:13Z</time>
      </trkpt>
      <trkpt lat="42.99734" lon="-0.69429">
        <ele>831.09646642478</ele>
        <time>2015-02-22T09:45:19Z</time>
      </trkpt>
      <trkpt lat="42.99728" lon="-0.69425">
        <ele>834.3691883142</ele>
        <time>2015-02-22T09:45:33Z</time>
      </trkpt>
      <trkpt lat="42.99728" lon="-0.69424">
        <ele>834.3691883142</ele>
        <time>2015-02-22T09:45:38Z</time>
      </trkpt>
      <trkpt lat="42.99731" lon="-0.69411">
        <ele>837.79017092125</ele>
        <time>2015-02-22T09:45:47Z</time>
      </trkpt>
      <trkpt lat="42.99728" lon="-0.69407">
        <ele>837.79017092125</ele>
        <time>2015-02-22T09:45:52Z</time>
      </trkpt>
      <trkpt lat="42.99724" lon="-0.69403">
        <ele>841.02339381781</ele>
        <time>2015-02-22T09:45:58Z</time>
      </trkpt>
      <trkpt lat="42.99719" lon="-0.69402">
        <ele>841.02339381781</ele>
        <time>2015-02-22T09:46:04Z</time>
      </trkpt>
      <trkpt lat="42.99716" lon="-0.69402">
        <ele>841.02339381781</ele>
        <time>2015-02-22T09:46:08Z</time>
      </trkpt>
      <trkpt lat="42.99709" lon="-0.694">
        <ele>843.95995336975</ele>
        <time>2015-02-22T09:46:13Z</time>
      </trkpt>
      <trkpt lat="42.99704" lon="-0.69398">
        <ele>843.95995336975</ele>
        <time>2015-02-22T09:46:18Z</time>
      </trkpt>
      <trkpt lat="42.997" lon="-0.69396">
        <ele>846.61518322064</ele>
        <time>2015-02-22T09:46:24Z</time>
      </trkpt>
      <trkpt lat="42.99698" lon="-0.69396">
        <ele>846.61518322064</ele>
        <time>2015-02-22T09:46:29Z</time>
      </trkpt>
      <trkpt lat="42.99688" lon="-0.69394">
        <ele>849.1194805312</ele>
        <time>2015-02-22T09:46:53Z</time>
      </trkpt>
      <trkpt lat="42.99683" lon="-0.6939">
        <ele>849.1194805312</ele>
        <time>2015-02-22T09:46:58Z</time>
      </trkpt>
      <trkpt lat="42.99677" lon="-0.69387">
        <ele>851.29152948272</ele>
        <time>2015-02-22T09:47:04Z</time>
      </trkpt>
      <trkpt lat="42.99674" lon="-0.69386">
        <ele>851.29152948272</ele>
        <time>2015-02-22T09:47:09Z</time>
      </trkpt>
      <trkpt lat="42.99668" lon="-0.69386">
        <ele>851.29152948272</ele>
        <time>2015-02-22T09:47:13Z</time>
      </trkpt>
      <trkpt lat="42.99662" lon="-0.69383">
        <ele>853.19498926284</ele>
        <time>2015-02-22T09:47:18Z</time>
      </trkpt>
      <trkpt lat="42.9966" lon="-0.69381">
        <ele>853.19498926284</ele>
        <time>2015-02-22T09:47:24Z</time>
      </trkpt>
      <trkpt lat="42.99657" lon="-0.69382">
        <ele>853.19498926284</ele>
        <time>2015-02-22T09:47:28Z</time>
      </trkpt>
      <trkpt lat="42.99656" lon="-0.6938">
        <ele>853.19498926284</ele>
        <time>2015-02-22T09:47:33Z</time>
      </trkpt>
      <trkpt lat="42.99653" lon="-0.69383">
        <ele>854.86088894519</ele>
        <time>2015-02-22T09:47:38Z</time>
      </trkpt>
      <trkpt lat="42.99647" lon="-0.69389">
        <ele>854.86088894519</ele>
        <time>2015-02-22T09:47:44Z</time>
      </trkpt>
      <trkpt lat="42.99646" lon="-0.69396">
        <ele>856.33317651402</ele>
        <time>2015-02-22T09:47:49Z</time>
      </trkpt>
      <trkpt lat="42.99646" lon="-0.69402">
        <ele>856.33317651402</ele>
        <time>2015-02-22T09:47:52Z</time>
      </trkpt>
      <trkpt lat="42.99648" lon="-0.69409">
        <ele>857.62441032046</ele>
        <time>2015-02-22T09:47:58Z</time>
      </trkpt>
      <trkpt lat="42.99652" lon="-0.69418">
        <ele>857.62441032046</ele>
        <time>2015-02-22T09:48:03Z</time>
      </trkpt>
      <trkpt lat="42.99655" lon="-0.69425">
        <ele>858.79008510613</ele>
        <time>2015-02-22T09:48:09Z</time>
      </trkpt>
      <trkpt lat="42.9966" lon="-0.69429">
        <ele>858.79008510613</ele>
        <time>2015-02-22T09:48:13Z</time>
      </trkpt>
      <trkpt lat="42.99662" lon="-0.69434">
        <ele>859.83884797526</ele>
        <time>2015-02-22T09:48:18Z</time>
      </trkpt>
      <trkpt lat="42.99667" lon="-0.6944">
        <ele>859.83884797526</ele>
        <time>2015-02-22T09:48:24Z</time>
      </trkpt>
      <trkpt lat="42.99673" lon="-0.69439">
        <ele>860.98090318952</ele>
        <time>2015-02-22T09:48:28Z</time>
      </trkpt>
      <trkpt lat="42.99674" lon="-0.6944">
        <ele>860.98090318952</ele>
        <time>2015-02-22T09:48:32Z</time>
      </trkpt>
      <trkpt lat="42.99677" lon="-0.69451">
        <ele>862.12262413106</ele>
        <time>2015-02-22T09:48:38Z</time>
      </trkpt>
      <trkpt lat="42.99681" lon="-0.69457">
        <ele>862.12262413106</ele>
        <time>2015-02-22T09:48:44Z</time>
      </trkpt>
      <trkpt lat="42.99683" lon="-0.69467">
        <ele>863.20617970079</ele>
        <time>2015-02-22T09:48:49Z</time>
      </trkpt>
      <trkpt lat="42.99685" lon="-0.69475">
        <ele>863.20617970079</ele>
        <time>2015-02-22T09:48:53Z</time>
      </trkpt>
      <trkpt lat="42.99687" lon="-0.69482">
        <ele>864.25029306528</ele>
        <time>2015-02-22T09:48:58Z</time>
      </trkpt>
      <trkpt lat="42.99687" lon="-0.69493">
        <ele>864.25029306528</ele>
        <time>2015-02-22T09:49:04Z</time>
      </trkpt>
      <trkpt lat="42.99688" lon="-0.69502">
        <ele>865.34455873335</ele>
        <time>2015-02-22T09:49:08Z</time>
      </trkpt>
      <trkpt lat="42.99689" lon="-0.6951">
        <ele>865.34455873335</ele>
        <time>2015-02-22T09:49:13Z</time>
      </trkpt>
      <trkpt lat="42.9969" lon="-0.69516">
        <ele>866.48545508459</ele>
        <time>2015-02-22T09:49:18Z</time>
      </trkpt>
      <trkpt lat="42.9969" lon="-0.69527">
        <ele>866.48545508459</ele>
        <time>2015-02-22T09:49:24Z</time>
      </trkpt>
      <trkpt lat="42.99693" lon="-0.69535">
        <ele>867.66965603648</ele>
        <time>2015-02-22T09:49:29Z</time>
      </trkpt>
      <trkpt lat="42.99696" lon="-0.69542">
        <ele>867.66965603648</ele>
        <time>2015-02-22T09:49:33Z</time>
      </trkpt>
      <trkpt lat="42.99697" lon="-0.69547">
        <ele>868.80755239391</ele>
        <time>2015-02-22T09:49:38Z</time>
      </trkpt>
      <trkpt lat="42.99698" lon="-0.69557">
        <ele>868.80755239391</ele>
        <time>2015-02-22T09:49:44Z</time>
      </trkpt>
      <trkpt lat="42.99699" lon="-0.69565">
        <ele>869.96041727015</ele>
        <time>2015-02-22T09:49:49Z</time>
      </trkpt>
      <trkpt lat="42.99699" lon="-0.6957">
        <ele>869.96041727015</ele>
        <time>2015-02-22T09:49:53Z</time>
      </trkpt>
      <trkpt lat="42.99697" lon="-0.69582">
        <ele>871.0120962084</ele>
        <time>2015-02-22T09:49:58Z</time>
      </trkpt>
      <trkpt lat="42.99697" lon="-0.69587">
        <ele>871.0120962084</ele>
        <time>2015-02-22T09:50:04Z</time>
      </trkpt>
      <trkpt lat="42.99703" lon="-0.69598">
        <ele>871.97058845373</ele>
        <time>2015-02-22T09:50:09Z</time>
      </trkpt>
      <trkpt lat="42.99706" lon="-0.69607">
        <ele>871.97058845373</ele>
        <time>2015-02-22T09:50:13Z</time>
      </trkpt>
      <trkpt lat="42.99707" lon="-0.6961">
        <ele>872.82919687074</ele>
        <time>2015-02-22T09:50:18Z</time>
      </trkpt>
      <trkpt lat="42.99709" lon="-0.69619">
        <ele>872.82919687074</ele>
        <time>2015-02-22T09:50:23Z</time>
      </trkpt>
      <trkpt lat="42.99709" lon="-0.69628">
        <ele>873.63967774468</ele>
        <time>2015-02-22T09:50:28Z</time>
      </trkpt>
      <trkpt lat="42.9971" lon="-0.69635">
        <ele>873.63967774468</ele>
        <time>2015-02-22T09:50:32Z</time>
      </trkpt>
      <trkpt lat="42.9971" lon="-0.69643">
        <ele>874.36368113682</ele>
        <time>2015-02-22T09:50:39Z</time>
      </trkpt>
      <trkpt lat="42.99713" lon="-0.69652">
        <ele>874.36368113682</ele>
        <time>2015-02-22T09:50:44Z</time>
      </trkpt>
      <trkpt lat="42.99717" lon="-0.69657">
        <ele>875.05240861</ele>
        <time>2015-02-22T09:50:49Z</time>
      </trkpt>
      <trkpt lat="42.99719" lon="-0.69664">
        <ele>875.05240861</ele>
        <time>2015-02-22T09:50:53Z</time>
      </trkpt>
      <trkpt lat="42.99721" lon="-0.69668">
        <ele>875.66694706364</ele>
        <time>2015-02-22T09:50:57Z</time>
      </trkpt>
      <trkpt lat="42.99722" lon="-0.6968">
        <ele>875.66694706364</ele>
        <time>2015-02-22T09:51:04Z</time>
      </trkpt>
      <trkpt lat="42.99722" lon="-0.69685">
        <ele>876.21469434072</ele>
        <time>2015-02-22T09:51:08Z</time>
      </trkpt>
      <trkpt lat="42.99722" lon="-0.69693">
        <ele>876.21469434072</ele>
        <time>2015-02-22T09:51:13Z</time>
      </trkpt>
      <trkpt lat="42.99724" lon="-0.697">
        <ele>876.73151839998</ele>
        <time>2015-02-22T09:51:18Z</time>
      </trkpt>
      <trkpt lat="42.99728" lon="-0.69707">
        <ele>876.73151839998</ele>
        <time>2015-02-22T09:51:24Z</time>
      </trkpt>
      <trkpt lat="42.99728" lon="-0.69717">
        <ele>877.23632423198</ele>
        <time>2015-02-22T09:51:29Z</time>
      </trkpt>
      <trkpt lat="42.99731" lon="-0.69723">
        <ele>877.23632423198</ele>
        <time>2015-02-22T09:51:33Z</time>
      </trkpt>
      <trkpt lat="42.99735" lon="-0.69728">
        <ele>877.71782907192</ele>
        <time>2015-02-22T09:51:38Z</time>
      </trkpt>
      <trkpt lat="42.99735" lon="-0.69734">
        <ele>877.71782907192</ele>
        <time>2015-02-22T09:51:44Z</time>
      </trkpt>
      <trkpt lat="42.99738" lon="-0.6974">
        <ele>878.10798260267</ele>
        <time>2015-02-22T09:51:54Z</time>
      </trkpt>
      <trkpt lat="42.99737" lon="-0.69743">
        <ele>878.10798260267</ele>
        <time>2015-02-22T09:51:58Z</time>
      </trkpt>
      <trkpt lat="42.99738" lon="-0.69748">
        <ele>878.10798260267</ele>
        <time>2015-02-22T09:52:03Z</time>
      </trkpt>
      <trkpt lat="42.99738" lon="-0.69756">
        <ele>878.47367121683</ele>
        <time>2015-02-22T09:52:09Z</time>
      </trkpt>
      <trkpt lat="42.9974" lon="-0.69759">
        <ele>878.47367121683</ele>
        <time>2015-02-22T09:52:13Z</time>
      </trkpt>
      <trkpt lat="42.99741" lon="-0.69763">
        <ele>878.47367121683</ele>
        <time>2015-02-22T09:52:18Z</time>
      </trkpt>
      <trkpt lat="42.99742" lon="-0.69769">
        <ele>878.86249718481</ele>
        <time>2015-02-22T09:52:24Z</time>
      </trkpt>
      <trkpt lat="42.99742" lon="-0.69776">
        <ele>878.86249718481</ele>
        <time>2015-02-22T09:52:28Z</time>
      </trkpt>
      <trkpt lat="42.9975" lon="-0.69785">
        <ele>879.28964501282</ele>
        <time>2015-02-22T09:52:33Z</time>
      </trkpt>
      <trkpt lat="42.99753" lon="-0.6979">
        <ele>879.28964501282</ele>
        <time>2015-02-22T09:52:38Z</time>
      </trkpt>
      <trkpt lat="42.99749" lon="-0.69798">
        <ele>879.74021557481</ele>
        <time>2015-02-22T09:52:44Z</time>
      </trkpt>
      <trkpt lat="42.99748" lon="-0.69805">
        <ele>879.74021557481</ele>
        <time>2015-02-22T09:52:49Z</time>
      </trkpt>
      <trkpt lat="42.99748" lon="-0.69814">
        <ele>880.27235362532</ele>
        <time>2015-02-22T09:52:54Z</time>
      </trkpt>
      <trkpt lat="42.99748" lon="-0.69821">
        <ele>880.27235362532</ele>
        <time>2015-02-22T09:52:57Z</time>
      </trkpt>
      <trkpt lat="42.9975" lon="-0.69832">
        <ele>880.92524702873</ele>
        <time>2015-02-22T09:53:04Z</time>
      </trkpt>
      <trkpt lat="42.99752" lon="-0.69837">
        <ele>880.92524702873</ele>
        <time>2015-02-22T09:53:08Z</time>
      </trkpt>
      <trkpt lat="42.99753" lon="-0.69843">
        <ele>880.92524702873</ele>
        <time>2015-02-22T09:53:13Z</time>
      </trkpt>
      <trkpt lat="42.99755" lon="-0.69848">
        <ele>881.57629373364</ele>
        <time>2015-02-22T09:53:18Z</time>
      </trkpt>
      <trkpt lat="42.99757" lon="-0.69851">
        <ele>881.57629373364</ele>
        <time>2015-02-22T09:53:23Z</time>
      </trkpt>
      <trkpt lat="42.99758" lon="-0.69851">
        <ele>881.57629373364</ele>
        <time>2015-02-22T09:53:29Z</time>
      </trkpt>
      <trkpt lat="42.99754" lon="-0.6986">
        <ele>882.41449288136</ele>
        <time>2015-02-22T09:54:03Z</time>
      </trkpt>
      <trkpt lat="42.99759" lon="-0.69851">
        <ele>882.41449288136</ele>
        <time>2015-02-22T09:54:34Z</time>
      </trkpt>
      <trkpt lat="42.99754" lon="-0.69861">
        <ele>883.81614373227</ele>
        <time>2015-02-22T09:55:13Z</time>
      </trkpt>
      <trkpt lat="42.99756" lon="-0.69861">
        <ele>883.81614373227</ele>
        <time>2015-02-22T09:55:17Z</time>
      </trkpt>
      <trkpt lat="42.99762" lon="-0.69863">
        <ele>883.81614373227</ele>
        <time>2015-02-22T09:56:12Z</time>
      </trkpt>
      <trkpt lat="42.99764" lon="-0.69865">
        <ele>885.5374118944</ele>
        <time>2015-02-22T09:56:17Z</time>
      </trkpt>
      <trkpt lat="42.99764" lon="-0.6986">
        <ele>885.5374118944</ele>
        <time>2015-02-22T09:56:22Z</time>
      </trkpt>
      <trkpt lat="42.99764" lon="-0.69859">
        <ele>885.5374118944</ele>
        <time>2015-02-22T09:56:27Z</time>
      </trkpt>
      <trkpt lat="42.99769" lon="-0.69854">
        <ele>887.14968056683</ele>
        <time>2015-02-22T09:56:32Z</time>
      </trkpt>
      <trkpt lat="42.99769" lon="-0.69851">
        <ele>887.14968056683</ele>
        <time>2015-02-22T09:56:37Z</time>
      </trkpt>
      <trkpt lat="42.99769" lon="-0.69852">
        <ele>887.14968056683</ele>
        <time>2015-02-22T09:56:42Z</time>
      </trkpt>
      <trkpt lat="42.99759" lon="-0.69851">
        <ele>888.60196088322</ele>
        <time>2015-02-22T09:57:12Z</time>
      </trkpt>
      <trkpt lat="42.99762" lon="-0.69857">
        <ele>888.60196088322</ele>
        <time>2015-02-22T09:58:02Z</time>
      </trkpt>
      <trkpt lat="42.99754" lon="-0.69852">
        <ele>890.02036366115</ele>
        <time>2015-02-22T09:58:35Z</time>
      </trkpt>
      <trkpt lat="42.99753" lon="-0.69852">
        <ele>890.02036366115</ele>
        <time>2015-02-22T09:58:37Z</time>
      </trkpt>
      <trkpt lat="42.99763" lon="-0.69856">
        <ele>891.43533884549</ele>
        <time>2015-02-22T09:59:04Z</time>
      </trkpt>
      <trkpt lat="42.99763" lon="-0.69857">
        <ele>891.43533884549</ele>
        <time>2015-02-22T09:59:08Z</time>
      </trkpt>
      <trkpt lat="42.99761" lon="-0.6987">
        <ele>892.83185614439</ele>
        <time>2015-02-22T09:59:34Z</time>
      </trkpt>
      <trkpt lat="42.99763" lon="-0.69873">
        <ele>892.83185614439</ele>
        <time>2015-02-22T09:59:37Z</time>
      </trkpt>
      <trkpt lat="42.99766" lon="-0.69878">
        <ele>892.83185614439</ele>
        <time>2015-02-22T09:59:45Z</time>
      </trkpt>
      <trkpt lat="42.99767" lon="-0.69879">
        <ele>892.83185614439</ele>
        <time>2015-02-22T09:59:48Z</time>
      </trkpt>
      <trkpt lat="42.99771" lon="-0.69883">
        <ele>894.12396991788</ele>
        <time>2015-02-22T09:59:53Z</time>
      </trkpt>
      <trkpt lat="42.99773" lon="-0.69885">
        <ele>894.12396991788</ele>
        <time>2015-02-22T09:59:57Z</time>
      </trkpt>
      <trkpt lat="42.99778" lon="-0.69888">
        <ele>894.12396991788</ele>
        <time>2015-02-22T10:00:02Z</time>
      </trkpt>
      <trkpt lat="42.99781" lon="-0.6989">
        <ele>895.30438492386</ele>
        <time>2015-02-22T10:00:08Z</time>
      </trkpt>
      <trkpt lat="42.99786" lon="-0.69893">
        <ele>895.30438492386</ele>
        <time>2015-02-22T10:00:13Z</time>
      </trkpt>
      <trkpt lat="42.99786" lon="-0.69896">
        <ele>895.30438492386</ele>
        <time>2015-02-22T10:00:18Z</time>
      </trkpt>
      <trkpt lat="42.99789" lon="-0.69902">
        <ele>896.35223426091</ele>
        <time>2015-02-22T10:00:23Z</time>
      </trkpt>
      <trkpt lat="42.99792" lon="-0.69904">
        <ele>896.35223426091</ele>
        <time>2015-02-22T10:00:29Z</time>
      </trkpt>
      <trkpt lat="42.99792" lon="-0.69906">
        <ele>896.35223426091</ele>
        <time>2015-02-22T10:00:34Z</time>
      </trkpt>
      <trkpt lat="42.99792" lon="-0.69906">
        <ele>896.35223426091</ele>
        <time>2015-02-22T10:00:37Z</time>
      </trkpt>
      <trkpt lat="42.99794" lon="-0.6992">
        <ele>897.39265920281</ele>
        <time>2015-02-22T10:00:52Z</time>
      </trkpt>
      <trkpt lat="42.99795" lon="-0.69924">
        <ele>897.39265920281</ele>
        <time>2015-02-22T10:00:58Z</time>
      </trkpt>
      <trkpt lat="42.99795" lon="-0.6993">
        <ele>897.39265920281</ele>
        <time>2015-02-22T10:01:03Z</time>
      </trkpt>
      <trkpt lat="42.99797" lon="-0.69933">
        <ele>898.35427642041</ele>
        <time>2015-02-22T10:01:07Z</time>
      </trkpt>
      <trkpt lat="42.99797" lon="-0.69941">
        <ele>898.35427642041</ele>
        <time>2015-02-22T10:01:13Z</time>
      </trkpt>
      <trkpt lat="42.99796" lon="-0.69942">
        <ele>898.35427642041</ele>
        <time>2015-02-22T10:01:17Z</time>
      </trkpt>
      <trkpt lat="42.9979" lon="-0.69946">
        <ele>899.34409402246</ele>
        <time>2015-02-22T10:01:28Z</time>
      </trkpt>
      <trkpt lat="42.99787" lon="-0.69947">
        <ele>899.34409402246</ele>
        <time>2015-02-22T10:01:33Z</time>
      </trkpt>
      <trkpt lat="42.99788" lon="-0.69949">
        <ele>899.34409402246</ele>
        <time>2015-02-22T10:01:37Z</time>
      </trkpt>
      <trkpt lat="42.99794" lon="-0.69953">
        <ele>900.27382787719</ele>
        <time>2015-02-22T10:01:43Z</time>
      </trkpt>
      <trkpt lat="42.99797" lon="-0.69958">
        <ele>900.27382787719</ele>
        <time>2015-02-22T10:01:49Z</time>
      </trkpt>
      <trkpt lat="42.99798" lon="-0.69959">
        <ele>900.27382787719</ele>
        <time>2015-02-22T10:01:54Z</time>
      </trkpt>
      <trkpt lat="42.99799" lon="-0.6996">
        <ele>900.27382787719</ele>
        <time>2015-02-22T10:01:57Z</time>
      </trkpt>
      <trkpt lat="42.99798" lon="-0.69961">
        <ele>900.27382787719</ele>
        <time>2015-02-22T10:02:05Z</time>
      </trkpt>
      <trkpt lat="42.99798" lon="-0.6997">
        <ele>901.20595130769</ele>
        <time>2015-02-22T10:02:20Z</time>
      </trkpt>
      <trkpt lat="42.99798" lon="-0.69972">
        <ele>901.20595130769</ele>
        <time>2015-02-22T10:02:24Z</time>
      </trkpt>
      <trkpt lat="42.99797" lon="-0.69976">
        <ele>901.20595130769</ele>
        <time>2015-02-22T10:02:29Z</time>
      </trkpt>
      <trkpt lat="42.99798" lon="-0.69982">
        <ele>902.06863303611</ele>
        <time>2015-02-22T10:02:33Z</time>
      </trkpt>
      <trkpt lat="42.99799" lon="-0.69984">
        <ele>902.06863303611</ele>
        <time>2015-02-22T10:02:37Z</time>
      </trkpt>
      <trkpt lat="42.99798" lon="-0.69989">
        <ele>902.06863303611</ele>
        <time>2015-02-22T10:02:44Z</time>
      </trkpt>
      <trkpt lat="42.99798" lon="-0.69991">
        <ele>902.06863303611</ele>
        <time>2015-02-22T10:02:48Z</time>
      </trkpt>
      <trkpt lat="42.99797" lon="-0.69993">
        <ele>902.06863303611</ele>
        <time>2015-02-22T10:02:53Z</time>
      </trkpt>
      <trkpt lat="42.99796" lon="-0.69994">
        <ele>902.92520430249</ele>
        <time>2015-02-22T10:02:58Z</time>
      </trkpt>
      <trkpt lat="42.99793" lon="-0.69994">
        <ele>902.92520430249</ele>
        <time>2015-02-22T10:03:05Z</time>
      </trkpt>
      <trkpt lat="42.99791" lon="-0.69994">
        <ele>902.92520430249</ele>
        <time>2015-02-22T10:03:08Z</time>
      </trkpt>
      <trkpt lat="42.99794" lon="-0.69999">
        <ele>903.89199584315</ele>
        <time>2015-02-22T10:03:14Z</time>
      </trkpt>
      <trkpt lat="42.99794" lon="-0.70001">
        <ele>903.89199584315</ele>
        <time>2015-02-22T10:03:17Z</time>
      </trkpt>
      <trkpt lat="42.99793" lon="-0.70013">
        <ele>905.01882895115</ele>
        <time>2015-02-22T10:03:37Z</time>
      </trkpt>
      <trkpt lat="42.99791" lon="-0.70017">
        <ele>905.01882895115</ele>
        <time>2015-02-22T10:03:44Z</time>
      </trkpt>
      <trkpt lat="42.9979" lon="-0.70019">
        <ele>905.01882895115</ele>
        <time>2015-02-22T10:03:49Z</time>
      </trkpt>
      <trkpt lat="42.9979" lon="-0.7002">
        <ele>905.01882895115</ele>
        <time>2015-02-22T10:03:54Z</time>
      </trkpt>
      <trkpt lat="42.99788" lon="-0.70029">
        <ele>906.36581756998</ele>
        <time>2015-02-22T10:04:05Z</time>
      </trkpt>
      <trkpt lat="42.99787" lon="-0.7003">
        <ele>906.36581756998</ele>
        <time>2015-02-22T10:04:08Z</time>
      </trkpt>
      <trkpt lat="42.99782" lon="-0.70034">
        <ele>906.36581756998</ele>
        <time>2015-02-22T10:04:17Z</time>
      </trkpt>
      <trkpt lat="42.99775" lon="-0.70033">
        <ele>907.85833390646</ele>
        <time>2015-02-22T10:04:24Z</time>
      </trkpt>
      <trkpt lat="42.99772" lon="-0.70035">
        <ele>907.85833390646</ele>
        <time>2015-02-22T10:04:29Z</time>
      </trkpt>
      <trkpt lat="42.99769" lon="-0.70036">
        <ele>907.85833390646</ele>
        <time>2015-02-22T10:04:33Z</time>
      </trkpt>
      <trkpt lat="42.99765" lon="-0.70039">
        <ele>909.34035175056</ele>
        <time>2015-02-22T10:04:38Z</time>
      </trkpt>
      <trkpt lat="42.99762" lon="-0.7004">
        <ele>909.34035175056</ele>
        <time>2015-02-22T10:04:42Z</time>
      </trkpt>
      <trkpt lat="42.99757" lon="-0.7004">
        <ele>909.34035175056</ele>
        <time>2015-02-22T10:04:47Z</time>
      </trkpt>
      <trkpt lat="42.99755" lon="-0.70042">
        <ele>910.85467829511</ele>
        <time>2015-02-22T10:04:54Z</time>
      </trkpt>
      <trkpt lat="42.99755" lon="-0.70042">
        <ele>910.85467829511</ele>
        <time>2015-02-22T10:04:57Z</time>
      </trkpt>
      <trkpt lat="42.99756" lon="-0.70044">
        <ele>910.85467829511</ele>
        <time>2015-02-22T10:05:04Z</time>
      </trkpt>
      <trkpt lat="42.99752" lon="-0.70051">
        <ele>910.85467829511</ele>
        <time>2015-02-22T10:05:12Z</time>
      </trkpt>
      <trkpt lat="42.99751" lon="-0.70054">
        <ele>912.38324256163</ele>
        <time>2015-02-22T10:05:18Z</time>
      </trkpt>
      <trkpt lat="42.99751" lon="-0.70055">
        <ele>912.38324256163</ele>
        <time>2015-02-22T10:05:24Z</time>
      </trkpt>
      <trkpt lat="42.99746" lon="-0.70061">
        <ele>912.38324256163</ele>
        <time>2015-02-22T10:05:34Z</time>
      </trkpt>
      <trkpt lat="42.99745" lon="-0.70064">
        <ele>913.90926637232</ele>
        <time>2015-02-22T10:05:37Z</time>
      </trkpt>
      <trkpt lat="42.99743" lon="-0.70069">
        <ele>913.90926637232</ele>
        <time>2015-02-22T10:05:43Z</time>
      </trkpt>
      <trkpt lat="42.99741" lon="-0.70076">
        <ele>915.31634188333</ele>
        <time>2015-02-22T10:05:49Z</time>
      </trkpt>
      <trkpt lat="42.9974" lon="-0.70081">
        <ele>915.31634188333</ele>
        <time>2015-02-22T10:05:54Z</time>
      </trkpt>
      <trkpt lat="42.99739" lon="-0.70084">
        <ele>915.31634188333</ele>
        <time>2015-02-22T10:05:57Z</time>
      </trkpt>
      <trkpt lat="42.99737" lon="-0.70089">
        <ele>916.69871332503</ele>
        <time>2015-02-22T10:06:04Z</time>
      </trkpt>
      <trkpt lat="42.99736" lon="-0.70093">
        <ele>916.69871332503</ele>
        <time>2015-02-22T10:06:08Z</time>
      </trkpt>
      <trkpt lat="42.99735" lon="-0.70097">
        <ele>916.69871332503</ele>
        <time>2015-02-22T10:06:14Z</time>
      </trkpt>
      <trkpt lat="42.99734" lon="-0.70101">
        <ele>917.98526238016</ele>
        <time>2015-02-22T10:06:17Z</time>
      </trkpt>
      <trkpt lat="42.99731" lon="-0.70106">
        <ele>917.98526238016</ele>
        <time>2015-02-22T10:06:24Z</time>
      </trkpt>
      <trkpt lat="42.9973" lon="-0.70112">
        <ele>917.98526238016</ele>
        <time>2015-02-22T10:06:29Z</time>
      </trkpt>
      <trkpt lat="42.99729" lon="-0.70115">
        <ele>919.18243450111</ele>
        <time>2015-02-22T10:06:33Z</time>
      </trkpt>
      <trkpt lat="42.99728" lon="-0.70121">
        <ele>919.18243450111</ele>
        <time>2015-02-22T10:06:37Z</time>
      </trkpt>
      <trkpt lat="42.99726" lon="-0.70127">
        <ele>920.31087916312</ele>
        <time>2015-02-22T10:06:44Z</time>
      </trkpt>
      <trkpt lat="42.99726" lon="-0.70131">
        <ele>920.31087916312</ele>
        <time>2015-02-22T10:06:47Z</time>
      </trkpt>
      <trkpt lat="42.99724" lon="-0.70134">
        <ele>920.31087916312</ele>
        <time>2015-02-22T10:06:54Z</time>
      </trkpt>
      <trkpt lat="42.99722" lon="-0.70136">
        <ele>920.31087916312</ele>
        <time>2015-02-22T10:06:57Z</time>
      </trkpt>
      <trkpt lat="42.99719" lon="-0.70141">
        <ele>921.4619930755</ele>
        <time>2015-02-22T10:07:06Z</time>
      </trkpt>
      <trkpt lat="42.99716" lon="-0.70146">
        <ele>921.4619930755</ele>
        <time>2015-02-22T10:07:08Z</time>
      </trkpt>
      <trkpt lat="42.99711" lon="-0.70151">
        <ele>922.53306592054</ele>
        <time>2015-02-22T10:07:13Z</time>
      </trkpt>
      <trkpt lat="42.99707" lon="-0.70151">
        <ele>922.53306592054</ele>
        <time>2015-02-22T10:07:17Z</time>
      </trkpt>
      <trkpt lat="42.99701" lon="-0.70152">
        <ele>923.50122667459</ele>
        <time>2015-02-22T10:07:24Z</time>
      </trkpt>
      <trkpt lat="42.99699" lon="-0.70151">
        <ele>923.50122667459</ele>
        <time>2015-02-22T10:07:28Z</time>
      </trkpt>
      <trkpt lat="42.99691" lon="-0.70149">
        <ele>924.47528597254</ele>
        <time>2015-02-22T10:07:34Z</time>
      </trkpt>
      <trkpt lat="42.99686" lon="-0.70147">
        <ele>924.47528597254</ele>
        <time>2015-02-22T10:07:37Z</time>
      </trkpt>
      <trkpt lat="42.99681" lon="-0.70143">
        <ele>925.39753335692</ele>
        <time>2015-02-22T10:07:44Z</time>
      </trkpt>
      <trkpt lat="42.9968" lon="-0.70138">
        <ele>925.39753335692</ele>
        <time>2015-02-22T10:07:48Z</time>
      </trkpt>
      <trkpt lat="42.99675" lon="-0.70154">
        <ele>927.29548829078</ele>
        <time>2015-02-22T10:07:54Z</time>
      </trkpt>
      <trkpt lat="42.99675" lon="-0.70155">
        <ele>927.29548829078</ele>
        <time>2015-02-22T10:07:57Z</time>
      </trkpt>
      <trkpt lat="42.9968" lon="-0.70154">
        <ele>927.29548829078</ele>
        <time>2015-02-22T10:08:04Z</time>
      </trkpt>
      <trkpt lat="42.99677" lon="-0.70148">
        <ele>930.29703124042</ele>
        <time>2015-02-22T10:08:16Z</time>
      </trkpt>
      <trkpt lat="42.99677" lon="-0.70147">
        <ele>930.29703124042</ele>
        <time>2015-02-22T10:08:17Z</time>
      </trkpt>
      <trkpt lat="42.99676" lon="-0.70145">
        <ele>930.29703124042</ele>
        <time>2015-02-22T10:08:24Z</time>
      </trkpt>
      <trkpt lat="42.99683" lon="-0.70136">
        <ele>933.69613846564</ele>
        <time>2015-02-22T10:08:28Z</time>
      </trkpt>
      <trkpt lat="42.99683" lon="-0.70132">
        <ele>933.69613846564</ele>
        <time>2015-02-22T10:08:34Z</time>
      </trkpt>
      <trkpt lat="42.99684" lon="-0.70128">
        <ele>933.69613846564</ele>
        <time>2015-02-22T10:08:37Z</time>
      </trkpt>
      <trkpt lat="42.99684" lon="-0.70126">
        <ele>933.69613846564</ele>
        <time>2015-02-22T10:08:43Z</time>
      </trkpt>
      <trkpt lat="42.99674" lon="-0.70121">
        <ele>937.831934626</ele>
        <time>2015-02-22T10:08:48Z</time>
      </trkpt>
      <trkpt lat="42.99666" lon="-0.70116">
        <ele>937.831934626</ele>
        <time>2015-02-22T10:08:53Z</time>
      </trkpt>
      <trkpt lat="42.99665" lon="-0.70113">
        <ele>942.09430211354</ele>
        <time>2015-02-22T10:08:57Z</time>
      </trkpt>
      <trkpt lat="42.99674" lon="-0.70106">
        <ele>946.1194099319</ele>
        <time>2015-02-22T10:09:04Z</time>
      </trkpt>
      <trkpt lat="42.99673" lon="-0.70103">
        <ele>946.1194099319</ele>
        <time>2015-02-22T10:09:08Z</time>
      </trkpt>
      <trkpt lat="42.99672" lon="-0.70099">
        <ele>946.1194099319</ele>
        <time>2015-02-22T10:09:13Z</time>
      </trkpt>
      <trkpt lat="42.99677" lon="-0.70095">
        <ele>950.07529470977</ele>
        <time>2015-02-22T10:09:17Z</time>
      </trkpt>
      <trkpt lat="42.99673" lon="-0.70091">
        <ele>950.07529470977</ele>
        <time>2015-02-22T10:09:23Z</time>
      </trkpt>
      <trkpt lat="42.99667" lon="-0.70086">
        <ele>953.87295762322</ele>
        <time>2015-02-22T10:09:27Z</time>
      </trkpt>
      <trkpt lat="42.99665" lon="-0.7008">
        <ele>953.87295762322</ele>
        <time>2015-02-22T10:09:32Z</time>
      </trkpt>
      <trkpt lat="42.99666" lon="-0.70073">
        <ele>957.43049970215</ele>
        <time>2015-02-22T10:09:38Z</time>
      </trkpt>
      <trkpt lat="42.99662" lon="-0.70067">
        <ele>957.43049970215</ele>
        <time>2015-02-22T10:09:43Z</time>
      </trkpt>
      <trkpt lat="42.99661" lon="-0.70067">
        <ele>957.43049970215</ele>
        <time>2015-02-22T10:09:48Z</time>
      </trkpt>
      <trkpt lat="42.99662" lon="-0.70059">
        <ele>961.22046532733</ele>
        <time>2015-02-22T10:09:54Z</time>
      </trkpt>
      <trkpt lat="42.99666" lon="-0.70052">
        <ele>961.22046532733</ele>
        <time>2015-02-22T10:09:57Z</time>
      </trkpt>
      <trkpt lat="42.99662" lon="-0.70048">
        <ele>965.06049726003</ele>
        <time>2015-02-22T10:10:03Z</time>
      </trkpt>
      <trkpt lat="42.99659" lon="-0.70043">
        <ele>965.06049726003</ele>
        <time>2015-02-22T10:10:09Z</time>
      </trkpt>
      <trkpt lat="42.99679" lon="-0.70035">
        <ele>968.66635524837</ele>
        <time>2015-02-22T10:10:14Z</time>
      </trkpt>
      <trkpt lat="42.99679" lon="-0.70031">
        <ele>968.66635524837</ele>
        <time>2015-02-22T10:10:17Z</time>
      </trkpt>
      <trkpt lat="42.99674" lon="-0.70024">
        <ele>972.06371647097</ele>
        <time>2015-02-22T10:10:24Z</time>
      </trkpt>
      <trkpt lat="42.99676" lon="-0.7002">
        <ele>972.06371647097</ele>
        <time>2015-02-22T10:10:29Z</time>
      </trkpt>
      <trkpt lat="42.99675" lon="-0.7002">
        <ele>972.06371647097</ele>
        <time>2015-02-22T10:10:33Z</time>
      </trkpt>
      <trkpt lat="42.99676" lon="-0.70014">
        <ele>972.06371647097</ele>
        <time>2015-02-22T10:10:37Z</time>
      </trkpt>
      <trkpt lat="42.99676" lon="-0.7001">
        <ele>975.59416556385</ele>
        <time>2015-02-22T10:10:44Z</time>
      </trkpt>
      <trkpt lat="42.99673" lon="-0.7001">
        <ele>975.59416556385</ele>
        <time>2015-02-22T10:10:48Z</time>
      </trkpt>
      <trkpt lat="42.99678" lon="-0.70009">
        <ele>975.59416556385</ele>
        <time>2015-02-22T10:10:54Z</time>
      </trkpt>
      <trkpt lat="42.99677" lon="-0.70009">
        <ele>975.59416556385</ele>
        <time>2015-02-22T10:10:57Z</time>
      </trkpt>
      <trkpt lat="42.99676" lon="-0.70002">
        <ele>979.45870152347</ele>
        <time>2015-02-22T10:11:04Z</time>
      </trkpt>
      <trkpt lat="42.99676" lon="-0.69999">
        <ele>979.45870152347</ele>
        <time>2015-02-22T10:11:09Z</time>
      </trkpt>
      <trkpt lat="42.99675" lon="-0.69999">
        <ele>979.45870152347</ele>
        <time>2015-02-22T10:11:13Z</time>
      </trkpt>
      <trkpt lat="42.9967" lon="-0.69997">
        <ele>979.45870152347</ele>
        <time>2015-02-22T10:11:17Z</time>
      </trkpt>
      <trkpt lat="42.99665" lon="-0.69994">
        <ele>983.58339473397</ele>
        <time>2015-02-22T10:11:24Z</time>
      </trkpt>
      <trkpt lat="42.99667" lon="-0.6999">
        <ele>983.58339473397</ele>
        <time>2015-02-22T10:11:28Z</time>
      </trkpt>
      <trkpt lat="42.99663" lon="-0.69986">
        <ele>983.58339473397</ele>
        <time>2015-02-22T10:11:33Z</time>
      </trkpt>
      <trkpt lat="42.99662" lon="-0.69983">
        <ele>987.61097294549</ele>
        <time>2015-02-22T10:11:38Z</time>
      </trkpt>
      <trkpt lat="42.99663" lon="-0.69982">
        <ele>987.61097294549</ele>
        <time>2015-02-22T10:11:44Z</time>
      </trkpt>
      <trkpt lat="42.99656" lon="-0.69973">
        <ele>991.44144272893</ele>
        <time>2015-02-22T10:11:54Z</time>
      </trkpt>
      <trkpt lat="42.99657" lon="-0.69971">
        <ele>991.44144272893</ele>
        <time>2015-02-22T10:11:57Z</time>
      </trkpt>
      <trkpt lat="42.99651" lon="-0.6997">
        <ele>991.44144272893</ele>
        <time>2015-02-22T10:12:04Z</time>
      </trkpt>
      <trkpt lat="42.99651" lon="-0.69969">
        <ele>991.44144272893</ele>
        <time>2015-02-22T10:12:08Z</time>
      </trkpt>
      <trkpt lat="42.99641" lon="-0.69958">
        <ele>995.70345347272</ele>
        <time>2015-02-22T10:12:28Z</time>
      </trkpt>
      <trkpt lat="42.9964" lon="-0.69956">
        <ele>995.70345347272</ele>
        <time>2015-02-22T10:12:33Z</time>
      </trkpt>
      <trkpt lat="42.99651" lon="-0.69952">
        <ele>999.71027772491</ele>
        <time>2015-02-22T10:12:38Z</time>
      </trkpt>
      <trkpt lat="42.99652" lon="-0.69949">
        <ele>999.71027772491</ele>
        <time>2015-02-22T10:12:43Z</time>
      </trkpt>
      <trkpt lat="42.99647" lon="-0.69947">
        <ele>999.71027772491</ele>
        <time>2015-02-22T10:12:48Z</time>
      </trkpt>
      <trkpt lat="42.99645" lon="-0.69946">
        <ele>1003.7056242964</ele>
        <time>2015-02-22T10:12:53Z</time>
      </trkpt>
      <trkpt lat="42.99642" lon="-0.69943">
        <ele>1003.7056242964</ele>
        <time>2015-02-22T10:12:57Z</time>
      </trkpt>
      <trkpt lat="42.99634" lon="-0.69943">
        <ele>1007.3823174096</ele>
        <time>2015-02-22T10:13:04Z</time>
      </trkpt>
      <trkpt lat="42.99632" lon="-0.69943">
        <ele>1007.3823174096</ele>
        <time>2015-02-22T10:13:08Z</time>
      </trkpt>
      <trkpt lat="42.99625" lon="-0.69937">
        <ele>1011.2206276391</ele>
        <time>2015-02-22T10:13:18Z</time>
      </trkpt>
      <trkpt lat="42.99625" lon="-0.69933">
        <ele>1011.2206276391</ele>
        <time>2015-02-22T10:13:23Z</time>
      </trkpt>
      <trkpt lat="42.99624" lon="-0.69932">
        <ele>1011.2206276391</ele>
        <time>2015-02-22T10:13:28Z</time>
      </trkpt>
      <trkpt lat="42.99622" lon="-0.69927">
        <ele>1011.2206276391</ele>
        <time>2015-02-22T10:13:34Z</time>
      </trkpt>
      <trkpt lat="42.9962" lon="-0.69923">
        <ele>1015.4058899368</ele>
        <time>2015-02-22T10:13:44Z</time>
      </trkpt>
      <trkpt lat="42.99619" lon="-0.69922">
        <ele>1015.4058899368</ele>
        <time>2015-02-22T10:13:48Z</time>
      </trkpt>
      <trkpt lat="42.9961" lon="-0.69913">
        <ele>1019.9217052989</ele>
        <time>2015-02-22T10:14:12Z</time>
      </trkpt>
      <trkpt lat="42.9961" lon="-0.69913">
        <ele>1019.9217052989</ele>
        <time>2015-02-22T10:14:17Z</time>
      </trkpt>
      <trkpt lat="42.99611" lon="-0.6991">
        <ele>1019.9217052989</ele>
        <time>2015-02-22T10:14:24Z</time>
      </trkpt>
      <trkpt lat="42.99609" lon="-0.69907">
        <ele>1019.9217052989</ele>
        <time>2015-02-22T10:14:28Z</time>
      </trkpt>
      <trkpt lat="42.99602" lon="-0.69906">
        <ele>1024.4495177327</ele>
        <time>2015-02-22T10:14:34Z</time>
      </trkpt>
      <trkpt lat="42.99598" lon="-0.69904">
        <ele>1024.4495177327</ele>
        <time>2015-02-22T10:14:37Z</time>
      </trkpt>
      <trkpt lat="42.99601" lon="-0.699">
        <ele>1024.4495177327</ele>
        <time>2015-02-22T10:14:42Z</time>
      </trkpt>
      <trkpt lat="42.99604" lon="-0.69897">
        <ele>1028.9681504368</ele>
        <time>2015-02-22T10:14:49Z</time>
      </trkpt>
      <trkpt lat="42.99603" lon="-0.69892">
        <ele>1028.9681504368</ele>
        <time>2015-02-22T10:14:53Z</time>
      </trkpt>
      <trkpt lat="42.99602" lon="-0.69889">
        <ele>1028.9681504368</ele>
        <time>2015-02-22T10:14:57Z</time>
      </trkpt>
      <trkpt lat="42.996" lon="-0.69886">
        <ele>1033.4437994699</ele>
        <time>2015-02-22T10:15:04Z</time>
      </trkpt>
      <trkpt lat="42.99598" lon="-0.69883">
        <ele>1033.4437994699</ele>
        <time>2015-02-22T10:15:08Z</time>
      </trkpt>
      <trkpt lat="42.99596" lon="-0.69883">
        <ele>1033.4437994699</ele>
        <time>2015-02-22T10:15:13Z</time>
      </trkpt>
      <trkpt lat="42.99597" lon="-0.69881">
        <ele>1033.4437994699</ele>
        <time>2015-02-22T10:15:17Z</time>
      </trkpt>
      <trkpt lat="42.99594" lon="-0.6988">
        <ele>1037.7590018496</ele>
        <time>2015-02-22T10:15:23Z</time>
      </trkpt>
      <trkpt lat="42.99593" lon="-0.69878">
        <ele>1037.7590018496</ele>
        <time>2015-02-22T10:15:29Z</time>
      </trkpt>
      <trkpt lat="42.99598" lon="-0.69875">
        <ele>1037.7590018496</ele>
        <time>2015-02-22T10:15:34Z</time>
      </trkpt>
      <trkpt lat="42.99597" lon="-0.69875">
        <ele>1037.7590018496</ele>
        <time>2015-02-22T10:15:37Z</time>
      </trkpt>
      <trkpt lat="42.99591" lon="-0.6987">
        <ele>1041.9064550949</ele>
        <time>2015-02-22T10:15:54Z</time>
      </trkpt>
      <trkpt lat="42.99592" lon="-0.6987">
        <ele>1041.9064550949</ele>
        <time>2015-02-22T10:15:57Z</time>
      </trkpt>
      <trkpt lat="42.9959" lon="-0.6987">
        <ele>1041.9064550949</ele>
        <time>2015-02-22T10:16:03Z</time>
      </trkpt>
      <trkpt lat="42.99587" lon="-0.6987">
        <ele>1041.9064550949</ele>
        <time>2015-02-22T10:16:09Z</time>
      </trkpt>
      <trkpt lat="42.99585" lon="-0.69868">
        <ele>1045.692721113</ele>
        <time>2015-02-22T10:16:13Z</time>
      </trkpt>
      <trkpt lat="42.99583" lon="-0.69868">
        <ele>1045.692721113</ele>
        <time>2015-02-22T10:16:18Z</time>
      </trkpt>
      <trkpt lat="42.99581" lon="-0.69864">
        <ele>1045.692721113</ele>
        <time>2015-02-22T10:16:23Z</time>
      </trkpt>
      <trkpt lat="42.99575" lon="-0.69861">
        <ele>1049.0550713729</ele>
        <time>2015-02-22T10:16:28Z</time>
      </trkpt>
      <trkpt lat="42.99574" lon="-0.69859">
        <ele>1049.0550713729</ele>
        <time>2015-02-22T10:16:34Z</time>
      </trkpt>
      <trkpt lat="42.99576" lon="-0.69858">
        <ele>1049.0550713729</ele>
        <time>2015-02-22T10:16:37Z</time>
      </trkpt>
      <trkpt lat="42.99576" lon="-0.69856">
        <ele>1049.0550713729</ele>
        <time>2015-02-22T10:16:43Z</time>
      </trkpt>
      <trkpt lat="42.99564" lon="-0.69849">
        <ele>1052.6717330171</ele>
        <time>2015-02-22T10:16:53Z</time>
      </trkpt>
      <trkpt lat="42.99557" lon="-0.69848">
        <ele>1052.6717330171</ele>
        <time>2015-02-22T10:16:57Z</time>
      </trkpt>
      <trkpt lat="42.99555" lon="-0.69847">
        <ele>1056.0465139542</ele>
        <time>2015-02-22T10:17:04Z</time>
      </trkpt>
      <trkpt lat="42.99551" lon="-0.6984">
        <ele>1056.0465139542</ele>
        <time>2015-02-22T10:17:17Z</time>
      </trkpt>
      <trkpt lat="42.99544" lon="-0.69837">
        <ele>1059.4699031053</ele>
        <time>2015-02-22T10:17:23Z</time>
      </trkpt>
      <trkpt lat="42.99543" lon="-0.69834">
        <ele>1059.4699031053</ele>
        <time>2015-02-22T10:17:29Z</time>
      </trkpt>
      <trkpt lat="42.99541" lon="-0.69832">
        <ele>1059.4699031053</ele>
        <time>2015-02-22T10:17:33Z</time>
      </trkpt>
      <trkpt lat="42.99544" lon="-0.69831">
        <ele>1059.4699031053</ele>
        <time>2015-02-22T10:17:38Z</time>
      </trkpt>
      <trkpt lat="42.99546" lon="-0.69831">
        <ele>1062.7066895055</ele>
        <time>2015-02-22T10:17:44Z</time>
      </trkpt>
      <trkpt lat="42.9954" lon="-0.69822">
        <ele>1062.7066895055</ele>
        <time>2015-02-22T10:17:57Z</time>
      </trkpt>
      <trkpt lat="42.99537" lon="-0.69816">
        <ele>1065.7990189279</ele>
        <time>2015-02-22T10:18:03Z</time>
      </trkpt>
      <trkpt lat="42.99536" lon="-0.69813">
        <ele>1065.7990189279</ele>
        <time>2015-02-22T10:18:08Z</time>
      </trkpt>
      <trkpt lat="42.99536" lon="-0.69806">
        <ele>1065.7990189279</ele>
        <time>2015-02-22T10:18:14Z</time>
      </trkpt>
      <trkpt lat="42.99532" lon="-0.69802">
        <ele>1068.9017795212</ele>
        <time>2015-02-22T10:18:17Z</time>
      </trkpt>
      <trkpt lat="42.99535" lon="-0.69799">
        <ele>1068.9017795212</ele>
        <time>2015-02-22T10:18:24Z</time>
      </trkpt>
      <trkpt lat="42.99537" lon="-0.69799">
        <ele>1068.9017795212</ele>
        <time>2015-02-22T10:18:28Z</time>
      </trkpt>
      <trkpt lat="42.99536" lon="-0.69797">
        <ele>1068.9017795212</ele>
        <time>2015-02-22T10:18:34Z</time>
      </trkpt>
      <trkpt lat="42.99533" lon="-0.69793">
        <ele>1071.7406628073</ele>
        <time>2015-02-22T10:18:43Z</time>
      </trkpt>
      <trkpt lat="42.99534" lon="-0.69791">
        <ele>1071.7406628073</ele>
        <time>2015-02-22T10:18:48Z</time>
      </trkpt>
      <trkpt lat="42.99523" lon="-0.69786">
        <ele>1074.2785387361</ele>
        <time>2015-02-22T10:18:58Z</time>
      </trkpt>
      <trkpt lat="42.99521" lon="-0.69785">
        <ele>1074.2785387361</ele>
        <time>2015-02-22T10:19:03Z</time>
      </trkpt>
      <trkpt lat="42.9952" lon="-0.69784">
        <ele>1074.2785387361</ele>
        <time>2015-02-22T10:19:09Z</time>
      </trkpt>
      <trkpt lat="42.99513" lon="-0.69787">
        <ele>1076.4387234055</ele>
        <time>2015-02-22T10:19:13Z</time>
      </trkpt>
      <trkpt lat="42.99512" lon="-0.69789">
        <ele>1076.4387234055</ele>
        <time>2015-02-22T10:19:18Z</time>
      </trkpt>
      <trkpt lat="42.99506" lon="-0.69792">
        <ele>1076.4387234055</ele>
        <time>2015-02-22T10:19:23Z</time>
      </trkpt>
      <trkpt lat="42.99505" lon="-0.69795">
        <ele>1078.1513180602</ele>
        <time>2015-02-22T10:19:29Z</time>
      </trkpt>
      <trkpt lat="42.99505" lon="-0.69797">
        <ele>1078.1513180602</ele>
        <time>2015-02-22T10:19:33Z</time>
      </trkpt>
      <trkpt lat="42.99505" lon="-0.69802">
        <ele>1078.1513180602</ele>
        <time>2015-02-22T10:19:38Z</time>
      </trkpt>
      <trkpt lat="42.99505" lon="-0.69806">
        <ele>1078.1513180602</ele>
        <time>2015-02-22T10:19:43Z</time>
      </trkpt>
      <trkpt lat="42.99503" lon="-0.69813">
        <ele>1079.5978787294</ele>
        <time>2015-02-22T10:19:49Z</time>
      </trkpt>
      <trkpt lat="42.99503" lon="-0.69813">
        <ele>1079.5978787294</ele>
        <time>2015-02-22T10:19:53Z</time>
      </trkpt>
      <trkpt lat="42.99501" lon="-0.69821">
        <ele>1079.5978787294</ele>
        <time>2015-02-22T10:19:57Z</time>
      </trkpt>
      <trkpt lat="42.99497" lon="-0.69824">
        <ele>1080.7024382441</ele>
        <time>2015-02-22T10:20:03Z</time>
      </trkpt>
      <trkpt lat="42.99494" lon="-0.69827">
        <ele>1080.7024382441</ele>
        <time>2015-02-22T10:20:08Z</time>
      </trkpt>
      <trkpt lat="42.99495" lon="-0.69831">
        <ele>1080.7024382441</ele>
        <time>2015-02-22T10:20:14Z</time>
      </trkpt>
      <trkpt lat="42.99496" lon="-0.69833">
        <ele>1080.7024382441</ele>
        <time>2015-02-22T10:20:17Z</time>
      </trkpt>
      <trkpt lat="42.99494" lon="-0.69836">
        <ele>1081.5108941525</ele>
        <time>2015-02-22T10:20:23Z</time>
      </trkpt>
      <trkpt lat="42.99493" lon="-0.69837">
        <ele>1081.5108941525</ele>
        <time>2015-02-22T10:20:29Z</time>
      </trkpt>
      <trkpt lat="42.99494" lon="-0.69841">
        <ele>1081.5108941525</ele>
        <time>2015-02-22T10:20:33Z</time>
      </trkpt>
      <trkpt lat="42.99497" lon="-0.69844">
        <ele>1081.5108941525</ele>
        <time>2015-02-22T10:20:37Z</time>
      </trkpt>
      <trkpt lat="42.99495" lon="-0.69847">
        <ele>1082.0666170834</ele>
        <time>2015-02-22T10:20:44Z</time>
      </trkpt>
      <trkpt lat="42.99495" lon="-0.69847">
        <ele>1082.0666170834</ele>
        <time>2015-02-22T10:20:47Z</time>
      </trkpt>
      <trkpt lat="42.995" lon="-0.69849">
        <ele>1082.0666170834</ele>
        <time>2015-02-22T10:21:03Z</time>
      </trkpt>
      <trkpt lat="42.99497" lon="-0.69853">
        <ele>1082.4969589838</ele>
        <time>2015-02-22T10:21:09Z</time>
      </trkpt>
      <trkpt lat="42.99498" lon="-0.69853">
        <ele>1082.4969589838</ele>
        <time>2015-02-22T10:21:13Z</time>
      </trkpt>
      <trkpt lat="42.99496" lon="-0.69859">
        <ele>1082.4969589838</ele>
        <time>2015-02-22T10:21:18Z</time>
      </trkpt>
      <trkpt lat="42.99495" lon="-0.69863">
        <ele>1082.4969589838</ele>
        <time>2015-02-22T10:21:24Z</time>
      </trkpt>
      <trkpt lat="42.99504" lon="-0.69864">
        <ele>1083.0067043498</ele>
        <time>2015-02-22T10:21:33Z</time>
      </trkpt>
      <trkpt lat="42.99504" lon="-0.69869">
        <ele>1083.0067043498</ele>
        <time>2015-02-22T10:21:38Z</time>
      </trkpt>
      <trkpt lat="42.99501" lon="-0.69871">
        <ele>1083.0067043498</ele>
        <time>2015-02-22T10:21:44Z</time>
      </trkpt>
      <trkpt lat="42.99497" lon="-0.69872">
        <ele>1083.4826858237</ele>
        <time>2015-02-22T10:21:49Z</time>
      </trkpt>
      <trkpt lat="42.99497" lon="-0.69872">
        <ele>1083.4826858237</ele>
        <time>2015-02-22T10:21:52Z</time>
      </trkpt>
      <trkpt lat="42.99495" lon="-0.69872">
        <ele>1083.4826858237</ele>
        <time>2015-02-22T10:22:04Z</time>
      </trkpt>
      <trkpt lat="42.99493" lon="-0.69869">
        <ele>1083.4826858237</ele>
        <time>2015-02-22T10:22:10Z</time>
      </trkpt>
      <trkpt lat="42.99498" lon="-0.69873">
        <ele>1083.8777157176</ele>
        <time>2015-02-22T10:22:13Z</time>
      </trkpt>
      <trkpt lat="42.99495" lon="-0.69878">
        <ele>1083.8777157176</ele>
        <time>2015-02-22T10:22:18Z</time>
      </trkpt>
      <trkpt lat="42.99496" lon="-0.69881">
        <ele>1083.8777157176</ele>
        <time>2015-02-22T10:22:23Z</time>
      </trkpt>
      <trkpt lat="42.99495" lon="-0.69885">
        <ele>1084.3643751686</ele>
        <time>2015-02-22T10:22:29Z</time>
      </trkpt>
      <trkpt lat="42.99497" lon="-0.69886">
        <ele>1084.3643751686</ele>
        <time>2015-02-22T10:22:33Z</time>
      </trkpt>
      <trkpt lat="42.99493" lon="-0.69888">
        <ele>1084.3643751686</ele>
        <time>2015-02-22T10:22:37Z</time>
      </trkpt>
      <trkpt lat="42.995" lon="-0.69888">
        <ele>1084.8860354829</ele>
        <time>2015-02-22T10:22:44Z</time>
      </trkpt>
      <trkpt lat="42.995" lon="-0.69888">
        <ele>1084.8860354829</ele>
        <time>2015-02-22T10:22:48Z</time>
      </trkpt>
      <trkpt lat="42.99496" lon="-0.6989">
        <ele>1084.8860354829</ele>
        <time>2015-02-22T10:22:54Z</time>
      </trkpt>
      <trkpt lat="42.99496" lon="-0.69891">
        <ele>1084.8860354829</ele>
        <time>2015-02-22T10:22:57Z</time>
      </trkpt>
      <trkpt lat="42.99495" lon="-0.69895">
        <ele>1085.3035392142</ele>
        <time>2015-02-22T10:23:03Z</time>
      </trkpt>
      <trkpt lat="42.99491" lon="-0.699">
        <ele>1085.3035392142</ele>
        <time>2015-02-22T10:23:09Z</time>
      </trkpt>
      <trkpt lat="42.99491" lon="-0.69901">
        <ele>1085.3035392142</ele>
        <time>2015-02-22T10:23:13Z</time>
      </trkpt>
      <trkpt lat="42.99488" lon="-0.69906">
        <ele>1085.6466280167</ele>
        <time>2015-02-22T10:23:17Z</time>
      </trkpt>
      <trkpt lat="42.99487" lon="-0.6991">
        <ele>1085.6466280167</ele>
        <time>2015-02-22T10:23:23Z</time>
      </trkpt>
      <trkpt lat="42.99483" lon="-0.69914">
        <ele>1085.6466280167</ele>
        <time>2015-02-22T10:23:28Z</time>
      </trkpt>
      <trkpt lat="42.99488" lon="-0.69915">
        <ele>1086.0005615238</ele>
        <time>2015-02-22T10:23:34Z</time>
      </trkpt>
      <trkpt lat="42.99488" lon="-0.69919">
        <ele>1086.0005615238</ele>
        <time>2015-02-22T10:23:37Z</time>
      </trkpt>
      <trkpt lat="42.99487" lon="-0.69923">
        <ele>1086.0005615238</ele>
        <time>2015-02-22T10:23:42Z</time>
      </trkpt>
      <trkpt lat="42.99489" lon="-0.69926">
        <ele>1086.0005615238</ele>
        <time>2015-02-22T10:23:48Z</time>
      </trkpt>
      <trkpt lat="42.99486" lon="-0.69929">
        <ele>1086.458555162</ele>
        <time>2015-02-22T10:23:53Z</time>
      </trkpt>
      <trkpt lat="42.99485" lon="-0.69936">
        <ele>1086.458555162</ele>
        <time>2015-02-22T10:23:58Z</time>
      </trkpt>
      <trkpt lat="42.99484" lon="-0.69937">
        <ele>1086.458555162</ele>
        <time>2015-02-22T10:24:03Z</time>
      </trkpt>
      <trkpt lat="42.9948" lon="-0.69938">
        <ele>1086.9768130511</ele>
        <time>2015-02-22T10:24:08Z</time>
      </trkpt>
      <trkpt lat="42.9948" lon="-0.69939">
        <ele>1086.9768130511</ele>
        <time>2015-02-22T10:24:13Z</time>
      </trkpt>
      <trkpt lat="42.99481" lon="-0.69943">
        <ele>1086.9768130511</ele>
        <time>2015-02-22T10:24:17Z</time>
      </trkpt>
      <trkpt lat="42.99482" lon="-0.69947">
        <ele>1086.9768130511</ele>
        <time>2015-02-22T10:24:23Z</time>
      </trkpt>
      <trkpt lat="42.99483" lon="-0.69949">
        <ele>1086.9768130511</ele>
        <time>2015-02-22T10:24:29Z</time>
      </trkpt>
      <trkpt lat="42.99485" lon="-0.69952">
        <ele>1087.5864629198</ele>
        <time>2015-02-22T10:24:33Z</time>
      </trkpt>
      <trkpt lat="42.99489" lon="-0.69955">
        <ele>1087.5864629198</ele>
        <time>2015-02-22T10:24:38Z</time>
      </trkpt>
      <trkpt lat="42.9949" lon="-0.69957">
        <ele>1087.5864629198</ele>
        <time>2015-02-22T10:24:44Z</time>
      </trkpt>
      <trkpt lat="42.99491" lon="-0.69959">
        <ele>1087.5864629198</ele>
        <time>2015-02-22T10:24:48Z</time>
      </trkpt>
      <trkpt lat="42.9949" lon="-0.69963">
        <ele>1088.315902864</ele>
        <time>2015-02-22T10:24:53Z</time>
      </trkpt>
      <trkpt lat="42.9949" lon="-0.69968">
        <ele>1088.315902864</ele>
        <time>2015-02-22T10:24:57Z</time>
      </trkpt>
      <trkpt lat="42.99485" lon="-0.6997">
        <ele>1088.315902864</ele>
        <time>2015-02-22T10:25:04Z</time>
      </trkpt>
      <trkpt lat="42.99485" lon="-0.69972">
        <ele>1089.03239507</ele>
        <time>2015-02-22T10:25:08Z</time>
      </trkpt>
      <trkpt lat="42.9949" lon="-0.69977">
        <ele>1089.03239507</ele>
        <time>2015-02-22T10:25:13Z</time>
      </trkpt>
      <trkpt lat="42.99492" lon="-0.69977">
        <ele>1089.03239507</ele>
        <time>2015-02-22T10:25:18Z</time>
      </trkpt>
      <trkpt lat="42.99493" lon="-0.6998">
        <ele>1089.6416160637</ele>
        <time>2015-02-22T10:25:24Z</time>
      </trkpt>
      <trkpt lat="42.9949" lon="-0.6998">
        <ele>1089.6416160637</ele>
        <time>2015-02-22T10:25:28Z</time>
      </trkpt>
      <trkpt lat="42.9949" lon="-0.69982">
        <ele>1089.6416160637</ele>
        <time>2015-02-22T10:25:33Z</time>
      </trkpt>
      <trkpt lat="42.99492" lon="-0.69982">
        <ele>1089.6416160637</ele>
        <time>2015-02-22T10:25:38Z</time>
      </trkpt>
      <trkpt lat="42.99495" lon="-0.69987">
        <ele>1090.315674868</ele>
        <time>2015-02-22T10:25:44Z</time>
      </trkpt>
      <trkpt lat="42.99494" lon="-0.69991">
        <ele>1090.315674868</ele>
        <time>2015-02-22T10:25:48Z</time>
      </trkpt>
      <trkpt lat="42.99494" lon="-0.69996">
        <ele>1090.315674868</ele>
        <time>2015-02-22T10:25:54Z</time>
      </trkpt>
      <trkpt lat="42.99493" lon="-0.69999">
        <ele>1090.315674868</ele>
        <time>2015-02-22T10:25:57Z</time>
      </trkpt>
      <trkpt lat="42.99493" lon="-0.70002">
        <ele>1091.1848345821</ele>
        <time>2015-02-22T10:26:02Z</time>
      </trkpt>
      <trkpt lat="42.99493" lon="-0.7">
        <ele>1091.1848345821</ele>
        <time>2015-02-22T10:26:09Z</time>
      </trkpt>
      <trkpt lat="42.99491" lon="-0.69997">
        <ele>1091.1848345821</ele>
        <time>2015-02-22T10:26:13Z</time>
      </trkpt>
      <trkpt lat="42.99489" lon="-0.69993">
        <ele>1091.1848345821</ele>
        <time>2015-02-22T10:26:18Z</time>
      </trkpt>
      <trkpt lat="42.99485" lon="-0.6999">
        <ele>1092.6428549757</ele>
        <time>2015-02-22T10:26:23Z</time>
      </trkpt>
      <trkpt lat="42.99479" lon="-0.6999">
        <ele>1092.6428549757</ele>
        <time>2015-02-22T10:26:28Z</time>
      </trkpt>
      <trkpt lat="42.99476" lon="-0.69987">
        <ele>1094.2168781028</ele>
        <time>2015-02-22T10:26:34Z</time>
      </trkpt>
      <trkpt lat="42.99479" lon="-0.69985">
        <ele>1094.2168781028</ele>
        <time>2015-02-22T10:26:38Z</time>
      </trkpt>
      <trkpt lat="42.99474" lon="-0.69979">
        <ele>1095.8573658418</ele>
        <time>2015-02-22T10:26:43Z</time>
      </trkpt>
      <trkpt lat="42.9947" lon="-0.69974">
        <ele>1095.8573658418</ele>
        <time>2015-02-22T10:26:49Z</time>
      </trkpt>
      <trkpt lat="42.99468" lon="-0.6997">
        <ele>1095.8573658418</ele>
        <time>2015-02-22T10:26:53Z</time>
      </trkpt>
      <trkpt lat="42.99461" lon="-0.69961">
        <ele>1097.4892264932</ele>
        <time>2015-02-22T10:26:58Z</time>
      </trkpt>
      <trkpt lat="42.99464" lon="-0.69952">
        <ele>1097.4892264932</ele>
        <time>2015-02-22T10:27:03Z</time>
      </trkpt>
      <trkpt lat="42.99465" lon="-0.69949">
        <ele>1099.0427327134</ele>
        <time>2015-02-22T10:27:09Z</time>
      </trkpt>
      <trkpt lat="42.99462" lon="-0.69948">
        <ele>1099.0427327134</ele>
        <time>2015-02-22T10:27:13Z</time>
      </trkpt>
      <trkpt lat="42.99458" lon="-0.69948">
        <ele>1099.0427327134</ele>
        <time>2015-02-22T10:27:18Z</time>
      </trkpt>
      <trkpt lat="42.99457" lon="-0.69948">
        <ele>1099.0427327134</ele>
        <time>2015-02-22T10:27:23Z</time>
      </trkpt>
      <trkpt lat="42.99453" lon="-0.69947">
        <ele>1100.5542087947</ele>
        <time>2015-02-22T10:27:28Z</time>
      </trkpt>
      <trkpt lat="42.99445" lon="-0.69941">
        <ele>1101.9419789886</ele>
        <time>2015-02-22T10:27:37Z</time>
      </trkpt>
      <trkpt lat="42.99442" lon="-0.69941">
        <ele>1101.9419789886</ele>
        <time>2015-02-22T10:27:43Z</time>
      </trkpt>
      <trkpt lat="42.99442" lon="-0.6994">
        <ele>1101.9419789886</ele>
        <time>2015-02-22T10:27:48Z</time>
      </trkpt>
      <trkpt lat="42.99439" lon="-0.69948">
        <ele>1103.0729158263</ele>
        <time>2015-02-22T10:27:54Z</time>
      </trkpt>
      <trkpt lat="42.99439" lon="-0.6995">
        <ele>1103.0729158263</ele>
        <time>2015-02-22T10:27:57Z</time>
      </trkpt>
      <trkpt lat="42.99435" lon="-0.69957">
        <ele>1103.0729158263</ele>
        <time>2015-02-22T10:28:03Z</time>
      </trkpt>
      <trkpt lat="42.99433" lon="-0.69963">
        <ele>1104.1556989554</ele>
        <time>2015-02-22T10:28:09Z</time>
      </trkpt>
      <trkpt lat="42.99436" lon="-0.69965">
        <ele>1104.1556989554</ele>
        <time>2015-02-22T10:28:13Z</time>
      </trkpt>
      <trkpt lat="42.99436" lon="-0.69968">
        <ele>1104.1556989554</ele>
        <time>2015-02-22T10:28:17Z</time>
      </trkpt>
      <trkpt lat="42.99437" lon="-0.69972">
        <ele>1104.1556989554</ele>
        <time>2015-02-22T10:28:23Z</time>
      </trkpt>
      <trkpt lat="42.99438" lon="-0.69974">
        <ele>1105.1819141034</ele>
        <time>2015-02-22T10:28:27Z</time>
      </trkpt>
      <trkpt lat="42.99435" lon="-0.69976">
        <ele>1105.1819141034</ele>
        <time>2015-02-22T10:28:33Z</time>
      </trkpt>
      <trkpt lat="42.99432" lon="-0.69977">
        <ele>1105.1819141034</ele>
        <time>2015-02-22T10:28:37Z</time>
      </trkpt>
      <trkpt lat="42.99433" lon="-0.69977">
        <ele>1105.1819141034</ele>
        <time>2015-02-22T10:28:43Z</time>
      </trkpt>
      <trkpt lat="42.99433" lon="-0.69977">
        <ele>1105.1819141034</ele>
        <time>2015-02-22T10:28:48Z</time>
      </trkpt>
      <trkpt lat="42.99437" lon="-0.69979">
        <ele>1106.4175953534</ele>
        <time>2015-02-22T10:28:53Z</time>
      </trkpt>
      <trkpt lat="42.99437" lon="-0.69979">
        <ele>1106.4175953534</ele>
        <time>2015-02-22T10:28:58Z</time>
      </trkpt>
      <trkpt lat="42.99433" lon="-0.6998">
        <ele>1106.4175953534</ele>
        <time>2015-02-22T10:29:08Z</time>
      </trkpt>
      <trkpt lat="42.99428" lon="-0.69982">
        <ele>1107.748233106</ele>
        <time>2015-02-22T10:29:14Z</time>
      </trkpt>
      <trkpt lat="42.99424" lon="-0.69984">
        <ele>1107.748233106</ele>
        <time>2015-02-22T10:29:18Z</time>
      </trkpt>
      <trkpt lat="42.99424" lon="-0.69986">
        <ele>1107.748233106</ele>
        <time>2015-02-22T10:29:23Z</time>
      </trkpt>
      <trkpt lat="42.99426" lon="-0.6999">
        <ele>1107.748233106</ele>
        <time>2015-02-22T10:29:29Z</time>
      </trkpt>
      <trkpt lat="42.99435" lon="-0.69991">
        <ele>1109.0817435498</ele>
        <time>2015-02-22T10:29:43Z</time>
      </trkpt>
      <trkpt lat="42.99438" lon="-0.69993">
        <ele>1109.0817435498</ele>
        <time>2015-02-22T10:29:49Z</time>
      </trkpt>
      <trkpt lat="42.99438" lon="-0.69995">
        <ele>1109.0817435498</ele>
        <time>2015-02-22T10:29:53Z</time>
      </trkpt>
      <trkpt lat="42.99437" lon="-0.7">
        <ele>1109.0817435498</ele>
        <time>2015-02-22T10:30:03Z</time>
      </trkpt>
      <trkpt lat="42.99437" lon="-0.70004">
        <ele>1110.5920741541</ele>
        <time>2015-02-22T10:30:09Z</time>
      </trkpt>
      <trkpt lat="42.99437" lon="-0.70004">
        <ele>1110.5920741541</ele>
        <time>2015-02-22T10:30:13Z</time>
      </trkpt>
      <trkpt lat="42.99433" lon="-0.70008">
        <ele>1110.5920741541</ele>
        <time>2015-02-22T10:30:18Z</time>
      </trkpt>
      <trkpt lat="42.99434" lon="-0.70009">
        <ele>1110.5920741541</ele>
        <time>2015-02-22T10:30:23Z</time>
      </trkpt>
      <trkpt lat="42.99437" lon="-0.70009">
        <ele>1110.5920741541</ele>
        <time>2015-02-22T10:30:28Z</time>
      </trkpt>
      <trkpt lat="42.99442" lon="-0.70011">
        <ele>1112.3821353583</ele>
        <time>2015-02-22T10:30:34Z</time>
      </trkpt>
      <trkpt lat="42.99438" lon="-0.70013">
        <ele>1112.3821353583</ele>
        <time>2015-02-22T10:30:37Z</time>
      </trkpt>
      <trkpt lat="42.99435" lon="-0.70015">
        <ele>1112.3821353583</ele>
        <time>2015-02-22T10:30:43Z</time>
      </trkpt>
      <trkpt lat="42.9943" lon="-0.70015">
        <ele>1114.3734490823</ele>
        <time>2015-02-22T10:30:53Z</time>
      </trkpt>
      <trkpt lat="42.99432" lon="-0.70015">
        <ele>1114.3734490823</ele>
        <time>2015-02-22T10:30:57Z</time>
      </trkpt>
      <trkpt lat="42.99432" lon="-0.70015">
        <ele>1114.3734490823</ele>
        <time>2015-02-22T10:31:03Z</time>
      </trkpt>
      <trkpt lat="42.99429" lon="-0.70016">
        <ele>1114.3734490823</ele>
        <time>2015-02-22T10:31:09Z</time>
      </trkpt>
      <trkpt lat="42.99431" lon="-0.70017">
        <ele>1114.3734490823</ele>
        <time>2015-02-22T10:31:14Z</time>
      </trkpt>
      <trkpt lat="42.99433" lon="-0.70017">
        <ele>1116.6511584975</ele>
        <time>2015-02-22T10:31:18Z</time>
      </trkpt>
      <trkpt lat="42.9943" lon="-0.7002">
        <ele>1116.6511584975</ele>
        <time>2015-02-22T10:31:23Z</time>
      </trkpt>
      <trkpt lat="42.99435" lon="-0.70019">
        <ele>1116.6511584975</ele>
        <time>2015-02-22T10:31:29Z</time>
      </trkpt>
      <trkpt lat="42.99436" lon="-0.70022">
        <ele>1118.7888684822</ele>
        <time>2015-02-22T10:31:33Z</time>
      </trkpt>
      <trkpt lat="42.99437" lon="-0.70024">
        <ele>1118.7888684822</ele>
        <time>2015-02-22T10:31:38Z</time>
      </trkpt>
      <trkpt lat="42.99437" lon="-0.70027">
        <ele>1118.7888684822</ele>
        <time>2015-02-22T10:31:43Z</time>
      </trkpt>
      <trkpt lat="42.99443" lon="-0.70031">
        <ele>1120.8529746517</ele>
        <time>2015-02-22T10:31:49Z</time>
      </trkpt>
      <trkpt lat="42.99444" lon="-0.70033">
        <ele>1120.8529746517</ele>
        <time>2015-02-22T10:31:54Z</time>
      </trkpt>
      <trkpt lat="42.99446" lon="-0.70037">
        <ele>1120.8529746517</ele>
        <time>2015-02-22T10:31:57Z</time>
      </trkpt>
      <trkpt lat="42.99448" lon="-0.70039">
        <ele>1120.8529746517</ele>
        <time>2015-02-22T10:32:03Z</time>
      </trkpt>
      <trkpt lat="42.99447" lon="-0.70043">
        <ele>1122.9771875652</ele>
        <time>2015-02-22T10:32:08Z</time>
      </trkpt>
      <trkpt lat="42.99448" lon="-0.70045">
        <ele>1122.9771875652</ele>
        <time>2015-02-22T10:32:13Z</time>
      </trkpt>
      <trkpt lat="42.9945" lon="-0.70046">
        <ele>1122.9771875652</ele>
        <time>2015-02-22T10:32:18Z</time>
      </trkpt>
      <trkpt lat="42.99453" lon="-0.70046">
        <ele>1122.9771875652</ele>
        <time>2015-02-22T10:32:23Z</time>
      </trkpt>
      <trkpt lat="42.99453" lon="-0.70047">
        <ele>1122.9771875652</ele>
        <time>2015-02-22T10:32:28Z</time>
      </trkpt>
      <trkpt lat="42.99457" lon="-0.70048">
        <ele>1125.1266450548</ele>
        <time>2015-02-22T10:32:34Z</time>
      </trkpt>
      <trkpt lat="42.9946" lon="-0.70053">
        <ele>1125.1266450548</ele>
        <time>2015-02-22T10:32:38Z</time>
      </trkpt>
      <trkpt lat="42.99464" lon="-0.70058">
        <ele>1127.2545138385</ele>
        <time>2015-02-22T10:32:43Z</time>
      </trkpt>
      <trkpt lat="42.99464" lon="-0.70062">
        <ele>1127.2545138385</ele>
        <time>2015-02-22T10:32:48Z</time>
      </trkpt>
      <trkpt lat="42.99464" lon="-0.70065">
        <ele>1127.2545138385</ele>
        <time>2015-02-22T10:32:53Z</time>
      </trkpt>
      <trkpt lat="42.99463" lon="-0.70068">
        <ele>1127.2545138385</ele>
        <time>2015-02-22T10:32:58Z</time>
      </trkpt>
      <trkpt lat="42.99461" lon="-0.70073">
        <ele>1129.3462424513</ele>
        <time>2015-02-22T10:33:02Z</time>
      </trkpt>
      <trkpt lat="42.99458" lon="-0.70078">
        <ele>1129.3462424513</ele>
        <time>2015-02-22T10:33:08Z</time>
      </trkpt>
      <trkpt lat="42.99458" lon="-0.70079">
        <ele>1129.3462424513</ele>
        <time>2015-02-22T10:33:13Z</time>
      </trkpt>
      <trkpt lat="42.99456" lon="-0.70077">
        <ele>1129.3462424513</ele>
        <time>2015-02-22T10:33:18Z</time>
      </trkpt>
      <trkpt lat="42.99454" lon="-0.70074">
        <ele>1131.7486951886</ele>
        <time>2015-02-22T10:33:23Z</time>
      </trkpt>
      <trkpt lat="42.99452" lon="-0.70072">
        <ele>1131.7486951886</ele>
        <time>2015-02-22T10:33:28Z</time>
      </trkpt>
      <trkpt lat="42.99448" lon="-0.70069">
        <ele>1131.7486951886</ele>
        <time>2015-02-22T10:33:34Z</time>
      </trkpt>
      <trkpt lat="42.99447" lon="-0.7007">
        <ele>1131.7486951886</ele>
        <time>2015-02-22T10:33:38Z</time>
      </trkpt>
      <trkpt lat="42.99444" lon="-0.70073">
        <ele>1134.1194489221</ele>
        <time>2015-02-22T10:33:49Z</time>
      </trkpt>
      <trkpt lat="42.99443" lon="-0.70075">
        <ele>1134.1194489221</ele>
        <time>2015-02-22T10:33:53Z</time>
      </trkpt>
      <trkpt lat="42.99441" lon="-0.70078">
        <ele>1134.1194489221</ele>
        <time>2015-02-22T10:33:58Z</time>
      </trkpt>
      <trkpt lat="42.9944" lon="-0.70082">
        <ele>1134.1194489221</ele>
        <time>2015-02-22T10:34:03Z</time>
      </trkpt>
      <trkpt lat="42.99439" lon="-0.70085">
        <ele>1136.4007081183</ele>
        <time>2015-02-22T10:34:09Z</time>
      </trkpt>
      <trkpt lat="42.99439" lon="-0.70086">
        <ele>1136.4007081183</ele>
        <time>2015-02-22T10:34:14Z</time>
      </trkpt>
      <trkpt lat="42.99432" lon="-0.70088">
        <ele>1136.4007081183</ele>
        <time>2015-02-22T10:34:33Z</time>
      </trkpt>
      <trkpt lat="42.99428" lon="-0.70084">
        <ele>1138.8129778448</ele>
        <time>2015-02-22T10:34:38Z</time>
      </trkpt>
      <trkpt lat="42.99426" lon="-0.70082">
        <ele>1138.8129778448</ele>
        <time>2015-02-22T10:34:43Z</time>
      </trkpt>
      <trkpt lat="42.99425" lon="-0.70082">
        <ele>1138.8129778448</ele>
        <time>2015-02-22T10:34:48Z</time>
      </trkpt>
      <trkpt lat="42.99417" lon="-0.70085">
        <ele>1141.3584428415</ele>
        <time>2015-02-22T10:35:09Z</time>
      </trkpt>
      <trkpt lat="42.99416" lon="-0.70086">
        <ele>1141.3584428415</ele>
        <time>2015-02-22T10:35:13Z</time>
      </trkpt>
      <trkpt lat="42.99414" lon="-0.70088">
        <ele>1141.3584428415</ele>
        <time>2015-02-22T10:35:18Z</time>
      </trkpt>
      <trkpt lat="42.99412" lon="-0.70089">
        <ele>1141.3584428415</ele>
        <time>2015-02-22T10:35:23Z</time>
      </trkpt>
      <trkpt lat="42.99409" lon="-0.7009">
        <ele>1141.3584428415</ele>
        <time>2015-02-22T10:35:28Z</time>
      </trkpt>
      <trkpt lat="42.99407" lon="-0.70092">
        <ele>1143.8946514169</ele>
        <time>2015-02-22T10:35:34Z</time>
      </trkpt>
      <trkpt lat="42.99403" lon="-0.70091">
        <ele>1143.8946514169</ele>
        <time>2015-02-22T10:35:43Z</time>
      </trkpt>
      <trkpt lat="42.99401" lon="-0.70089">
        <ele>1143.8946514169</ele>
        <time>2015-02-22T10:35:49Z</time>
      </trkpt>
      <trkpt lat="42.994" lon="-0.70088">
        <ele>1143.8946514169</ele>
        <time>2015-02-22T10:35:53Z</time>
      </trkpt>
      <trkpt lat="42.99398" lon="-0.70086">
        <ele>1146.5490590959</ele>
        <time>2015-02-22T10:35:58Z</time>
      </trkpt>
      <trkpt lat="42.99397" lon="-0.70084">
        <ele>1146.5490590959</ele>
        <time>2015-02-22T10:36:03Z</time>
      </trkpt>
      <trkpt lat="42.99394" lon="-0.70084">
        <ele>1146.5490590959</ele>
        <time>2015-02-22T10:36:08Z</time>
      </trkpt>
      <trkpt lat="42.99391" lon="-0.70084">
        <ele>1146.5490590959</ele>
        <time>2015-02-22T10:36:14Z</time>
      </trkpt>
      <trkpt lat="42.99389" lon="-0.70086">
        <ele>1149.2232848168</ele>
        <time>2015-02-22T10:36:18Z</time>
      </trkpt>
      <trkpt lat="42.99388" lon="-0.70086">
        <ele>1149.2232848168</ele>
        <time>2015-02-22T10:36:23Z</time>
      </trkpt>
      <trkpt lat="42.99383" lon="-0.70084">
        <ele>1149.2232848168</ele>
        <time>2015-02-22T10:36:38Z</time>
      </trkpt>
      <trkpt lat="42.99383" lon="-0.70084">
        <ele>1149.2232848168</ele>
        <time>2015-02-22T10:36:43Z</time>
      </trkpt>
      <trkpt lat="42.99377" lon="-0.70084">
        <ele>1152.0279069367</ele>
        <time>2015-02-22T10:36:54Z</time>
      </trkpt>
      <trkpt lat="42.99375" lon="-0.70084">
        <ele>1152.0279069367</ele>
        <time>2015-02-22T10:36:57Z</time>
      </trkpt>
      <trkpt lat="42.99373" lon="-0.70086">
        <ele>1152.0279069367</ele>
        <time>2015-02-22T10:37:03Z</time>
      </trkpt>
      <trkpt lat="42.9937" lon="-0.70087">
        <ele>1152.0279069367</ele>
        <time>2015-02-22T10:37:08Z</time>
      </trkpt>
      <trkpt lat="42.99368" lon="-0.70087">
        <ele>1154.7191879159</ele>
        <time>2015-02-22T10:37:14Z</time>
      </trkpt>
      <trkpt lat="42.99365" lon="-0.70087">
        <ele>1154.7191879159</ele>
        <time>2015-02-22T10:37:18Z</time>
      </trkpt>
      <trkpt lat="42.99362" lon="-0.70087">
        <ele>1154.7191879159</ele>
        <time>2015-02-22T10:37:22Z</time>
      </trkpt>
      <trkpt lat="42.99359" lon="-0.70089">
        <ele>1154.7191879159</ele>
        <time>2015-02-22T10:37:29Z</time>
      </trkpt>
      <trkpt lat="42.99358" lon="-0.7009">
        <ele>1157.4607599427</ele>
        <time>2015-02-22T10:37:33Z</time>
      </trkpt>
      <trkpt lat="42.99356" lon="-0.70091">
        <ele>1157.4607599427</ele>
        <time>2015-02-22T10:37:38Z</time>
      </trkpt>
      <trkpt lat="42.99354" lon="-0.70094">
        <ele>1157.4607599427</ele>
        <time>2015-02-22T10:37:42Z</time>
      </trkpt>
      <trkpt lat="42.99352" lon="-0.70094">
        <ele>1157.4607599427</ele>
        <time>2015-02-22T10:37:48Z</time>
      </trkpt>
      <trkpt lat="42.99349" lon="-0.70095">
        <ele>1160.2023914938</ele>
        <time>2015-02-22T10:37:54Z</time>
      </trkpt>
      <trkpt lat="42.99347" lon="-0.70095">
        <ele>1160.2023914938</ele>
        <time>2015-02-22T10:37:58Z</time>
      </trkpt>
      <trkpt lat="42.99346" lon="-0.70097">
        <ele>1160.2023914938</ele>
        <time>2015-02-22T10:38:04Z</time>
      </trkpt>
      <trkpt lat="42.99344" lon="-0.70097">
        <ele>1160.2023914938</ele>
        <time>2015-02-22T10:38:08Z</time>
      </trkpt>
      <trkpt lat="42.99343" lon="-0.70098">
        <ele>1160.2023914938</ele>
        <time>2015-02-22T10:38:15Z</time>
      </trkpt>
      <trkpt lat="42.9934" lon="-0.70098">
        <ele>1163.0128891545</ele>
        <time>2015-02-22T10:38:18Z</time>
      </trkpt>
      <trkpt lat="42.99338" lon="-0.70098">
        <ele>1163.0128891545</ele>
        <time>2015-02-22T10:38:23Z</time>
      </trkpt>
      <trkpt lat="42.99335" lon="-0.70097">
        <ele>1163.0128891545</ele>
        <time>2015-02-22T10:38:28Z</time>
      </trkpt>
      <trkpt lat="42.99332" lon="-0.70098">
        <ele>1163.0128891545</ele>
        <time>2015-02-22T10:38:33Z</time>
      </trkpt>
      <trkpt lat="42.99331" lon="-0.70099">
        <ele>1165.7829431588</ele>
        <time>2015-02-22T10:38:38Z</time>
      </trkpt>
      <trkpt lat="42.99326" lon="-0.70101">
        <ele>1165.7829431588</ele>
        <time>2015-02-22T10:38:48Z</time>
      </trkpt>
      <trkpt lat="42.99323" lon="-0.70099">
        <ele>1165.7829431588</ele>
        <time>2015-02-22T10:38:54Z</time>
      </trkpt>
      <trkpt lat="42.99321" lon="-0.70099">
        <ele>1168.4835121365</ele>
        <time>2015-02-22T10:38:58Z</time>
      </trkpt>
      <trkpt lat="42.99319" lon="-0.70098">
        <ele>1168.4835121365</ele>
        <time>2015-02-22T10:39:02Z</time>
      </trkpt>
      <trkpt lat="42.99316" lon="-0.70099">
        <ele>1168.4835121365</ele>
        <time>2015-02-22T10:39:09Z</time>
      </trkpt>
      <trkpt lat="42.99315" lon="-0.70101">
        <ele>1168.4835121365</ele>
        <time>2015-02-22T10:39:13Z</time>
      </trkpt>
      <trkpt lat="42.99312" lon="-0.70102">
        <ele>1171.3617682362</ele>
        <time>2015-02-22T10:39:18Z</time>
      </trkpt>
      <trkpt lat="42.99311" lon="-0.70103">
        <ele>1171.3617682362</ele>
        <time>2015-02-22T10:39:23Z</time>
      </trkpt>
      <trkpt lat="42.99309" lon="-0.70105">
        <ele>1171.3617682362</ele>
        <time>2015-02-22T10:39:27Z</time>
      </trkpt>
      <trkpt lat="42.99306" lon="-0.70107">
        <ele>1171.3617682362</ele>
        <time>2015-02-22T10:39:34Z</time>
      </trkpt>
      <trkpt lat="42.99304" lon="-0.70107">
        <ele>1171.3617682362</ele>
        <time>2015-02-22T10:39:38Z</time>
      </trkpt>
      <trkpt lat="42.99303" lon="-0.70107">
        <ele>1174.2139725213</ele>
        <time>2015-02-22T10:39:43Z</time>
      </trkpt>
      <trkpt lat="42.99298" lon="-0.70109">
        <ele>1174.2139725213</ele>
        <time>2015-02-22T10:39:49Z</time>
      </trkpt>
      <trkpt lat="42.99296" lon="-0.70109">
        <ele>1174.2139725213</ele>
        <time>2015-02-22T10:39:53Z</time>
      </trkpt>
      <trkpt lat="42.99294" lon="-0.70111">
        <ele>1176.9812071663</ele>
        <time>2015-02-22T10:39:58Z</time>
      </trkpt>
      <trkpt lat="42.99293" lon="-0.70112">
        <ele>1176.9812071663</ele>
        <time>2015-02-22T10:40:02Z</time>
      </trkpt>
      <trkpt lat="42.99292" lon="-0.70112">
        <ele>1176.9812071663</ele>
        <time>2015-02-22T10:40:09Z</time>
      </trkpt>
      <trkpt lat="42.99287" lon="-0.70113">
        <ele>1176.9812071663</ele>
        <time>2015-02-22T10:40:12Z</time>
      </trkpt>
      <trkpt lat="42.99284" lon="-0.70114">
        <ele>1179.7389052679</ele>
        <time>2015-02-22T10:40:18Z</time>
      </trkpt>
      <trkpt lat="42.99283" lon="-0.70114">
        <ele>1179.7389052679</ele>
        <time>2015-02-22T10:40:22Z</time>
      </trkpt>
      <trkpt lat="42.9928" lon="-0.70116">
        <ele>1179.7389052679</ele>
        <time>2015-02-22T10:40:29Z</time>
      </trkpt>
      <trkpt lat="42.99279" lon="-0.70118">
        <ele>1179.7389052679</ele>
        <time>2015-02-22T10:40:33Z</time>
      </trkpt>
      <trkpt lat="42.99276" lon="-0.70118">
        <ele>1182.5282501844</ele>
        <time>2015-02-22T10:40:39Z</time>
      </trkpt>
      <trkpt lat="42.99273" lon="-0.7012">
        <ele>1182.5282501844</ele>
        <time>2015-02-22T10:40:42Z</time>
      </trkpt>
      <trkpt lat="42.99269" lon="-0.70122">
        <ele>1182.5282501844</ele>
        <time>2015-02-22T10:40:49Z</time>
      </trkpt>
      <trkpt lat="42.99266" lon="-0.70124">
        <ele>1185.4162225416</ele>
        <time>2015-02-22T10:40:54Z</time>
      </trkpt>
      <trkpt lat="42.99265" lon="-0.70127">
        <ele>1185.4162225416</ele>
        <time>2015-02-22T10:40:58Z</time>
      </trkpt>
      <trkpt lat="42.9926" lon="-0.70126">
        <ele>1185.4162225416</ele>
        <time>2015-02-22T10:41:34Z</time>
      </trkpt>
      <trkpt lat="42.99257" lon="-0.70128">
        <ele>1188.5079304894</ele>
        <time>2015-02-22T10:41:38Z</time>
      </trkpt>
      <trkpt lat="42.99255" lon="-0.7013">
        <ele>1188.5079304894</ele>
        <time>2015-02-22T10:41:42Z</time>
      </trkpt>
      <trkpt lat="42.99252" lon="-0.70131">
        <ele>1188.5079304894</ele>
        <time>2015-02-22T10:41:50Z</time>
      </trkpt>
      <trkpt lat="42.99251" lon="-0.70132">
        <ele>1188.5079304894</ele>
        <time>2015-02-22T10:41:52Z</time>
      </trkpt>
      <trkpt lat="42.99246" lon="-0.70141">
        <ele>1191.6552939625</ele>
        <time>2015-02-22T10:41:59Z</time>
      </trkpt>
      <trkpt lat="42.99246" lon="-0.70142">
        <ele>1191.6552939625</ele>
        <time>2015-02-22T10:42:03Z</time>
      </trkpt>
      <trkpt lat="42.99244" lon="-0.70146">
        <ele>1191.6552939625</ele>
        <time>2015-02-22T10:42:08Z</time>
      </trkpt>
      <trkpt lat="42.99242" lon="-0.70148">
        <ele>1191.6552939625</ele>
        <time>2015-02-22T10:42:13Z</time>
      </trkpt>
      <trkpt lat="42.99242" lon="-0.70147">
        <ele>1191.6552939625</ele>
        <time>2015-02-22T10:42:18Z</time>
      </trkpt>
      <trkpt lat="42.99239" lon="-0.70152">
        <ele>1194.8651619614</ele>
        <time>2015-02-22T10:42:23Z</time>
      </trkpt>
      <trkpt lat="42.99236" lon="-0.70158">
        <ele>1194.8651619614</ele>
        <time>2015-02-22T10:42:29Z</time>
      </trkpt>
      <trkpt lat="42.99234" lon="-0.70161">
        <ele>1194.8651619614</ele>
        <time>2015-02-22T10:42:33Z</time>
      </trkpt>
      <trkpt lat="42.99232" lon="-0.70163">
        <ele>1197.913225935</ele>
        <time>2015-02-22T10:42:39Z</time>
      </trkpt>
      <trkpt lat="42.99231" lon="-0.70163">
        <ele>1197.913225935</ele>
        <time>2015-02-22T10:42:43Z</time>
      </trkpt>
      <trkpt lat="42.99224" lon="-0.70166">
        <ele>1197.913225935</ele>
        <time>2015-02-22T10:42:48Z</time>
      </trkpt>
      <trkpt lat="42.99222" lon="-0.7017">
        <ele>1201.0101324929</ele>
        <time>2015-02-22T10:42:54Z</time>
      </trkpt>
      <trkpt lat="42.99222" lon="-0.70172">
        <ele>1201.0101324929</ele>
        <time>2015-02-22T10:42:58Z</time>
      </trkpt>
      <trkpt lat="42.99221" lon="-0.70174">
        <ele>1201.0101324929</ele>
        <time>2015-02-22T10:43:03Z</time>
      </trkpt>
      <trkpt lat="42.9922" lon="-0.70174">
        <ele>1201.0101324929</ele>
        <time>2015-02-22T10:43:09Z</time>
      </trkpt>
      <trkpt lat="42.99217" lon="-0.7018">
        <ele>1204.0627980828</ele>
        <time>2015-02-22T10:43:13Z</time>
      </trkpt>
      <trkpt lat="42.99215" lon="-0.70185">
        <ele>1204.0627980828</ele>
        <time>2015-02-22T10:43:18Z</time>
      </trkpt>
      <trkpt lat="42.99213" lon="-0.70187">
        <ele>1204.0627980828</ele>
        <time>2015-02-22T10:43:23Z</time>
      </trkpt>
      <trkpt lat="42.99211" lon="-0.7019">
        <ele>1207.0140275659</ele>
        <time>2015-02-22T10:43:28Z</time>
      </trkpt>
      <trkpt lat="42.99209" lon="-0.70195">
        <ele>1207.0140275659</ele>
        <time>2015-02-22T10:43:34Z</time>
      </trkpt>
      <trkpt lat="42.99208" lon="-0.70197">
        <ele>1207.0140275659</ele>
        <time>2015-02-22T10:43:38Z</time>
      </trkpt>
      <trkpt lat="42.99208" lon="-0.70198">
        <ele>1207.0140275659</ele>
        <time>2015-02-22T10:43:42Z</time>
      </trkpt>
      <trkpt lat="42.99206" lon="-0.70207">
        <ele>1209.8688606884</ele>
        <time>2015-02-22T10:43:50Z</time>
      </trkpt>
      <trkpt lat="42.99204" lon="-0.70209">
        <ele>1209.8688606884</ele>
        <time>2015-02-22T10:43:52Z</time>
      </trkpt>
      <trkpt lat="42.99203" lon="-0.70211">
        <ele>1209.8688606884</ele>
        <time>2015-02-22T10:43:58Z</time>
      </trkpt>
      <trkpt lat="42.99204" lon="-0.70214">
        <ele>1209.8688606884</ele>
        <time>2015-02-22T10:44:03Z</time>
      </trkpt>
      <trkpt lat="42.99204" lon="-0.70219">
        <ele>1212.7476301587</ele>
        <time>2015-02-22T10:44:09Z</time>
      </trkpt>
      <trkpt lat="42.99202" lon="-0.70222">
        <ele>1212.7476301587</ele>
        <time>2015-02-22T10:44:13Z</time>
      </trkpt>
      <trkpt lat="42.99201" lon="-0.70225">
        <ele>1212.7476301587</ele>
        <time>2015-02-22T10:44:18Z</time>
      </trkpt>
      <trkpt lat="42.99201" lon="-0.70227">
        <ele>1212.7476301587</ele>
        <time>2015-02-22T10:44:23Z</time>
      </trkpt>
      <trkpt lat="42.99195" lon="-0.70234">
        <ele>1215.6609868192</ele>
        <time>2015-02-22T10:44:29Z</time>
      </trkpt>
      <trkpt lat="42.99192" lon="-0.70235">
        <ele>1215.6609868192</ele>
        <time>2015-02-22T10:44:33Z</time>
      </trkpt>
      <trkpt lat="42.99189" lon="-0.70233">
        <ele>1215.6609868192</ele>
        <time>2015-02-22T10:44:39Z</time>
      </trkpt>
      <trkpt lat="42.99187" lon="-0.7023">
        <ele>1218.4170472293</ele>
        <time>2015-02-22T10:44:45Z</time>
      </trkpt>
      <trkpt lat="42.99185" lon="-0.70227">
        <ele>1218.4170472293</ele>
        <time>2015-02-22T10:44:48Z</time>
      </trkpt>
      <trkpt lat="42.99182" lon="-0.70226">
        <ele>1218.4170472293</ele>
        <time>2015-02-22T10:44:53Z</time>
      </trkpt>
      <trkpt lat="42.9918" lon="-0.70226">
        <ele>1218.4170472293</ele>
        <time>2015-02-22T10:44:58Z</time>
      </trkpt>
      <trkpt lat="42.99177" lon="-0.70223">
        <ele>1221.2132524691</ele>
        <time>2015-02-22T10:45:03Z</time>
      </trkpt>
      <trkpt lat="42.99174" lon="-0.7022">
        <ele>1221.2132524691</ele>
        <time>2015-02-22T10:45:08Z</time>
      </trkpt>
      <trkpt lat="42.99171" lon="-0.70218">
        <ele>1221.2132524691</ele>
        <time>2015-02-22T10:45:13Z</time>
      </trkpt>
      <trkpt lat="42.99169" lon="-0.70218">
        <ele>1221.2132524691</ele>
        <time>2015-02-22T10:45:18Z</time>
      </trkpt>
      <trkpt lat="42.99168" lon="-0.70216">
        <ele>1223.9587118712</ele>
        <time>2015-02-22T10:45:23Z</time>
      </trkpt>
      <trkpt lat="42.99164" lon="-0.70215">
        <ele>1223.9587118712</ele>
        <time>2015-02-22T10:45:29Z</time>
      </trkpt>
      <trkpt lat="42.99162" lon="-0.70215">
        <ele>1223.9587118712</ele>
        <time>2015-02-22T10:45:33Z</time>
      </trkpt>
      <trkpt lat="42.9916" lon="-0.70215">
        <ele>1223.9587118712</ele>
        <time>2015-02-22T10:45:38Z</time>
      </trkpt>
      <trkpt lat="42.99159" lon="-0.70217">
        <ele>1226.5694467247</ele>
        <time>2015-02-22T10:45:42Z</time>
      </trkpt>
      <trkpt lat="42.99159" lon="-0.70221">
        <ele>1226.5694467247</ele>
        <time>2015-02-22T10:45:49Z</time>
      </trkpt>
      <trkpt lat="42.99157" lon="-0.70223">
        <ele>1226.5694467247</ele>
        <time>2015-02-22T10:45:52Z</time>
      </trkpt>
      <trkpt lat="42.99157" lon="-0.70228">
        <ele>1226.5694467247</ele>
        <time>2015-02-22T10:45:59Z</time>
      </trkpt>
      <trkpt lat="42.99156" lon="-0.70229">
        <ele>1228.9681141177</ele>
        <time>2015-02-22T10:46:02Z</time>
      </trkpt>
      <trkpt lat="42.99155" lon="-0.70232">
        <ele>1228.9681141177</ele>
        <time>2015-02-22T10:46:09Z</time>
      </trkpt>
      <trkpt lat="42.99154" lon="-0.70232">
        <ele>1228.9681141177</ele>
        <time>2015-02-22T10:46:13Z</time>
      </trkpt>
      <trkpt lat="42.9915" lon="-0.70238">
        <ele>1231.1846093775</ele>
        <time>2015-02-22T10:46:28Z</time>
      </trkpt>
      <trkpt lat="42.99149" lon="-0.70241">
        <ele>1231.1846093775</ele>
        <time>2015-02-22T10:46:33Z</time>
      </trkpt>
      <trkpt lat="42.99147" lon="-0.70247">
        <ele>1231.1846093775</ele>
        <time>2015-02-22T10:46:38Z</time>
      </trkpt>
      <trkpt lat="42.99145" lon="-0.7025">
        <ele>1233.1895761133</ele>
        <time>2015-02-22T10:46:43Z</time>
      </trkpt>
      <trkpt lat="42.99142" lon="-0.70255">
        <ele>1233.1895761133</ele>
        <time>2015-02-22T10:46:49Z</time>
      </trkpt>
      <trkpt lat="42.99139" lon="-0.70258">
        <ele>1233.1895761133</ele>
        <time>2015-02-22T10:46:53Z</time>
      </trkpt>
      <trkpt lat="42.99138" lon="-0.70256">
        <ele>1235.100589453</ele>
        <time>2015-02-22T10:46:58Z</time>
      </trkpt>
      <trkpt lat="42.99136" lon="-0.70255">
        <ele>1235.100589453</ele>
        <time>2015-02-22T10:47:03Z</time>
      </trkpt>
      <trkpt lat="42.99135" lon="-0.70254">
        <ele>1235.100589453</ele>
        <time>2015-02-22T10:47:08Z</time>
      </trkpt>
      <trkpt lat="42.99133" lon="-0.70252">
        <ele>1235.100589453</ele>
        <time>2015-02-22T10:47:14Z</time>
      </trkpt>
      <trkpt lat="42.9913" lon="-0.70253">
        <ele>1236.9980910735</ele>
        <time>2015-02-22T10:47:18Z</time>
      </trkpt>
      <trkpt lat="42.99128" lon="-0.70251">
        <ele>1236.9980910735</ele>
        <time>2015-02-22T10:47:23Z</time>
      </trkpt>
      <trkpt lat="42.99124" lon="-0.70252">
        <ele>1236.9980910735</ele>
        <time>2015-02-22T10:47:29Z</time>
      </trkpt>
      <trkpt lat="42.99124" lon="-0.70253">
        <ele>1236.9980910735</ele>
        <time>2015-02-22T10:47:33Z</time>
      </trkpt>
      <trkpt lat="42.99121" lon="-0.70258">
        <ele>1238.9422938615</ele>
        <time>2015-02-22T10:47:39Z</time>
      </trkpt>
      <trkpt lat="42.9912" lon="-0.7026">
        <ele>1238.9422938615</ele>
        <time>2015-02-22T10:47:43Z</time>
      </trkpt>
      <trkpt lat="42.9912" lon="-0.70266">
        <ele>1238.9422938615</ele>
        <time>2015-02-22T10:47:49Z</time>
      </trkpt>
      <trkpt lat="42.9912" lon="-0.70269">
        <ele>1238.9422938615</ele>
        <time>2015-02-22T10:47:53Z</time>
      </trkpt>
      <trkpt lat="42.9912" lon="-0.70272">
        <ele>1240.8015569059</ele>
        <time>2015-02-22T10:47:58Z</time>
      </trkpt>
      <trkpt lat="42.99118" lon="-0.70277">
        <ele>1240.8015569059</ele>
        <time>2015-02-22T10:48:03Z</time>
      </trkpt>
      <trkpt lat="42.99113" lon="-0.70286">
        <ele>1242.4685952207</ele>
        <time>2015-02-22T10:48:08Z</time>
      </trkpt>
      <trkpt lat="42.99112" lon="-0.7029">
        <ele>1242.4685952207</ele>
        <time>2015-02-22T10:48:14Z</time>
      </trkpt>
      <trkpt lat="42.99112" lon="-0.70294">
        <ele>1242.4685952207</ele>
        <time>2015-02-22T10:48:19Z</time>
      </trkpt>
      <trkpt lat="42.9911" lon="-0.70297">
        <ele>1242.4685952207</ele>
        <time>2015-02-22T10:48:22Z</time>
      </trkpt>
      <trkpt lat="42.99108" lon="-0.703">
        <ele>1244.0030940001</ele>
        <time>2015-02-22T10:48:28Z</time>
      </trkpt>
      <trkpt lat="42.99107" lon="-0.70304">
        <ele>1244.0030940001</ele>
        <time>2015-02-22T10:48:33Z</time>
      </trkpt>
      <trkpt lat="42.99106" lon="-0.70307">
        <ele>1244.0030940001</ele>
        <time>2015-02-22T10:48:38Z</time>
      </trkpt>
      <trkpt lat="42.99106" lon="-0.70307">
        <ele>1244.0030940001</ele>
        <time>2015-02-22T10:48:43Z</time>
      </trkpt>
      <trkpt lat="42.99106" lon="-0.70309">
        <ele>1244.0030940001</ele>
        <time>2015-02-22T10:48:48Z</time>
      </trkpt>
      <trkpt lat="42.99112" lon="-0.70301">
        <ele>1245.6913226985</ele>
        <time>2015-02-22T10:48:58Z</time>
      </trkpt>
      <trkpt lat="42.99114" lon="-0.70298">
        <ele>1245.6913226985</ele>
        <time>2015-02-22T10:49:02Z</time>
      </trkpt>
      <trkpt lat="42.99114" lon="-0.70293">
        <ele>1245.6913226985</ele>
        <time>2015-02-22T10:49:09Z</time>
      </trkpt>
      <trkpt lat="42.99113" lon="-0.70292">
        <ele>1245.6913226985</ele>
        <time>2015-02-22T10:49:13Z</time>
      </trkpt>
      <trkpt lat="42.99113" lon="-0.70292">
        <ele>1245.6913226985</ele>
        <time>2015-02-22T10:49:19Z</time>
      </trkpt>
      <trkpt lat="42.99104" lon="-0.7029">
        <ele>1247.4954675909</ele>
        <time>2015-02-22T10:49:22Z</time>
      </trkpt>
      <trkpt lat="42.99103" lon="-0.70291">
        <ele>1247.4954675909</ele>
        <time>2015-02-22T10:49:29Z</time>
      </trkpt>
      <trkpt lat="42.991" lon="-0.70294">
        <ele>1247.4954675909</ele>
        <time>2015-02-22T10:49:34Z</time>
      </trkpt>
      <trkpt lat="42.99097" lon="-0.70298">
        <ele>1249.1063589485</ele>
        <time>2015-02-22T10:49:39Z</time>
      </trkpt>
      <trkpt lat="42.99097" lon="-0.703">
        <ele>1249.1063589485</ele>
        <time>2015-02-22T10:49:42Z</time>
      </trkpt>
      <trkpt lat="42.99093" lon="-0.70308">
        <ele>1249.1063589485</ele>
        <time>2015-02-22T10:49:49Z</time>
      </trkpt>
      <trkpt lat="42.9909" lon="-0.70312">
        <ele>1250.5551201243</ele>
        <time>2015-02-22T10:49:53Z</time>
      </trkpt>
      <trkpt lat="42.99089" lon="-0.70316">
        <ele>1250.5551201243</ele>
        <time>2015-02-22T10:49:57Z</time>
      </trkpt>
      <trkpt lat="42.99087" lon="-0.70321">
        <ele>1250.5551201243</ele>
        <time>2015-02-22T10:50:02Z</time>
      </trkpt>
      <trkpt lat="42.99085" lon="-0.70324">
        <ele>1252.0007307525</ele>
        <time>2015-02-22T10:50:09Z</time>
      </trkpt>
      <trkpt lat="42.99085" lon="-0.70322">
        <ele>1252.0007307525</ele>
        <time>2015-02-22T10:50:13Z</time>
      </trkpt>
      <trkpt lat="42.99083" lon="-0.70318">
        <ele>1252.0007307525</ele>
        <time>2015-02-22T10:50:19Z</time>
      </trkpt>
      <trkpt lat="42.99082" lon="-0.70318">
        <ele>1252.0007307525</ele>
        <time>2015-02-22T10:50:22Z</time>
      </trkpt>
      <trkpt lat="42.99082" lon="-0.70315">
        <ele>1252.0007307525</ele>
        <time>2015-02-22T10:50:29Z</time>
      </trkpt>
      <trkpt lat="42.99075" lon="-0.70307">
        <ele>1253.6193037814</ele>
        <time>2015-02-22T10:50:33Z</time>
      </trkpt>
      <trkpt lat="42.99073" lon="-0.70309">
        <ele>1253.6193037814</ele>
        <time>2015-02-22T10:50:39Z</time>
      </trkpt>
      <trkpt lat="42.9907" lon="-0.70313">
        <ele>1253.6193037814</ele>
        <time>2015-02-22T10:50:42Z</time>
      </trkpt>
      <trkpt lat="42.9907" lon="-0.70314">
        <ele>1253.6193037814</ele>
        <time>2015-02-22T10:50:49Z</time>
      </trkpt>
      <trkpt lat="42.9907" lon="-0.70321">
        <ele>1255.1267590849</ele>
        <time>2015-02-22T10:50:54Z</time>
      </trkpt>
      <trkpt lat="42.99073" lon="-0.70324">
        <ele>1255.1267590849</ele>
        <time>2015-02-22T10:50:59Z</time>
      </trkpt>
      <trkpt lat="42.99072" lon="-0.70328">
        <ele>1255.1267590849</ele>
        <time>2015-02-22T10:51:02Z</time>
      </trkpt>
      <trkpt lat="42.9907" lon="-0.70333">
        <ele>1256.5916198274</ele>
        <time>2015-02-22T10:51:09Z</time>
      </trkpt>
      <trkpt lat="42.99067" lon="-0.70336">
        <ele>1256.5916198274</ele>
        <time>2015-02-22T10:51:13Z</time>
      </trkpt>
      <trkpt lat="42.99067" lon="-0.70339">
        <ele>1256.5916198274</ele>
        <time>2015-02-22T10:51:19Z</time>
      </trkpt>
      <trkpt lat="42.99067" lon="-0.70345">
        <ele>1258.0054011129</ele>
        <time>2015-02-22T10:51:22Z</time>
      </trkpt>
      <trkpt lat="42.99069" lon="-0.70346">
        <ele>1258.0054011129</ele>
        <time>2015-02-22T10:51:29Z</time>
      </trkpt>
      <trkpt lat="42.99067" lon="-0.70351">
        <ele>1258.0054011129</ele>
        <time>2015-02-22T10:51:34Z</time>
      </trkpt>
      <trkpt lat="42.99066" lon="-0.70354">
        <ele>1258.0054011129</ele>
        <time>2015-02-22T10:51:38Z</time>
      </trkpt>
      <trkpt lat="42.99065" lon="-0.70357">
        <ele>1259.5620968113</ele>
        <time>2015-02-22T10:51:42Z</time>
      </trkpt>
      <trkpt lat="42.99058" lon="-0.70367">
        <ele>1261.1671898276</ele>
        <time>2015-02-22T10:51:49Z</time>
      </trkpt>
      <trkpt lat="42.99057" lon="-0.70366">
        <ele>1261.1671898276</ele>
        <time>2015-02-22T10:51:53Z</time>
      </trkpt>
      <trkpt lat="42.99058" lon="-0.70362">
        <ele>1261.1671898276</ele>
        <time>2015-02-22T10:51:59Z</time>
      </trkpt>
      <trkpt lat="42.99056" lon="-0.70361">
        <ele>1261.1671898276</ele>
        <time>2015-02-22T10:52:02Z</time>
      </trkpt>
      <trkpt lat="42.99054" lon="-0.70357">
        <ele>1262.8770296645</ele>
        <time>2015-02-22T10:52:09Z</time>
      </trkpt>
      <trkpt lat="42.99053" lon="-0.70354">
        <ele>1262.8770296645</ele>
        <time>2015-02-22T10:52:14Z</time>
      </trkpt>
      <trkpt lat="42.99049" lon="-0.70357">
        <ele>1262.8770296645</ele>
        <time>2015-02-22T10:52:22Z</time>
      </trkpt>
      <trkpt lat="42.99047" lon="-0.7036">
        <ele>1264.6281888352</ele>
        <time>2015-02-22T10:52:29Z</time>
      </trkpt>
      <trkpt lat="42.99046" lon="-0.70362">
        <ele>1264.6281888352</ele>
        <time>2015-02-22T10:52:33Z</time>
      </trkpt>
      <trkpt lat="42.99045" lon="-0.70363">
        <ele>1264.6281888352</ele>
        <time>2015-02-22T10:52:39Z</time>
      </trkpt>
      <trkpt lat="42.9904" lon="-0.70366">
        <ele>1264.6281888352</ele>
        <time>2015-02-22T10:52:48Z</time>
      </trkpt>
      <trkpt lat="42.99041" lon="-0.70366">
        <ele>1266.5778936766</ele>
        <time>2015-02-22T10:52:54Z</time>
      </trkpt>
      <trkpt lat="42.99039" lon="-0.7036">
        <ele>1266.5778936766</ele>
        <time>2015-02-22T10:53:08Z</time>
      </trkpt>
      <trkpt lat="42.99037" lon="-0.70358">
        <ele>1266.5778936766</ele>
        <time>2015-02-22T10:53:13Z</time>
      </trkpt>
      <trkpt lat="42.99037" lon="-0.70357">
        <ele>1266.5778936766</ele>
        <time>2015-02-22T10:53:19Z</time>
      </trkpt>
      <trkpt lat="42.99037" lon="-0.70356">
        <ele>1266.5778936766</ele>
        <time>2015-02-22T10:53:22Z</time>
      </trkpt>
      <trkpt lat="42.99031" lon="-0.70346">
        <ele>1269.0153188123</ele>
        <time>2015-02-22T10:53:38Z</time>
      </trkpt>
      <trkpt lat="42.99031" lon="-0.70345">
        <ele>1269.0153188123</ele>
        <time>2015-02-22T10:53:42Z</time>
      </trkpt>
      <trkpt lat="42.99026" lon="-0.70357">
        <ele>1271.5440623691</ele>
        <time>2015-02-22T10:54:17Z</time>
      </trkpt>
      <trkpt lat="42.99026" lon="-0.70356">
        <ele>1271.5440623691</ele>
        <time>2015-02-22T10:54:22Z</time>
      </trkpt>
      <trkpt lat="42.99018" lon="-0.70362">
        <ele>1273.7965343503</ele>
        <time>2015-02-22T10:55:02Z</time>
      </trkpt>
      <trkpt lat="42.99026" lon="-0.70351">
        <ele>1275.9228530039</ele>
        <time>2015-02-22T10:56:08Z</time>
      </trkpt>
      <trkpt lat="42.99022" lon="-0.70363">
        <ele>1277.8462517613</ele>
        <time>2015-02-22T10:56:29Z</time>
      </trkpt>
      <trkpt lat="42.9902" lon="-0.70364">
        <ele>1277.8462517613</ele>
        <time>2015-02-22T10:56:33Z</time>
      </trkpt>
      <trkpt lat="42.99017" lon="-0.70369">
        <ele>1277.8462517613</ele>
        <time>2015-02-22T10:56:38Z</time>
      </trkpt>
      <trkpt lat="42.99011" lon="-0.70372">
        <ele>1279.5681856437</ele>
        <time>2015-02-22T10:56:43Z</time>
      </trkpt>
      <trkpt lat="42.99008" lon="-0.70376">
        <ele>1279.5681856437</ele>
        <time>2015-02-22T10:56:49Z</time>
      </trkpt>
      <trkpt lat="42.9901" lon="-0.70375">
        <ele>1279.5681856437</ele>
        <time>2015-02-22T10:56:53Z</time>
      </trkpt>
      <trkpt lat="42.99011" lon="-0.70372">
        <ele>1279.5681856437</ele>
        <time>2015-02-22T10:56:59Z</time>
      </trkpt>
      <trkpt lat="42.99012" lon="-0.70369">
        <ele>1281.5372710964</ele>
        <time>2015-02-22T10:57:02Z</time>
      </trkpt>
      <trkpt lat="42.99012" lon="-0.70366">
        <ele>1281.5372710964</ele>
        <time>2015-02-22T10:57:09Z</time>
      </trkpt>
      <trkpt lat="42.99011" lon="-0.70366">
        <ele>1281.5372710964</ele>
        <time>2015-02-22T10:57:14Z</time>
      </trkpt>
      <trkpt lat="42.99011" lon="-0.7036">
        <ele>1281.5372710964</ele>
        <time>2015-02-22T10:57:18Z</time>
      </trkpt>
      <trkpt lat="42.99008" lon="-0.70358">
        <ele>1283.6496350908</ele>
        <time>2015-02-22T10:57:23Z</time>
      </trkpt>
      <trkpt lat="42.99008" lon="-0.70356">
        <ele>1283.6496350908</ele>
        <time>2015-02-22T10:57:28Z</time>
      </trkpt>
      <trkpt lat="42.99009" lon="-0.70352">
        <ele>1283.6496350908</ele>
        <time>2015-02-22T10:57:34Z</time>
      </trkpt>
      <trkpt lat="42.99004" lon="-0.70353">
        <ele>1285.750948518</ele>
        <time>2015-02-22T10:57:38Z</time>
      </trkpt>
      <trkpt lat="42.98996" lon="-0.70356">
        <ele>1285.750948518</ele>
        <time>2015-02-22T10:57:48Z</time>
      </trkpt>
      <trkpt lat="42.98994" lon="-0.70357">
        <ele>1288.0008450565</ele>
        <time>2015-02-22T10:57:54Z</time>
      </trkpt>
      <trkpt lat="42.98989" lon="-0.70362">
        <ele>1288.0008450565</ele>
        <time>2015-02-22T10:57:58Z</time>
      </trkpt>
      <trkpt lat="42.98988" lon="-0.70363">
        <ele>1288.0008450565</ele>
        <time>2015-02-22T10:58:03Z</time>
      </trkpt>
      <trkpt lat="42.9898" lon="-0.70366">
        <ele>1290.2585563971</ele>
        <time>2015-02-22T10:58:29Z</time>
      </trkpt>
      <trkpt lat="42.98979" lon="-0.70371">
        <ele>1290.2585563971</ele>
        <time>2015-02-22T10:58:33Z</time>
      </trkpt>
      <trkpt lat="42.98978" lon="-0.70375">
        <ele>1290.2585563971</ele>
        <time>2015-02-22T10:58:39Z</time>
      </trkpt>
      <trkpt lat="42.98977" lon="-0.70378">
        <ele>1290.2585563971</ele>
        <time>2015-02-22T10:58:42Z</time>
      </trkpt>
      <trkpt lat="42.98976" lon="-0.70383">
        <ele>1292.4944773737</ele>
        <time>2015-02-22T10:58:48Z</time>
      </trkpt>
      <trkpt lat="42.98976" lon="-0.70388">
        <ele>1292.4944773737</ele>
        <time>2015-02-22T10:58:54Z</time>
      </trkpt>
      <trkpt lat="42.98975" lon="-0.70391">
        <ele>1292.4944773737</ele>
        <time>2015-02-22T10:58:58Z</time>
      </trkpt>
      <trkpt lat="42.98976" lon="-0.70392">
        <ele>1292.4944773737</ele>
        <time>2015-02-22T10:59:02Z</time>
      </trkpt>
      <trkpt lat="42.98976" lon="-0.70392">
        <ele>1292.4944773737</ele>
        <time>2015-02-22T10:59:09Z</time>
      </trkpt>
      <trkpt lat="42.98973" lon="-0.70399">
        <ele>1294.839730584</ele>
        <time>2015-02-22T10:59:14Z</time>
      </trkpt>
      <trkpt lat="42.98969" lon="-0.70401">
        <ele>1294.839730584</ele>
        <time>2015-02-22T10:59:18Z</time>
      </trkpt>
      <trkpt lat="42.98968" lon="-0.70407">
        <ele>1294.839730584</ele>
        <time>2015-02-22T10:59:23Z</time>
      </trkpt>
      <trkpt lat="42.98967" lon="-0.7041">
        <ele>1297.0407832765</ele>
        <time>2015-02-22T10:59:28Z</time>
      </trkpt>
      <trkpt lat="42.98964" lon="-0.70413">
        <ele>1297.0407832765</ele>
        <time>2015-02-22T10:59:34Z</time>
      </trkpt>
      <trkpt lat="42.98963" lon="-0.70418">
        <ele>1297.0407832765</ele>
        <time>2015-02-22T10:59:39Z</time>
      </trkpt>
      <trkpt lat="42.98962" lon="-0.7042">
        <ele>1299.353085193</ele>
        <time>2015-02-22T10:59:42Z</time>
      </trkpt>
      <trkpt lat="42.98963" lon="-0.70424">
        <ele>1299.353085193</ele>
        <time>2015-02-22T10:59:49Z</time>
      </trkpt>
      <trkpt lat="42.98961" lon="-0.70431">
        <ele>1299.353085193</ele>
        <time>2015-02-22T10:59:53Z</time>
      </trkpt>
      <trkpt lat="42.98961" lon="-0.70426">
        <ele>1301.8400542749</ele>
        <time>2015-02-22T11:00:02Z</time>
      </trkpt>
      <trkpt lat="42.9896" lon="-0.70423">
        <ele>1301.8400542749</ele>
        <time>2015-02-22T11:00:07Z</time>
      </trkpt>
      <trkpt lat="42.9896" lon="-0.70417">
        <ele>1301.8400542749</ele>
        <time>2015-02-22T11:00:15Z</time>
      </trkpt>
      <trkpt lat="42.98961" lon="-0.70414">
        <ele>1304.1708416592</ele>
        <time>2015-02-22T11:00:18Z</time>
      </trkpt>
      <trkpt lat="42.98962" lon="-0.70411">
        <ele>1304.1708416592</ele>
        <time>2015-02-22T11:00:22Z</time>
      </trkpt>
      <trkpt lat="42.98959" lon="-0.70405">
        <ele>1304.1708416592</ele>
        <time>2015-02-22T11:00:29Z</time>
      </trkpt>
      <trkpt lat="42.98959" lon="-0.70401">
        <ele>1306.3996034048</ele>
        <time>2015-02-22T11:00:33Z</time>
      </trkpt>
      <trkpt lat="42.9896" lon="-0.70395">
        <ele>1306.3996034048</ele>
        <time>2015-02-22T11:00:39Z</time>
      </trkpt>
      <trkpt lat="42.9896" lon="-0.70392">
        <ele>1306.3996034048</ele>
        <time>2015-02-22T11:00:42Z</time>
      </trkpt>
      <trkpt lat="42.98961" lon="-0.70387">
        <ele>1308.5623799747</ele>
        <time>2015-02-22T11:00:49Z</time>
      </trkpt>
      <trkpt lat="42.98961" lon="-0.70383">
        <ele>1308.5623799747</ele>
        <time>2015-02-22T11:00:53Z</time>
      </trkpt>
      <trkpt lat="42.98959" lon="-0.70382">
        <ele>1308.5623799747</ele>
        <time>2015-02-22T11:00:59Z</time>
      </trkpt>
      <trkpt lat="42.98958" lon="-0.70379">
        <ele>1308.5623799747</ele>
        <time>2015-02-22T11:01:02Z</time>
      </trkpt>
      <trkpt lat="42.98956" lon="-0.70373">
        <ele>1310.6639168038</ele>
        <time>2015-02-22T11:01:09Z</time>
      </trkpt>
      <trkpt lat="42.98954" lon="-0.70371">
        <ele>1310.6639168038</ele>
        <time>2015-02-22T11:01:13Z</time>
      </trkpt>
      <trkpt lat="42.98949" lon="-0.70369">
        <ele>1310.6639168038</ele>
        <time>2015-02-22T11:01:19Z</time>
      </trkpt>
      <trkpt lat="42.98941" lon="-0.70369">
        <ele>1312.8384735828</ele>
        <time>2015-02-22T11:01:22Z</time>
      </trkpt>
      <trkpt lat="42.98935" lon="-0.7037">
        <ele>1312.8384735828</ele>
        <time>2015-02-22T11:01:29Z</time>
      </trkpt>
      <trkpt lat="42.9893" lon="-0.70372">
        <ele>1314.9220120589</ele>
        <time>2015-02-22T11:01:34Z</time>
      </trkpt>
      <trkpt lat="42.98927" lon="-0.70373">
        <ele>1314.9220120589</ele>
        <time>2015-02-22T11:01:38Z</time>
      </trkpt>
      <trkpt lat="42.98926" lon="-0.70374">
        <ele>1314.9220120589</ele>
        <time>2015-02-22T11:01:42Z</time>
      </trkpt>
      <trkpt lat="42.98923" lon="-0.70379">
        <ele>1316.820436119</ele>
        <time>2015-02-22T11:01:48Z</time>
      </trkpt>
      <trkpt lat="42.9892" lon="-0.70382">
        <ele>1316.820436119</ele>
        <time>2015-02-22T11:01:54Z</time>
      </trkpt>
      <trkpt lat="42.98918" lon="-0.70385">
        <ele>1316.820436119</ele>
        <time>2015-02-22T11:01:58Z</time>
      </trkpt>
      <trkpt lat="42.98916" lon="-0.70387">
        <ele>1316.820436119</ele>
        <time>2015-02-22T11:02:02Z</time>
      </trkpt>
      <trkpt lat="42.98916" lon="-0.70391">
        <ele>1318.4758951345</ele>
        <time>2015-02-22T11:02:08Z</time>
      </trkpt>
      <trkpt lat="42.98916" lon="-0.70394">
        <ele>1318.4758951345</ele>
        <time>2015-02-22T11:02:14Z</time>
      </trkpt>
      <trkpt lat="42.98916" lon="-0.70398">
        <ele>1318.4758951345</ele>
        <time>2015-02-22T11:02:18Z</time>
      </trkpt>
      <trkpt lat="42.98916" lon="-0.704">
        <ele>1318.4758951345</ele>
        <time>2015-02-22T11:02:22Z</time>
      </trkpt>
      <trkpt lat="42.98913" lon="-0.70404">
        <ele>1319.9795711401</ele>
        <time>2015-02-22T11:02:29Z</time>
      </trkpt>
      <trkpt lat="42.98911" lon="-0.70406">
        <ele>1319.9795711401</ele>
        <time>2015-02-22T11:02:33Z</time>
      </trkpt>
      <trkpt lat="42.98911" lon="-0.7041">
        <ele>1319.9795711401</ele>
        <time>2015-02-22T11:02:37Z</time>
      </trkpt>
      <trkpt lat="42.98914" lon="-0.70414">
        <ele>1321.4884170889</ele>
        <time>2015-02-22T11:02:42Z</time>
      </trkpt>
      <trkpt lat="42.98912" lon="-0.70417">
        <ele>1321.4884170889</ele>
        <time>2015-02-22T11:02:49Z</time>
      </trkpt>
      <trkpt lat="42.9891" lon="-0.7042">
        <ele>1321.4884170889</ele>
        <time>2015-02-22T11:02:54Z</time>
      </trkpt>
      <trkpt lat="42.98908" lon="-0.70423">
        <ele>1321.4884170889</ele>
        <time>2015-02-22T11:02:58Z</time>
      </trkpt>
      <trkpt lat="42.98908" lon="-0.70425">
        <ele>1323.0181261348</ele>
        <time>2015-02-22T11:03:03Z</time>
      </trkpt>
      <trkpt lat="42.98903" lon="-0.70431">
        <ele>1323.0181261348</ele>
        <time>2015-02-22T11:03:08Z</time>
      </trkpt>
      <trkpt lat="42.98905" lon="-0.70433">
        <ele>1323.0181261348</ele>
        <time>2015-02-22T11:03:14Z</time>
      </trkpt>
      <trkpt lat="42.98904" lon="-0.70437">
        <ele>1324.5831609935</ele>
        <time>2015-02-22T11:03:19Z</time>
      </trkpt>
      <trkpt lat="42.98904" lon="-0.70442">
        <ele>1324.5831609935</ele>
        <time>2015-02-22T11:03:23Z</time>
      </trkpt>
      <trkpt lat="42.98903" lon="-0.70442">
        <ele>1324.5831609935</ele>
        <time>2015-02-22T11:03:28Z</time>
      </trkpt>
      <trkpt lat="42.98899" lon="-0.70448">
        <ele>1326.0526891189</ele>
        <time>2015-02-22T11:03:34Z</time>
      </trkpt>
      <trkpt lat="42.98896" lon="-0.70454">
        <ele>1326.0526891189</ele>
        <time>2015-02-22T11:03:39Z</time>
      </trkpt>
      <trkpt lat="42.98894" lon="-0.70456">
        <ele>1326.0526891189</ele>
        <time>2015-02-22T11:03:43Z</time>
      </trkpt>
      <trkpt lat="42.98893" lon="-0.70459">
        <ele>1327.392197527</ele>
        <time>2015-02-22T11:03:48Z</time>
      </trkpt>
      <trkpt lat="42.98891" lon="-0.70462">
        <ele>1327.392197527</ele>
        <time>2015-02-22T11:03:53Z</time>
      </trkpt>
      <trkpt lat="42.98889" lon="-0.70463">
        <ele>1327.392197527</ele>
        <time>2015-02-22T11:03:59Z</time>
      </trkpt>
      <trkpt lat="42.98887" lon="-0.70466">
        <ele>1327.392197527</ele>
        <time>2015-02-22T11:04:03Z</time>
      </trkpt>
      <trkpt lat="42.98885" lon="-0.70468">
        <ele>1328.7862108726</ele>
        <time>2015-02-22T11:04:08Z</time>
      </trkpt>
      <trkpt lat="42.98882" lon="-0.70471">
        <ele>1328.7862108726</ele>
        <time>2015-02-22T11:04:14Z</time>
      </trkpt>
      <trkpt lat="42.98881" lon="-0.70476">
        <ele>1328.7862108726</ele>
        <time>2015-02-22T11:04:18Z</time>
      </trkpt>
      <trkpt lat="42.98879" lon="-0.70475">
        <ele>1328.7862108726</ele>
        <time>2015-02-22T11:04:23Z</time>
      </trkpt>
      <trkpt lat="42.98872" lon="-0.70489">
        <ele>1330.3478692856</ele>
        <time>2015-02-22T11:04:28Z</time>
      </trkpt>
      <trkpt lat="42.98872" lon="-0.70489">
        <ele>1330.3478692856</ele>
        <time>2015-02-22T11:04:33Z</time>
      </trkpt>
      <trkpt lat="42.98875" lon="-0.70484">
        <ele>1330.3478692856</ele>
        <time>2015-02-22T11:04:39Z</time>
      </trkpt>
      <trkpt lat="42.98875" lon="-0.70481">
        <ele>1330.3478692856</ele>
        <time>2015-02-22T11:04:44Z</time>
      </trkpt>
      <trkpt lat="42.98875" lon="-0.70478">
        <ele>1330.3478692856</ele>
        <time>2015-02-22T11:04:48Z</time>
      </trkpt>
      <trkpt lat="42.98875" lon="-0.70474">
        <ele>1332.2967862606</ele>
        <time>2015-02-22T11:04:53Z</time>
      </trkpt>
      <trkpt lat="42.98875" lon="-0.70471">
        <ele>1332.2967862606</ele>
        <time>2015-02-22T11:04:58Z</time>
      </trkpt>
      <trkpt lat="42.98875" lon="-0.70468">
        <ele>1332.2967862606</ele>
        <time>2015-02-22T11:05:03Z</time>
      </trkpt>
      <trkpt lat="42.98875" lon="-0.70466">
        <ele>1332.2967862606</ele>
        <time>2015-02-22T11:05:09Z</time>
      </trkpt>
      <trkpt lat="42.98873" lon="-0.70463">
        <ele>1332.2967862606</ele>
        <time>2015-02-22T11:05:14Z</time>
      </trkpt>
      <trkpt lat="42.98873" lon="-0.70458">
        <ele>1334.5038660055</ele>
        <time>2015-02-22T11:05:19Z</time>
      </trkpt>
      <trkpt lat="42.98873" lon="-0.70455">
        <ele>1334.5038660055</ele>
        <time>2015-02-22T11:05:23Z</time>
      </trkpt>
      <trkpt lat="42.98871" lon="-0.70453">
        <ele>1334.5038660055</ele>
        <time>2015-02-22T11:05:28Z</time>
      </trkpt>
      <trkpt lat="42.9887" lon="-0.70448">
        <ele>1334.5038660055</ele>
        <time>2015-02-22T11:05:34Z</time>
      </trkpt>
      <trkpt lat="42.9887" lon="-0.70444">
        <ele>1336.73344957</ele>
        <time>2015-02-22T11:05:38Z</time>
      </trkpt>
      <trkpt lat="42.98869" lon="-0.70443">
        <ele>1336.73344957</ele>
        <time>2015-02-22T11:05:43Z</time>
      </trkpt>
      <trkpt lat="42.98869" lon="-0.70443">
        <ele>1336.73344957</ele>
        <time>2015-02-22T11:05:48Z</time>
      </trkpt>
      <trkpt lat="42.9886" lon="-0.70442">
        <ele>1338.9544402544</ele>
        <time>2015-02-22T11:05:59Z</time>
      </trkpt>
      <trkpt lat="42.98858" lon="-0.70445">
        <ele>1338.9544402544</ele>
        <time>2015-02-22T11:06:03Z</time>
      </trkpt>
      <trkpt lat="42.98853" lon="-0.70449">
        <ele>1341.037145003</ele>
        <time>2015-02-22T11:06:08Z</time>
      </trkpt>
      <trkpt lat="42.98849" lon="-0.7045">
        <ele>1341.037145003</ele>
        <time>2015-02-22T11:06:14Z</time>
      </trkpt>
      <trkpt lat="42.98847" lon="-0.7045">
        <ele>1341.037145003</ele>
        <time>2015-02-22T11:06:18Z</time>
      </trkpt>
      <trkpt lat="42.98847" lon="-0.70452">
        <ele>1341.037145003</ele>
        <time>2015-02-22T11:06:23Z</time>
      </trkpt>
      <trkpt lat="42.98849" lon="-0.70446">
        <ele>1343.3085073414</ele>
        <time>2015-02-22T11:06:33Z</time>
      </trkpt>
      <trkpt lat="42.98849" lon="-0.70445">
        <ele>1343.3085073414</ele>
        <time>2015-02-22T11:06:39Z</time>
      </trkpt>
      <trkpt lat="42.98848" lon="-0.70441">
        <ele>1343.3085073414</ele>
        <time>2015-02-22T11:06:57Z</time>
      </trkpt>
      <trkpt lat="42.98849" lon="-0.70438">
        <ele>1343.3085073414</ele>
        <time>2015-02-22T11:07:02Z</time>
      </trkpt>
      <trkpt lat="42.98849" lon="-0.70439">
        <ele>1343.3085073414</ele>
        <time>2015-02-22T11:07:07Z</time>
      </trkpt>
      <trkpt lat="42.98849" lon="-0.70451">
        <ele>1345.9844389429</ele>
        <time>2015-02-22T11:07:32Z</time>
      </trkpt>
      <trkpt lat="42.98847" lon="-0.70452">
        <ele>1345.9844389429</ele>
        <time>2015-02-22T11:07:37Z</time>
      </trkpt>
      <trkpt lat="42.9885" lon="-0.70444">
        <ele>1345.9844389429</ele>
        <time>2015-02-22T11:07:47Z</time>
      </trkpt>
      <trkpt lat="42.98849" lon="-0.70441">
        <ele>1348.4135853362</ele>
        <time>2015-02-22T11:07:52Z</time>
      </trkpt>
      <trkpt lat="42.98848" lon="-0.70439">
        <ele>1348.4135853362</ele>
        <time>2015-02-22T11:07:57Z</time>
      </trkpt>
      <trkpt lat="42.98845" lon="-0.70436">
        <ele>1348.4135853362</ele>
        <time>2015-02-22T11:08:02Z</time>
      </trkpt>
      <trkpt lat="42.98843" lon="-0.70432">
        <ele>1348.4135853362</ele>
        <time>2015-02-22T11:08:07Z</time>
      </trkpt>
      <trkpt lat="42.98842" lon="-0.70427">
        <ele>1350.5695667441</ele>
        <time>2015-02-22T11:08:12Z</time>
      </trkpt>
      <trkpt lat="42.98841" lon="-0.70423">
        <ele>1350.5695667441</ele>
        <time>2015-02-22T11:08:17Z</time>
      </trkpt>
      <trkpt lat="42.98839" lon="-0.70419">
        <ele>1350.5695667441</ele>
        <time>2015-02-22T11:08:22Z</time>
      </trkpt>
      <trkpt lat="42.98838" lon="-0.70419">
        <ele>1350.5695667441</ele>
        <time>2015-02-22T11:08:27Z</time>
      </trkpt>
      <trkpt lat="42.98828" lon="-0.70413">
        <ele>1352.7313346935</ele>
        <time>2015-02-22T11:08:48Z</time>
      </trkpt>
      <trkpt lat="42.98824" lon="-0.70416">
        <ele>1352.7313346935</ele>
        <time>2015-02-22T11:08:54Z</time>
      </trkpt>
      <trkpt lat="42.98821" lon="-0.70419">
        <ele>1352.7313346935</ele>
        <time>2015-02-22T11:08:58Z</time>
      </trkpt>
      <trkpt lat="42.98818" lon="-0.70423">
        <ele>1354.7682295074</ele>
        <time>2015-02-22T11:09:04Z</time>
      </trkpt>
      <trkpt lat="42.98815" lon="-0.70426">
        <ele>1354.7682295074</ele>
        <time>2015-02-22T11:09:07Z</time>
      </trkpt>
      <trkpt lat="42.98812" lon="-0.70428">
        <ele>1354.7682295074</ele>
        <time>2015-02-22T11:09:13Z</time>
      </trkpt>
      <trkpt lat="42.98811" lon="-0.7043">
        <ele>1354.7682295074</ele>
        <time>2015-02-22T11:09:18Z</time>
      </trkpt>
      <trkpt lat="42.9881" lon="-0.7043">
        <ele>1356.8333498865</ele>
        <time>2015-02-22T11:09:24Z</time>
      </trkpt>
      <trkpt lat="42.98811" lon="-0.70428">
        <ele>1356.8333498865</ele>
        <time>2015-02-22T11:09:34Z</time>
      </trkpt>
      <trkpt lat="42.9881" lon="-0.70426">
        <ele>1356.8333498865</ele>
        <time>2015-02-22T11:09:38Z</time>
      </trkpt>
      <trkpt lat="42.98806" lon="-0.70422">
        <ele>1356.8333498865</ele>
        <time>2015-02-22T11:09:44Z</time>
      </trkpt>
      <trkpt lat="42.98805" lon="-0.70421">
        <ele>1359.1117023631</ele>
        <time>2015-02-22T11:09:48Z</time>
      </trkpt>
      <trkpt lat="42.98799" lon="-0.70419">
        <ele>1359.1117023631</ele>
        <time>2015-02-22T11:10:18Z</time>
      </trkpt>
      <trkpt lat="42.98794" lon="-0.70422">
        <ele>1361.3561840978</ele>
        <time>2015-02-22T11:10:23Z</time>
      </trkpt>
      <trkpt lat="42.98792" lon="-0.70424">
        <ele>1361.3561840978</ele>
        <time>2015-02-22T11:10:28Z</time>
      </trkpt>
      <trkpt lat="42.98788" lon="-0.70426">
        <ele>1361.3561840978</ele>
        <time>2015-02-22T11:10:34Z</time>
      </trkpt>
      <trkpt lat="42.98783" lon="-0.7043">
        <ele>1363.4676423997</ele>
        <time>2015-02-22T11:10:39Z</time>
      </trkpt>
      <trkpt lat="42.9878" lon="-0.70434">
        <ele>1363.4676423997</ele>
        <time>2015-02-22T11:10:43Z</time>
      </trkpt>
      <trkpt lat="42.98778" lon="-0.70437">
        <ele>1363.4676423997</ele>
        <time>2015-02-22T11:10:48Z</time>
      </trkpt>
      <trkpt lat="42.98776" lon="-0.70438">
        <ele>1365.5275192984</ele>
        <time>2015-02-22T11:10:54Z</time>
      </trkpt>
      <trkpt lat="42.98775" lon="-0.70439">
        <ele>1365.5275192984</ele>
        <time>2015-02-22T11:10:58Z</time>
      </trkpt>
      <trkpt lat="42.98772" lon="-0.70444">
        <ele>1365.5275192984</ele>
        <time>2015-02-22T11:11:03Z</time>
      </trkpt>
      <trkpt lat="42.98772" lon="-0.70443">
        <ele>1365.5275192984</ele>
        <time>2015-02-22T11:11:08Z</time>
      </trkpt>
      <trkpt lat="42.98776" lon="-0.70431">
        <ele>1369.4560506334</ele>
        <time>2015-02-22T11:12:43Z</time>
      </trkpt>
      <trkpt lat="42.98772" lon="-0.7043">
        <ele>1369.4560506334</ele>
        <time>2015-02-22T11:12:47Z</time>
      </trkpt>
      <trkpt lat="42.98767" lon="-0.7043">
        <ele>1373.0929503653</ele>
        <time>2015-02-22T11:12:54Z</time>
      </trkpt>
      <trkpt lat="42.98763" lon="-0.7043">
        <ele>1373.0929503653</ele>
        <time>2015-02-22T11:12:58Z</time>
      </trkpt>
      <trkpt lat="42.98759" lon="-0.7043">
        <ele>1373.0929503653</ele>
        <time>2015-02-22T11:13:04Z</time>
      </trkpt>
      <trkpt lat="42.98757" lon="-0.7043">
        <ele>1376.4550225773</ele>
        <time>2015-02-22T11:13:07Z</time>
      </trkpt>
      <trkpt lat="42.98753" lon="-0.70431">
        <ele>1376.4550225773</ele>
        <time>2015-02-22T11:13:14Z</time>
      </trkpt>
      <trkpt lat="42.9875" lon="-0.70433">
        <ele>1376.4550225773</ele>
        <time>2015-02-22T11:13:19Z</time>
      </trkpt>
      <trkpt lat="42.98748" lon="-0.70434">
        <ele>1379.5730508031</ele>
        <time>2015-02-22T11:13:23Z</time>
      </trkpt>
      <trkpt lat="42.98744" lon="-0.70434">
        <ele>1379.5730508031</ele>
        <time>2015-02-22T11:13:28Z</time>
      </trkpt>
      <trkpt lat="42.98741" lon="-0.70437">
        <ele>1379.5730508031</ele>
        <time>2015-02-22T11:13:34Z</time>
      </trkpt>
      <trkpt lat="42.98737" lon="-0.70439">
        <ele>1382.4762829485</ele>
        <time>2015-02-22T11:13:38Z</time>
      </trkpt>
      <trkpt lat="42.98733" lon="-0.70442">
        <ele>1382.4762829485</ele>
        <time>2015-02-22T11:13:44Z</time>
      </trkpt>
      <trkpt lat="42.98731" lon="-0.70441">
        <ele>1382.4762829485</ele>
        <time>2015-02-22T11:13:47Z</time>
      </trkpt>
      <trkpt lat="42.98727" lon="-0.70441">
        <ele>1385.2357018969</ele>
        <time>2015-02-22T11:13:54Z</time>
      </trkpt>
      <trkpt lat="42.98725" lon="-0.70444">
        <ele>1385.2357018969</ele>
        <time>2015-02-22T11:13:59Z</time>
      </trkpt>
      <trkpt lat="42.98725" lon="-0.70444">
        <ele>1385.2357018969</ele>
        <time>2015-02-22T11:14:03Z</time>
      </trkpt>
      <trkpt lat="42.98718" lon="-0.70445">
        <ele>1387.8887091507</ele>
        <time>2015-02-22T11:14:14Z</time>
      </trkpt>
      <trkpt lat="42.98715" lon="-0.70447">
        <ele>1387.8887091507</ele>
        <time>2015-02-22T11:14:18Z</time>
      </trkpt>
      <trkpt lat="42.98712" lon="-0.70448">
        <ele>1387.8887091507</ele>
        <time>2015-02-22T11:14:23Z</time>
      </trkpt>
      <trkpt lat="42.98708" lon="-0.70449">
        <ele>1390.4559002501</ele>
        <time>2015-02-22T11:14:28Z</time>
      </trkpt>
      <trkpt lat="42.98705" lon="-0.70452">
        <ele>1390.4559002501</ele>
        <time>2015-02-22T11:14:34Z</time>
      </trkpt>
      <trkpt lat="42.98701" lon="-0.70453">
        <ele>1390.4559002501</ele>
        <time>2015-02-22T11:14:39Z</time>
      </trkpt>
      <trkpt lat="42.98699" lon="-0.70452">
        <ele>1392.9566536543</ele>
        <time>2015-02-22T11:14:43Z</time>
      </trkpt>
      <trkpt lat="42.98695" lon="-0.70454">
        <ele>1392.9566536543</ele>
        <time>2015-02-22T11:14:48Z</time>
      </trkpt>
      <trkpt lat="42.98691" lon="-0.70454">
        <ele>1392.9566536543</ele>
        <time>2015-02-22T11:14:54Z</time>
      </trkpt>
      <trkpt lat="42.98689" lon="-0.70454">
        <ele>1395.4812214797</ele>
        <time>2015-02-22T11:14:58Z</time>
      </trkpt>
      <trkpt lat="42.98687" lon="-0.70452">
        <ele>1395.4812214797</ele>
        <time>2015-02-22T11:15:04Z</time>
      </trkpt>
      <trkpt lat="42.98687" lon="-0.70452">
        <ele>1395.4812214797</ele>
        <time>2015-02-22T11:15:07Z</time>
      </trkpt>
      <trkpt lat="42.98678" lon="-0.70449">
        <ele>1398.185269806</ele>
        <time>2015-02-22T11:15:28Z</time>
      </trkpt>
      <trkpt lat="42.98674" lon="-0.70448">
        <ele>1398.185269806</ele>
        <time>2015-02-22T11:15:34Z</time>
      </trkpt>
      <trkpt lat="42.98671" lon="-0.70446">
        <ele>1398.185269806</ele>
        <time>2015-02-22T11:15:38Z</time>
      </trkpt>
      <trkpt lat="42.98669" lon="-0.70445">
        <ele>1400.8234805832</ele>
        <time>2015-02-22T11:15:44Z</time>
      </trkpt>
      <trkpt lat="42.98667" lon="-0.70446">
        <ele>1400.8234805832</ele>
        <time>2015-02-22T11:15:47Z</time>
      </trkpt>
      <trkpt lat="42.98662" lon="-0.70448">
        <ele>1400.8234805832</ele>
        <time>2015-02-22T11:15:54Z</time>
      </trkpt>
      <trkpt lat="42.98658" lon="-0.70449">
        <ele>1403.3993734904</ele>
        <time>2015-02-22T11:15:59Z</time>
      </trkpt>
      <trkpt lat="42.98655" lon="-0.7045">
        <ele>1403.3993734904</ele>
        <time>2015-02-22T11:16:03Z</time>
      </trkpt>
      <trkpt lat="42.98651" lon="-0.70449">
        <ele>1403.3993734904</ele>
        <time>2015-02-22T11:16:08Z</time>
      </trkpt>
      <trkpt lat="42.98648" lon="-0.70449">
        <ele>1405.9596716778</ele>
        <time>2015-02-22T11:16:14Z</time>
      </trkpt>
      <trkpt lat="42.98644" lon="-0.70449">
        <ele>1405.9596716778</ele>
        <time>2015-02-22T11:16:18Z</time>
      </trkpt>
      <trkpt lat="42.9864" lon="-0.70449">
        <ele>1405.9596716778</ele>
        <time>2015-02-22T11:16:24Z</time>
      </trkpt>
      <trkpt lat="42.98638" lon="-0.70449">
        <ele>1408.4612962779</ele>
        <time>2015-02-22T11:16:27Z</time>
      </trkpt>
      <trkpt lat="42.98634" lon="-0.70448">
        <ele>1408.4612962779</ele>
        <time>2015-02-22T11:16:34Z</time>
      </trkpt>
      <trkpt lat="42.98633" lon="-0.70446">
        <ele>1408.4612962779</ele>
        <time>2015-02-22T11:16:38Z</time>
      </trkpt>
      <trkpt lat="42.98633" lon="-0.70445">
        <ele>1408.4612962779</ele>
        <time>2015-02-22T11:16:43Z</time>
      </trkpt>
      <trkpt lat="42.98629" lon="-0.70451">
        <ele>1411.0518943276</ele>
        <time>2015-02-22T11:17:03Z</time>
      </trkpt>
      <trkpt lat="42.98627" lon="-0.7045">
        <ele>1411.0518943276</ele>
        <time>2015-02-22T11:17:07Z</time>
      </trkpt>
      <trkpt lat="42.98623" lon="-0.70451">
        <ele>1411.0518943276</ele>
        <time>2015-02-22T11:17:33Z</time>
      </trkpt>
      <trkpt lat="42.9862" lon="-0.7045">
        <ele>1413.8680686897</ele>
        <time>2015-02-22T11:17:39Z</time>
      </trkpt>
      <trkpt lat="42.9862" lon="-0.7045">
        <ele>1413.8680686897</ele>
        <time>2015-02-22T11:17:43Z</time>
      </trkpt>
      <trkpt lat="42.98616" lon="-0.7046">
        <ele>1413.8680686897</ele>
        <time>2015-02-22T11:18:13Z</time>
      </trkpt>
      <trkpt lat="42.98613" lon="-0.7046">
        <ele>1417.352851361</ele>
        <time>2015-02-22T11:18:19Z</time>
      </trkpt>
      <trkpt lat="42.98611" lon="-0.70459">
        <ele>1417.352851361</ele>
        <time>2015-02-22T11:18:23Z</time>
      </trkpt>
      <trkpt lat="42.98607" lon="-0.70458">
        <ele>1417.352851361</ele>
        <time>2015-02-22T11:18:27Z</time>
      </trkpt>
      <trkpt lat="42.98605" lon="-0.70458">
        <ele>1417.352851361</ele>
        <time>2015-02-22T11:18:34Z</time>
      </trkpt>
      <trkpt lat="42.98604" lon="-0.70461">
        <ele>1420.7331961264</ele>
        <time>2015-02-22T11:18:38Z</time>
      </trkpt>
      <trkpt lat="42.98603" lon="-0.70462">
        <ele>1420.7331961264</ele>
        <time>2015-02-22T11:18:43Z</time>
      </trkpt>
      <trkpt lat="42.98594" lon="-0.70458">
        <ele>1424.4604954254</ele>
        <time>2015-02-22T11:19:33Z</time>
      </trkpt>
      <trkpt lat="42.98591" lon="-0.70459">
        <ele>1424.4604954254</ele>
        <time>2015-02-22T11:19:38Z</time>
      </trkpt>
      <trkpt lat="42.98589" lon="-0.70461">
        <ele>1424.4604954254</ele>
        <time>2015-02-22T11:19:43Z</time>
      </trkpt>
      <trkpt lat="42.98586" lon="-0.70464">
        <ele>1427.8856491748</ele>
        <time>2015-02-22T11:19:48Z</time>
      </trkpt>
      <trkpt lat="42.98585" lon="-0.70468">
        <ele>1427.8856491748</ele>
        <time>2015-02-22T11:19:53Z</time>
      </trkpt>
      <trkpt lat="42.98583" lon="-0.7047">
        <ele>1427.8856491748</ele>
        <time>2015-02-22T11:19:58Z</time>
      </trkpt>
      <trkpt lat="42.98577" lon="-0.70481">
        <ele>1431.0566548542</ele>
        <time>2015-02-22T11:20:08Z</time>
      </trkpt>
      <trkpt lat="42.98575" lon="-0.70482">
        <ele>1431.0566548542</ele>
        <time>2015-02-22T11:20:13Z</time>
      </trkpt>
      <trkpt lat="42.98572" lon="-0.70484">
        <ele>1431.0566548542</ele>
        <time>2015-02-22T11:20:23Z</time>
      </trkpt>
      <trkpt lat="42.98571" lon="-0.70484">
        <ele>1431.0566548542</ele>
        <time>2015-02-22T11:20:28Z</time>
      </trkpt>
      <trkpt lat="42.98576" lon="-0.70475">
        <ele>1436.5263063008</ele>
        <time>2015-02-22T11:22:28Z</time>
      </trkpt>
      <trkpt lat="42.9858" lon="-0.70478">
        <ele>1436.5263063008</ele>
        <time>2015-02-22T11:23:12Z</time>
      </trkpt>
      <trkpt lat="42.98571" lon="-0.70482">
        <ele>1442.2581164628</ele>
        <time>2015-02-22T11:24:17Z</time>
      </trkpt>
      <trkpt lat="42.98569" lon="-0.70484">
        <ele>1442.2581164628</ele>
        <time>2015-02-22T11:24:22Z</time>
      </trkpt>
      <trkpt lat="42.98574" lon="-0.7048">
        <ele>1442.2581164628</ele>
        <time>2015-02-22T11:24:52Z</time>
      </trkpt>
      <trkpt lat="42.98573" lon="-0.7048">
        <ele>1442.2581164628</ele>
        <time>2015-02-22T11:24:57Z</time>
      </trkpt>
      <trkpt lat="42.9857" lon="-0.70478">
        <ele>1447.6183262983</ele>
        <time>2015-02-22T11:25:02Z</time>
      </trkpt>
      <trkpt lat="42.98569" lon="-0.70477">
        <ele>1447.6183262983</ele>
        <time>2015-02-22T11:25:08Z</time>
      </trkpt>
      <trkpt lat="42.98562" lon="-0.70468">
        <ele>1452.5973313259</ele>
        <time>2015-02-22T11:25:28Z</time>
      </trkpt>
      <trkpt lat="42.98561" lon="-0.70465">
        <ele>1452.5973313259</ele>
        <time>2015-02-22T11:25:33Z</time>
      </trkpt>
      <trkpt lat="42.9856" lon="-0.70464">
        <ele>1452.5973313259</ele>
        <time>2015-02-22T11:25:39Z</time>
      </trkpt>
      <trkpt lat="42.9855" lon="-0.70453">
        <ele>1457.5044739514</ele>
        <time>2015-02-22T11:25:59Z</time>
      </trkpt>
      <trkpt lat="42.98549" lon="-0.7045">
        <ele>1457.5044739514</ele>
        <time>2015-02-22T11:26:03Z</time>
      </trkpt>
      <trkpt lat="42.98543" lon="-0.7045">
        <ele>1457.5044739514</ele>
        <time>2015-02-22T11:26:28Z</time>
      </trkpt>
      <trkpt lat="42.98542" lon="-0.70453">
        <ele>1462.4970142287</ele>
        <time>2015-02-22T11:26:33Z</time>
      </trkpt>
      <trkpt lat="42.98541" lon="-0.70454">
        <ele>1462.4970142287</ele>
        <time>2015-02-22T11:26:38Z</time>
      </trkpt>
      <trkpt lat="42.98539" lon="-0.70456">
        <ele>1462.4970142287</ele>
        <time>2015-02-22T11:26:44Z</time>
      </trkpt>
      <trkpt lat="42.98538" lon="-0.70459">
        <ele>1462.4970142287</ele>
        <time>2015-02-22T11:26:48Z</time>
      </trkpt>
      <trkpt lat="42.98536" lon="-0.70465">
        <ele>1467.2161811961</ele>
        <time>2015-02-22T11:26:54Z</time>
      </trkpt>
      <trkpt lat="42.98531" lon="-0.70474">
        <ele>1467.2161811961</ele>
        <time>2015-02-22T11:27:14Z</time>
      </trkpt>
      <trkpt lat="42.98529" lon="-0.7048">
        <ele>1471.8348722684</ele>
        <time>2015-02-22T11:27:18Z</time>
      </trkpt>
      <trkpt lat="42.9853" lon="-0.70481">
        <ele>1471.8348722684</ele>
        <time>2015-02-22T11:27:23Z</time>
      </trkpt>
      <trkpt lat="42.98526" lon="-0.70485">
        <ele>1471.8348722684</ele>
        <time>2015-02-22T11:27:38Z</time>
      </trkpt>
      <trkpt lat="42.98523" lon="-0.70489">
        <ele>1476.2831506826</ele>
        <time>2015-02-22T11:27:44Z</time>
      </trkpt>
      <trkpt lat="42.98521" lon="-0.70492">
        <ele>1476.2831506826</ele>
        <time>2015-02-22T11:27:48Z</time>
      </trkpt>
      <trkpt lat="42.9852" lon="-0.70495">
        <ele>1476.2831506826</ele>
        <time>2015-02-22T11:27:52Z</time>
      </trkpt>
      <trkpt lat="42.98517" lon="-0.70499">
        <ele>1480.3815721675</ele>
        <time>2015-02-22T11:27:59Z</time>
      </trkpt>
      <trkpt lat="42.98516" lon="-0.70502">
        <ele>1480.3815721675</ele>
        <time>2015-02-22T11:28:03Z</time>
      </trkpt>
      <trkpt lat="42.98514" lon="-0.70504">
        <ele>1480.3815721675</ele>
        <time>2015-02-22T11:28:07Z</time>
      </trkpt>
      <trkpt lat="42.98512" lon="-0.70509">
        <ele>1484.1379553923</ele>
        <time>2015-02-22T11:28:14Z</time>
      </trkpt>
      <trkpt lat="42.98512" lon="-0.70511">
        <ele>1484.1379553923</ele>
        <time>2015-02-22T11:28:17Z</time>
      </trkpt>
      <trkpt lat="42.9851" lon="-0.70514">
        <ele>1484.1379553923</ele>
        <time>2015-02-22T11:28:24Z</time>
      </trkpt>
      <trkpt lat="42.9851" lon="-0.70515">
        <ele>1484.1379553923</ele>
        <time>2015-02-22T11:28:27Z</time>
      </trkpt>
      <trkpt lat="42.98509" lon="-0.70519">
        <ele>1484.1379553923</ele>
        <time>2015-02-22T11:28:34Z</time>
      </trkpt>
      <trkpt lat="42.98507" lon="-0.70522">
        <ele>1487.7768351308</ele>
        <time>2015-02-22T11:28:38Z</time>
      </trkpt>
      <trkpt lat="42.98507" lon="-0.70526">
        <ele>1487.7768351308</ele>
        <time>2015-02-22T11:28:43Z</time>
      </trkpt>
      <trkpt lat="42.98506" lon="-0.70529">
        <ele>1487.7768351308</ele>
        <time>2015-02-22T11:28:48Z</time>
      </trkpt>
      <trkpt lat="42.98504" lon="-0.70532">
        <ele>1487.7768351308</ele>
        <time>2015-02-22T11:28:53Z</time>
      </trkpt>
      <trkpt lat="42.98503" lon="-0.70536">
        <ele>1491.2905746618</ele>
        <time>2015-02-22T11:28:58Z</time>
      </trkpt>
      <trkpt lat="42.98503" lon="-0.70536">
        <ele>1491.2905746618</ele>
        <time>2015-02-22T11:29:03Z</time>
      </trkpt>
      <trkpt lat="42.985" lon="-0.70543">
        <ele>1491.2905746618</ele>
        <time>2015-02-22T11:29:08Z</time>
      </trkpt>
      <trkpt lat="42.98498" lon="-0.70547">
        <ele>1494.5573136685</ele>
        <time>2015-02-22T11:29:14Z</time>
      </trkpt>
      <trkpt lat="42.98496" lon="-0.70549">
        <ele>1494.5573136685</ele>
        <time>2015-02-22T11:29:18Z</time>
      </trkpt>
      <trkpt lat="42.98494" lon="-0.70553">
        <ele>1494.5573136685</ele>
        <time>2015-02-22T11:29:24Z</time>
      </trkpt>
      <trkpt lat="42.98493" lon="-0.70557">
        <ele>1497.5946816978</ele>
        <time>2015-02-22T11:29:27Z</time>
      </trkpt>
      <trkpt lat="42.98491" lon="-0.7056">
        <ele>1497.5946816978</ele>
        <time>2015-02-22T11:29:34Z</time>
      </trkpt>
      <trkpt lat="42.98491" lon="-0.70562">
        <ele>1497.5946816978</ele>
        <time>2015-02-22T11:29:39Z</time>
      </trkpt>
      <trkpt lat="42.9849" lon="-0.70564">
        <ele>1497.5946816978</ele>
        <time>2015-02-22T11:29:44Z</time>
      </trkpt>
      <trkpt lat="42.98487" lon="-0.70574">
        <ele>1500.4918479353</ele>
        <time>2015-02-22T11:29:53Z</time>
      </trkpt>
      <trkpt lat="42.98485" lon="-0.70578">
        <ele>1500.4918479353</ele>
        <time>2015-02-22T11:29:58Z</time>
      </trkpt>
      <trkpt lat="42.98481" lon="-0.70583">
        <ele>1500.4918479353</ele>
        <time>2015-02-22T11:30:04Z</time>
      </trkpt>
      <trkpt lat="42.9848" lon="-0.70585">
        <ele>1503.0725490944</ele>
        <time>2015-02-22T11:30:08Z</time>
      </trkpt>
      <trkpt lat="42.98478" lon="-0.70588">
        <ele>1503.0725490944</ele>
        <time>2015-02-22T11:30:14Z</time>
      </trkpt>
      <trkpt lat="42.98475" lon="-0.70588">
        <ele>1503.0725490944</ele>
        <time>2015-02-22T11:30:19Z</time>
      </trkpt>
      <trkpt lat="42.98474" lon="-0.70589">
        <ele>1503.0725490944</ele>
        <time>2015-02-22T11:30:23Z</time>
      </trkpt>
      <trkpt lat="42.98472" lon="-0.70592">
        <ele>1505.4771035797</ele>
        <time>2015-02-22T11:30:28Z</time>
      </trkpt>
      <trkpt lat="42.98471" lon="-0.70592">
        <ele>1505.4771035797</ele>
        <time>2015-02-22T11:30:34Z</time>
      </trkpt>
      <trkpt lat="42.9847" lon="-0.70592">
        <ele>1505.4771035797</ele>
        <time>2015-02-22T11:30:38Z</time>
      </trkpt>
      <trkpt lat="42.98467" lon="-0.70595">
        <ele>1505.4771035797</ele>
        <time>2015-02-22T11:30:48Z</time>
      </trkpt>
      <trkpt lat="42.98466" lon="-0.70595">
        <ele>1505.4771035797</ele>
        <time>2015-02-22T11:30:54Z</time>
      </trkpt>
      <trkpt lat="42.98461" lon="-0.70585">
        <ele>1508.7151948177</ele>
        <time>2015-02-22T11:31:33Z</time>
      </trkpt>
      <trkpt lat="42.9846" lon="-0.70583">
        <ele>1508.7151948177</ele>
        <time>2015-02-22T11:31:38Z</time>
      </trkpt>
      <trkpt lat="42.98459" lon="-0.70577">
        <ele>1508.7151948177</ele>
        <time>2015-02-22T11:31:43Z</time>
      </trkpt>
      <trkpt lat="42.98458" lon="-0.70577">
        <ele>1508.7151948177</ele>
        <time>2015-02-22T11:31:48Z</time>
      </trkpt>
      <trkpt lat="42.98456" lon="-0.70564">
        <ele>1511.9331078716</ele>
        <time>2015-02-22T11:31:58Z</time>
      </trkpt>
      <trkpt lat="42.98455" lon="-0.70561">
        <ele>1511.9331078716</ele>
        <time>2015-02-22T11:32:03Z</time>
      </trkpt>
      <trkpt lat="42.98451" lon="-0.70564">
        <ele>1511.9331078716</ele>
        <time>2015-02-22T11:32:13Z</time>
      </trkpt>
      <trkpt lat="42.98451" lon="-0.70563">
        <ele>1511.9331078716</ele>
        <time>2015-02-22T11:32:19Z</time>
      </trkpt>
      <trkpt lat="42.98444" lon="-0.70574">
        <ele>1515.6946230852</ele>
        <time>2015-02-22T11:33:03Z</time>
      </trkpt>
      <trkpt lat="42.98444" lon="-0.70575">
        <ele>1515.6946230852</ele>
        <time>2015-02-22T11:33:08Z</time>
      </trkpt>
      <trkpt lat="42.98443" lon="-0.70567">
        <ele>1515.6946230852</ele>
        <time>2015-02-22T11:33:19Z</time>
      </trkpt>
      <trkpt lat="42.98442" lon="-0.70566">
        <ele>1515.6946230852</ele>
        <time>2015-02-22T11:33:23Z</time>
      </trkpt>
      <trkpt lat="42.98442" lon="-0.70562">
        <ele>1519.2812985267</ele>
        <time>2015-02-22T11:33:34Z</time>
      </trkpt>
      <trkpt lat="42.98439" lon="-0.70559">
        <ele>1519.2812985267</ele>
        <time>2015-02-22T11:33:43Z</time>
      </trkpt>
      <trkpt lat="42.98438" lon="-0.70562">
        <ele>1519.2812985267</ele>
        <time>2015-02-22T11:33:48Z</time>
      </trkpt>
      <trkpt lat="42.98437" lon="-0.70563">
        <ele>1519.2812985267</ele>
        <time>2015-02-22T11:33:54Z</time>
      </trkpt>
      <trkpt lat="42.9843" lon="-0.70571">
        <ele>1522.9215177208</ele>
        <time>2015-02-22T11:34:44Z</time>
      </trkpt>
      <trkpt lat="42.98424" lon="-0.7058">
        <ele>1522.9215177208</ele>
        <time>2015-02-22T11:34:47Z</time>
      </trkpt>
      <trkpt lat="42.98424" lon="-0.70581">
        <ele>1526.3080024667</ele>
        <time>2015-02-22T11:34:54Z</time>
      </trkpt>
      <trkpt lat="42.98424" lon="-0.70576">
        <ele>1526.3080024667</ele>
        <time>2015-02-22T11:35:03Z</time>
      </trkpt>
      <trkpt lat="42.98425" lon="-0.70572">
        <ele>1526.3080024667</ele>
        <time>2015-02-22T11:35:08Z</time>
      </trkpt>
      <trkpt lat="42.98425" lon="-0.70565">
        <ele>1529.7188544585</ele>
        <time>2015-02-22T11:35:14Z</time>
      </trkpt>
      <trkpt lat="42.98424" lon="-0.70559">
        <ele>1529.7188544585</ele>
        <time>2015-02-22T11:35:19Z</time>
      </trkpt>
      <trkpt lat="42.98423" lon="-0.70553">
        <ele>1532.734412676</ele>
        <time>2015-02-22T11:35:24Z</time>
      </trkpt>
      <trkpt lat="42.98421" lon="-0.70552">
        <ele>1532.734412676</ele>
        <time>2015-02-22T11:35:27Z</time>
      </trkpt>
      <trkpt lat="42.98416" lon="-0.70558">
        <ele>1535.4569823557</ele>
        <time>2015-02-22T11:35:39Z</time>
      </trkpt>
      <trkpt lat="42.98414" lon="-0.7056">
        <ele>1535.4569823557</ele>
        <time>2015-02-22T11:35:44Z</time>
      </trkpt>
      <trkpt lat="42.98406" lon="-0.70563">
        <ele>1538.1263305771</ele>
        <time>2015-02-22T11:36:19Z</time>
      </trkpt>
      <trkpt lat="42.98405" lon="-0.70561">
        <ele>1538.1263305771</ele>
        <time>2015-02-22T11:36:23Z</time>
      </trkpt>
      <trkpt lat="42.98403" lon="-0.70559">
        <ele>1538.1263305771</ele>
        <time>2015-02-22T11:36:28Z</time>
      </trkpt>
      <trkpt lat="42.98403" lon="-0.70558">
        <ele>1538.1263305771</ele>
        <time>2015-02-22T11:36:34Z</time>
      </trkpt>
      <trkpt lat="42.98401" lon="-0.70545">
        <ele>1541.6132979933</ele>
        <time>2015-02-22T11:37:04Z</time>
      </trkpt>
      <trkpt lat="42.984" lon="-0.70544">
        <ele>1541.6132979933</ele>
        <time>2015-02-22T11:37:07Z</time>
      </trkpt>
      <trkpt lat="42.98398" lon="-0.70536">
        <ele>1541.6132979933</ele>
        <time>2015-02-22T11:37:34Z</time>
      </trkpt>
      <trkpt lat="42.98398" lon="-0.70535">
        <ele>1541.6132979933</ele>
        <time>2015-02-22T11:37:38Z</time>
      </trkpt>
      <trkpt lat="42.98396" lon="-0.70533">
        <ele>1544.9499231225</ele>
        <time>2015-02-22T11:37:43Z</time>
      </trkpt>
      <trkpt lat="42.98394" lon="-0.70535">
        <ele>1544.9499231225</ele>
        <time>2015-02-22T11:37:48Z</time>
      </trkpt>
      <trkpt lat="42.9839" lon="-0.70537">
        <ele>1544.9499231225</ele>
        <time>2015-02-22T11:37:54Z</time>
      </trkpt>
      <trkpt lat="42.98387" lon="-0.70539">
        <ele>1547.9027076908</ele>
        <time>2015-02-22T11:37:59Z</time>
      </trkpt>
      <trkpt lat="42.98386" lon="-0.70539">
        <ele>1547.9027076908</ele>
        <time>2015-02-22T11:38:04Z</time>
      </trkpt>
      <trkpt lat="42.98382" lon="-0.70528">
        <ele>1550.7175575689</ele>
        <time>2015-02-22T11:38:28Z</time>
      </trkpt>
      <trkpt lat="42.9838" lon="-0.70528">
        <ele>1550.7175575689</ele>
        <time>2015-02-22T11:38:35Z</time>
      </trkpt>
      <trkpt lat="42.9838" lon="-0.70528">
        <ele>1550.7175575689</ele>
        <time>2015-02-22T11:38:38Z</time>
      </trkpt>
      <trkpt lat="42.98379" lon="-0.70528">
        <ele>1550.7175575689</ele>
        <time>2015-02-22T11:38:43Z</time>
      </trkpt>
      <trkpt lat="42.98378" lon="-0.70533">
        <ele>1550.7175575689</ele>
        <time>2015-02-22T11:40:14Z</time>
      </trkpt>
      <trkpt lat="42.98378" lon="-0.70534">
        <ele>1550.7175575689</ele>
        <time>2015-02-22T11:40:19Z</time>
      </trkpt>
      <trkpt lat="42.9837" lon="-0.70534">
        <ele>1554.2568057971</ele>
        <time>2015-02-22T11:40:44Z</time>
      </trkpt>
      <trkpt lat="42.98369" lon="-0.70532">
        <ele>1554.2568057971</ele>
        <time>2015-02-22T11:40:47Z</time>
      </trkpt>
      <trkpt lat="42.98368" lon="-0.70529">
        <ele>1554.2568057971</ele>
        <time>2015-02-22T11:40:54Z</time>
      </trkpt>
      <trkpt lat="42.98366" lon="-0.70525">
        <ele>1554.2568057971</ele>
        <time>2015-02-22T11:40:59Z</time>
      </trkpt>
      <trkpt lat="42.98364" lon="-0.70523">
        <ele>1557.6169060725</ele>
        <time>2015-02-22T11:41:02Z</time>
      </trkpt>
      <trkpt lat="42.98364" lon="-0.70521">
        <ele>1557.6169060725</ele>
        <time>2015-02-22T11:41:07Z</time>
      </trkpt>
      <trkpt lat="42.98363" lon="-0.70519">
        <ele>1557.6169060725</ele>
        <time>2015-02-22T11:41:14Z</time>
      </trkpt>
      <trkpt lat="42.98355" lon="-0.70523">
        <ele>1561.1140858531</ele>
        <time>2015-02-22T11:41:35Z</time>
      </trkpt>
      <trkpt lat="42.98351" lon="-0.7052">
        <ele>1561.1140858531</ele>
        <time>2015-02-22T11:41:47Z</time>
      </trkpt>
      <trkpt lat="42.98352" lon="-0.70522">
        <ele>1561.1140858531</ele>
        <time>2015-02-22T11:41:54Z</time>
      </trkpt>
      <trkpt lat="42.98344" lon="-0.70526">
        <ele>1564.6518640963</ele>
        <time>2015-02-22T11:42:14Z</time>
      </trkpt>
      <trkpt lat="42.98342" lon="-0.70524">
        <ele>1564.6518640963</ele>
        <time>2015-02-22T11:42:19Z</time>
      </trkpt>
      <trkpt lat="42.98341" lon="-0.70522">
        <ele>1564.6518640963</ele>
        <time>2015-02-22T11:42:23Z</time>
      </trkpt>
      <trkpt lat="42.98341" lon="-0.70518">
        <ele>1564.6518640963</ele>
        <time>2015-02-22T11:42:28Z</time>
      </trkpt>
      <trkpt lat="42.9834" lon="-0.70516">
        <ele>1568.0830940159</ele>
        <time>2015-02-22T11:42:34Z</time>
      </trkpt>
      <trkpt lat="42.9834" lon="-0.70514">
        <ele>1568.0830940159</ele>
        <time>2015-02-22T11:42:38Z</time>
      </trkpt>
      <trkpt lat="42.98336" lon="-0.7051">
        <ele>1568.0830940159</ele>
        <time>2015-02-22T11:42:54Z</time>
      </trkpt>
      <trkpt lat="42.98335" lon="-0.70514">
        <ele>1568.0830940159</ele>
        <time>2015-02-22T11:42:59Z</time>
      </trkpt>
      <trkpt lat="42.98334" lon="-0.70516">
        <ele>1571.4590857509</ele>
        <time>2015-02-22T11:43:03Z</time>
      </trkpt>
      <trkpt lat="42.98334" lon="-0.7052">
        <ele>1571.4590857509</ele>
        <time>2015-02-22T11:43:08Z</time>
      </trkpt>
      <trkpt lat="42.98332" lon="-0.70524">
        <ele>1571.4590857509</ele>
        <time>2015-02-22T11:43:14Z</time>
      </trkpt>
      <trkpt lat="42.9833" lon="-0.70528">
        <ele>1574.4528487393</ele>
        <time>2015-02-22T11:43:18Z</time>
      </trkpt>
      <trkpt lat="42.98327" lon="-0.70531">
        <ele>1574.4528487393</ele>
        <time>2015-02-22T11:43:24Z</time>
      </trkpt>
      <trkpt lat="42.98326" lon="-0.70534">
        <ele>1574.4528487393</ele>
        <time>2015-02-22T11:43:27Z</time>
      </trkpt>
      <trkpt lat="42.98326" lon="-0.70538">
        <ele>1574.4528487393</ele>
        <time>2015-02-22T11:43:34Z</time>
      </trkpt>
      <trkpt lat="42.98325" lon="-0.7054">
        <ele>1577.2092297282</ele>
        <time>2015-02-22T11:43:38Z</time>
      </trkpt>
      <trkpt lat="42.98325" lon="-0.70541">
        <ele>1577.2092297282</ele>
        <time>2015-02-22T11:43:43Z</time>
      </trkpt>
      <trkpt lat="42.98324" lon="-0.70544">
        <ele>1577.2092297282</ele>
        <time>2015-02-22T11:43:48Z</time>
      </trkpt>
      <trkpt lat="42.98321" lon="-0.70547">
        <ele>1577.2092297282</ele>
        <time>2015-02-22T11:43:54Z</time>
      </trkpt>
      <trkpt lat="42.98319" lon="-0.70551">
        <ele>1579.8342746233</ele>
        <time>2015-02-22T11:43:58Z</time>
      </trkpt>
      <trkpt lat="42.98318" lon="-0.70555">
        <ele>1579.8342746233</ele>
        <time>2015-02-22T11:44:03Z</time>
      </trkpt>
      <trkpt lat="42.98317" lon="-0.70557">
        <ele>1579.8342746233</ele>
        <time>2015-02-22T11:44:08Z</time>
      </trkpt>
      <trkpt lat="42.98316" lon="-0.7056">
        <ele>1579.8342746233</ele>
        <time>2015-02-22T11:44:14Z</time>
      </trkpt>
      <trkpt lat="42.98316" lon="-0.70564">
        <ele>1582.4265982111</ele>
        <time>2015-02-22T11:44:18Z</time>
      </trkpt>
      <trkpt lat="42.98316" lon="-0.70566">
        <ele>1582.4265982111</ele>
        <time>2015-02-22T11:44:23Z</time>
      </trkpt>
      <trkpt lat="42.98317" lon="-0.70567">
        <ele>1582.4265982111</ele>
        <time>2015-02-22T11:44:27Z</time>
      </trkpt>
      <trkpt lat="42.98314" lon="-0.70575">
        <ele>1584.775013346</ele>
        <time>2015-02-22T11:44:44Z</time>
      </trkpt>
      <trkpt lat="42.98313" lon="-0.70578">
        <ele>1584.775013346</ele>
        <time>2015-02-22T11:44:47Z</time>
      </trkpt>
      <trkpt lat="42.98309" lon="-0.70578">
        <ele>1584.775013346</ele>
        <time>2015-02-22T11:44:53Z</time>
      </trkpt>
      <trkpt lat="42.98307" lon="-0.70584">
        <ele>1586.9871408918</ele>
        <time>2015-02-22T11:44:59Z</time>
      </trkpt>
      <trkpt lat="42.98305" lon="-0.70584">
        <ele>1586.9871408918</ele>
        <time>2015-02-22T11:45:03Z</time>
      </trkpt>
      <trkpt lat="42.98304" lon="-0.70584">
        <ele>1586.9871408918</ele>
        <time>2015-02-22T11:45:08Z</time>
      </trkpt>
      <trkpt lat="42.983" lon="-0.70582">
        <ele>1586.9871408918</ele>
        <time>2015-02-22T11:45:13Z</time>
      </trkpt>
      <trkpt lat="42.98298" lon="-0.70581">
        <ele>1589.0333470044</ele>
        <time>2015-02-22T11:45:19Z</time>
      </trkpt>
      <trkpt lat="42.98292" lon="-0.7057">
        <ele>1591.0018895615</ele>
        <time>2015-02-22T11:45:43Z</time>
      </trkpt>
      <trkpt lat="42.98291" lon="-0.70569">
        <ele>1591.0018895615</ele>
        <time>2015-02-22T11:45:48Z</time>
      </trkpt>
      <trkpt lat="42.98291" lon="-0.7057">
        <ele>1591.0018895615</ele>
        <time>2015-02-22T11:45:53Z</time>
      </trkpt>
      <trkpt lat="42.98291" lon="-0.70571">
        <ele>1591.0018895615</ele>
        <time>2015-02-22T11:45:58Z</time>
      </trkpt>
      <trkpt lat="42.98295" lon="-0.70575">
        <ele>1591.0018895615</ele>
        <time>2015-02-22T11:46:03Z</time>
      </trkpt>
      <trkpt lat="42.98294" lon="-0.70577">
        <ele>1593.075590755</ele>
        <time>2015-02-22T11:46:07Z</time>
      </trkpt>
      <trkpt lat="42.98292" lon="-0.7059">
        <ele>1595.3514363425</ele>
        <time>2015-02-22T11:46:39Z</time>
      </trkpt>
      <trkpt lat="42.98292" lon="-0.7059">
        <ele>1595.3514363425</ele>
        <time>2015-02-22T11:46:43Z</time>
      </trkpt>
      <trkpt lat="42.98293" lon="-0.70599">
        <ele>1595.3514363425</ele>
        <time>2015-02-22T11:46:54Z</time>
      </trkpt>
      <trkpt lat="42.98292" lon="-0.70601">
        <ele>1595.3514363425</ele>
        <time>2015-02-22T11:46:58Z</time>
      </trkpt>
      <trkpt lat="42.98283" lon="-0.70614">
        <ele>1597.9907139009</ele>
        <time>2015-02-22T11:47:07Z</time>
      </trkpt>
      <trkpt lat="42.98281" lon="-0.70614">
        <ele>1597.9907139009</ele>
        <time>2015-02-22T11:47:13Z</time>
      </trkpt>
      <trkpt lat="42.98276" lon="-0.70614">
        <ele>1597.9907139009</ele>
        <time>2015-02-22T11:47:19Z</time>
      </trkpt>
      <trkpt lat="42.98275" lon="-0.70612">
        <ele>1597.9907139009</ele>
        <time>2015-02-22T11:47:23Z</time>
      </trkpt>
      <trkpt lat="42.98268" lon="-0.70609">
        <ele>1601.1129551615</ele>
        <time>2015-02-22T11:47:52Z</time>
      </trkpt>
      <trkpt lat="42.98265" lon="-0.70606">
        <ele>1601.1129551615</ele>
        <time>2015-02-22T11:47:59Z</time>
      </trkpt>
      <trkpt lat="42.98263" lon="-0.70602">
        <ele>1601.1129551615</ele>
        <time>2015-02-22T11:48:03Z</time>
      </trkpt>
      <trkpt lat="42.98263" lon="-0.70597">
        <ele>1604.3086888276</ele>
        <time>2015-02-22T11:48:08Z</time>
      </trkpt>
      <trkpt lat="42.98265" lon="-0.70611">
        <ele>1607.8323405503</ele>
        <time>2015-02-22T11:48:54Z</time>
      </trkpt>
      <trkpt lat="42.98264" lon="-0.70614">
        <ele>1607.8323405503</ele>
        <time>2015-02-22T11:49:00Z</time>
      </trkpt>
      <trkpt lat="42.98256" lon="-0.70618">
        <ele>1611.212519434</ele>
        <time>2015-02-22T11:49:13Z</time>
      </trkpt>
      <trkpt lat="42.98255" lon="-0.70617">
        <ele>1611.212519434</ele>
        <time>2015-02-22T11:49:19Z</time>
      </trkpt>
      <trkpt lat="42.9825" lon="-0.70626">
        <ele>1614.5892526311</ele>
        <time>2015-02-22T11:49:44Z</time>
      </trkpt>
      <trkpt lat="42.9825" lon="-0.70629">
        <ele>1614.5892526311</ele>
        <time>2015-02-22T11:49:47Z</time>
      </trkpt>
      <trkpt lat="42.98248" lon="-0.70634">
        <ele>1614.5892526311</ele>
        <time>2015-02-22T11:49:53Z</time>
      </trkpt>
      <trkpt lat="42.98246" lon="-0.70638">
        <ele>1617.7751935789</ele>
        <time>2015-02-22T11:49:58Z</time>
      </trkpt>
      <trkpt lat="42.98244" lon="-0.7064">
        <ele>1617.7751935789</ele>
        <time>2015-02-22T11:50:03Z</time>
      </trkpt>
      <trkpt lat="42.9824" lon="-0.70643">
        <ele>1617.7751935789</ele>
        <time>2015-02-22T11:50:24Z</time>
      </trkpt>
      <trkpt lat="42.9824" lon="-0.70643">
        <ele>1617.7751935789</ele>
        <time>2015-02-22T11:50:27Z</time>
      </trkpt>
      <trkpt lat="42.98234" lon="-0.70642">
        <ele>1621.3466239399</ele>
        <time>2015-02-22T11:50:39Z</time>
      </trkpt>
      <trkpt lat="42.98232" lon="-0.70642">
        <ele>1621.3466239399</ele>
        <time>2015-02-22T11:50:42Z</time>
      </trkpt>
      <trkpt lat="42.9823" lon="-0.70639">
        <ele>1621.3466239399</ele>
        <time>2015-02-22T11:50:48Z</time>
      </trkpt>
      <trkpt lat="42.98231" lon="-0.70637">
        <ele>1621.3466239399</ele>
        <time>2015-02-22T11:50:54Z</time>
      </trkpt>
      <trkpt lat="42.98229" lon="-0.70625">
        <ele>1625.2022793215</ele>
        <time>2015-02-22T11:51:04Z</time>
      </trkpt>
      <trkpt lat="42.9823" lon="-0.70625">
        <ele>1625.2022793215</ele>
        <time>2015-02-22T11:51:07Z</time>
      </trkpt>
      <trkpt lat="42.98223" lon="-0.70621">
        <ele>1625.2022793215</ele>
        <time>2015-02-22T11:51:34Z</time>
      </trkpt>
      <trkpt lat="42.98222" lon="-0.7062">
        <ele>1625.2022793215</ele>
        <time>2015-02-22T11:51:38Z</time>
      </trkpt>
      <trkpt lat="42.98219" lon="-0.70619">
        <ele>1629.478078974</ele>
        <time>2015-02-22T11:52:08Z</time>
      </trkpt>
      <trkpt lat="42.98218" lon="-0.7062">
        <ele>1629.478078974</ele>
        <time>2015-02-22T11:52:14Z</time>
      </trkpt>
      <trkpt lat="42.98215" lon="-0.70623">
        <ele>1629.478078974</ele>
        <time>2015-02-22T11:52:18Z</time>
      </trkpt>
      <trkpt lat="42.98214" lon="-0.70623">
        <ele>1629.478078974</ele>
        <time>2015-02-22T11:52:24Z</time>
      </trkpt>
      <trkpt lat="42.98211" lon="-0.70628">
        <ele>1634.3419853898</ele>
        <time>2015-02-22T11:54:32Z</time>
      </trkpt>
      <trkpt lat="42.98209" lon="-0.70635">
        <ele>1634.3419853898</ele>
        <time>2015-02-22T11:54:37Z</time>
      </trkpt>
      <trkpt lat="42.98208" lon="-0.70636">
        <ele>1634.3419853898</ele>
        <time>2015-02-22T11:54:42Z</time>
      </trkpt>
      <trkpt lat="42.98205" lon="-0.7064">
        <ele>1638.7518333566</ele>
        <time>2015-02-22T11:54:47Z</time>
      </trkpt>
      <trkpt lat="42.98201" lon="-0.70645">
        <ele>1638.7518333566</ele>
        <time>2015-02-22T11:54:52Z</time>
      </trkpt>
      <trkpt lat="42.98198" lon="-0.70644">
        <ele>1638.7518333566</ele>
        <time>2015-02-22T11:54:57Z</time>
      </trkpt>
      <trkpt lat="42.98195" lon="-0.7064">
        <ele>1643.0402830257</ele>
        <time>2015-02-22T11:55:02Z</time>
      </trkpt>
      <trkpt lat="42.98192" lon="-0.70637">
        <ele>1643.0402830257</ele>
        <time>2015-02-22T11:55:07Z</time>
      </trkpt>
      <trkpt lat="42.98192" lon="-0.70635">
        <ele>1643.0402830257</ele>
        <time>2015-02-22T11:55:13Z</time>
      </trkpt>
      <trkpt lat="42.98188" lon="-0.7063">
        <ele>1647.2997363991</ele>
        <time>2015-02-22T11:55:28Z</time>
      </trkpt>
      <trkpt lat="42.98186" lon="-0.70629">
        <ele>1647.2997363991</ele>
        <time>2015-02-22T11:55:33Z</time>
      </trkpt>
      <trkpt lat="42.98183" lon="-0.70628">
        <ele>1647.2997363991</ele>
        <time>2015-02-22T11:55:37Z</time>
      </trkpt>
      <trkpt lat="42.9818" lon="-0.70626">
        <ele>1647.2997363991</ele>
        <time>2015-02-22T11:55:43Z</time>
      </trkpt>
      <trkpt lat="42.98176" lon="-0.70627">
        <ele>1651.3276809256</ele>
        <time>2015-02-22T11:55:48Z</time>
      </trkpt>
      <trkpt lat="42.98175" lon="-0.70629">
        <ele>1651.3276809256</ele>
        <time>2015-02-22T11:55:53Z</time>
      </trkpt>
      <trkpt lat="42.98175" lon="-0.70631">
        <ele>1651.3276809256</ele>
        <time>2015-02-22T11:55:58Z</time>
      </trkpt>
      <trkpt lat="42.98176" lon="-0.70638">
        <ele>1651.3276809256</ele>
        <time>2015-02-22T11:56:14Z</time>
      </trkpt>
      <trkpt lat="42.98175" lon="-0.7064">
        <ele>1655.1533177891</ele>
        <time>2015-02-22T11:56:21Z</time>
      </trkpt>
      <trkpt lat="42.98175" lon="-0.70639">
        <ele>1655.1533177891</ele>
        <time>2015-02-22T11:56:22Z</time>
      </trkpt>
      <trkpt lat="42.98171" lon="-0.70645">
        <ele>1655.1533177891</ele>
        <time>2015-02-22T11:56:28Z</time>
      </trkpt>
      <trkpt lat="42.98169" lon="-0.70649">
        <ele>1658.6457741155</ele>
        <time>2015-02-22T11:56:33Z</time>
      </trkpt>
      <trkpt lat="42.98168" lon="-0.70655">
        <ele>1658.6457741155</ele>
        <time>2015-02-22T11:56:38Z</time>
      </trkpt>
      <trkpt lat="42.98167" lon="-0.70658">
        <ele>1658.6457741155</ele>
        <time>2015-02-22T11:56:44Z</time>
      </trkpt>
      <trkpt lat="42.98165" lon="-0.70662">
        <ele>1661.9585651545</ele>
        <time>2015-02-22T11:56:47Z</time>
      </trkpt>
      <trkpt lat="42.98163" lon="-0.70663">
        <ele>1661.9585651545</ele>
        <time>2015-02-22T11:56:52Z</time>
      </trkpt>
      <trkpt lat="42.9816" lon="-0.7066">
        <ele>1661.9585651545</ele>
        <time>2015-02-22T11:56:57Z</time>
      </trkpt>
      <trkpt lat="42.98156" lon="-0.70655">
        <ele>1665.2200508877</ele>
        <time>2015-02-22T11:57:04Z</time>
      </trkpt>
      <trkpt lat="42.98153" lon="-0.70651">
        <ele>1665.2200508877</ele>
        <time>2015-02-22T11:57:09Z</time>
      </trkpt>
      <trkpt lat="42.98151" lon="-0.70647">
        <ele>1665.2200508877</ele>
        <time>2015-02-22T11:57:12Z</time>
      </trkpt>
      <trkpt lat="42.98148" lon="-0.70645">
        <ele>1668.376400438</ele>
        <time>2015-02-22T11:57:19Z</time>
      </trkpt>
      <trkpt lat="42.98144" lon="-0.7064">
        <ele>1668.376400438</ele>
        <time>2015-02-22T11:57:43Z</time>
      </trkpt>
      <trkpt lat="42.98142" lon="-0.70637">
        <ele>1668.376400438</ele>
        <time>2015-02-22T11:57:49Z</time>
      </trkpt>
      <trkpt lat="42.9814" lon="-0.70636">
        <ele>1671.5654025199</ele>
        <time>2015-02-22T11:57:52Z</time>
      </trkpt>
      <trkpt lat="42.98139" lon="-0.70637">
        <ele>1671.5654025199</ele>
        <time>2015-02-22T11:57:58Z</time>
      </trkpt>
      <trkpt lat="42.98139" lon="-0.70642">
        <ele>1671.5654025199</ele>
        <time>2015-02-22T11:58:03Z</time>
      </trkpt>
      <trkpt lat="42.98138" lon="-0.70647">
        <ele>1671.5654025199</ele>
        <time>2015-02-22T11:58:08Z</time>
      </trkpt>
      <trkpt lat="42.98138" lon="-0.70651">
        <ele>1674.5111438863</ele>
        <time>2015-02-22T11:58:13Z</time>
      </trkpt>
      <trkpt lat="42.98137" lon="-0.70654">
        <ele>1674.5111438863</ele>
        <time>2015-02-22T11:58:20Z</time>
      </trkpt>
      <trkpt lat="42.98137" lon="-0.70657">
        <ele>1674.5111438863</ele>
        <time>2015-02-22T11:58:23Z</time>
      </trkpt>
      <trkpt lat="42.98136" lon="-0.70658">
        <ele>1674.5111438863</ele>
        <time>2015-02-22T11:58:27Z</time>
      </trkpt>
      <trkpt lat="42.98132" lon="-0.70659">
        <ele>1677.3333703829</ele>
        <time>2015-02-22T11:58:33Z</time>
      </trkpt>
      <trkpt lat="42.9813" lon="-0.70658">
        <ele>1677.3333703829</ele>
        <time>2015-02-22T11:58:40Z</time>
      </trkpt>
      <trkpt lat="42.98127" lon="-0.70657">
        <ele>1677.3333703829</ele>
        <time>2015-02-22T11:58:43Z</time>
      </trkpt>
      <trkpt lat="42.98126" lon="-0.70657">
        <ele>1677.3333703829</ele>
        <time>2015-02-22T11:58:49Z</time>
      </trkpt>
      <trkpt lat="42.98121" lon="-0.70657">
        <ele>1680.330737834</ele>
        <time>2015-02-22T11:59:13Z</time>
      </trkpt>
      <trkpt lat="42.98119" lon="-0.70658">
        <ele>1680.330737834</ele>
        <time>2015-02-22T11:59:19Z</time>
      </trkpt>
      <trkpt lat="42.98119" lon="-0.70658">
        <ele>1680.330737834</ele>
        <time>2015-02-22T11:59:23Z</time>
      </trkpt>
      <trkpt lat="42.98119" lon="-0.70661">
        <ele>1680.330737834</ele>
        <time>2015-02-22T11:59:29Z</time>
      </trkpt>
      <trkpt lat="42.98119" lon="-0.70663">
        <ele>1680.330737834</ele>
        <time>2015-02-22T11:59:32Z</time>
      </trkpt>
      <trkpt lat="42.98119" lon="-0.70667">
        <ele>1680.330737834</ele>
        <time>2015-02-22T11:59:39Z</time>
      </trkpt>
      <trkpt lat="42.98116" lon="-0.70672">
        <ele>1683.3183273282</ele>
        <time>2015-02-22T11:59:43Z</time>
      </trkpt>
      <trkpt lat="42.98116" lon="-0.70671">
        <ele>1683.3183273282</ele>
        <time>2015-02-22T11:59:48Z</time>
      </trkpt>
      <trkpt lat="42.98112" lon="-0.70668">
        <ele>1683.3183273282</ele>
        <time>2015-02-22T11:59:59Z</time>
      </trkpt>
      <trkpt lat="42.9811" lon="-0.70666">
        <ele>1683.3183273282</ele>
        <time>2015-02-22T12:00:02Z</time>
      </trkpt>
      <trkpt lat="42.98106" lon="-0.70664">
        <ele>1686.355416789</ele>
        <time>2015-02-22T12:00:09Z</time>
      </trkpt>
      <trkpt lat="42.98105" lon="-0.70663">
        <ele>1686.355416789</ele>
        <time>2015-02-22T12:00:12Z</time>
      </trkpt>
      <trkpt lat="42.98102" lon="-0.70661">
        <ele>1686.355416789</ele>
        <time>2015-02-22T12:00:20Z</time>
      </trkpt>
      <trkpt lat="42.981" lon="-0.70661">
        <ele>1686.355416789</ele>
        <time>2015-02-22T12:00:23Z</time>
      </trkpt>
      <trkpt lat="42.98099" lon="-0.70662">
        <ele>1686.355416789</ele>
        <time>2015-02-22T12:00:28Z</time>
      </trkpt>
      <trkpt lat="42.98099" lon="-0.70666">
        <ele>1689.2085722134</ele>
        <time>2015-02-22T12:00:33Z</time>
      </trkpt>
      <trkpt lat="42.98098" lon="-0.7067">
        <ele>1689.2085722134</ele>
        <time>2015-02-22T12:00:39Z</time>
      </trkpt>
      <trkpt lat="42.98097" lon="-0.70671">
        <ele>1689.2085722134</ele>
        <time>2015-02-22T12:00:43Z</time>
      </trkpt>
      <trkpt lat="42.98094" lon="-0.70679">
        <ele>1691.7917235134</ele>
        <time>2015-02-22T12:01:04Z</time>
      </trkpt>
      <trkpt lat="42.98092" lon="-0.70684">
        <ele>1691.7917235134</ele>
        <time>2015-02-22T12:01:08Z</time>
      </trkpt>
      <trkpt lat="42.98091" lon="-0.70685">
        <ele>1691.7917235134</ele>
        <time>2015-02-22T12:01:13Z</time>
      </trkpt>
      <trkpt lat="42.98086" lon="-0.70688">
        <ele>1694.2996875368</ele>
        <time>2015-02-22T12:01:19Z</time>
      </trkpt>
      <trkpt lat="42.98083" lon="-0.70686">
        <ele>1694.2996875368</ele>
        <time>2015-02-22T12:01:23Z</time>
      </trkpt>
      <trkpt lat="42.98081" lon="-0.70685">
        <ele>1694.2996875368</ele>
        <time>2015-02-22T12:01:29Z</time>
      </trkpt>
      <trkpt lat="42.9808" lon="-0.70684">
        <ele>1694.2996875368</ele>
        <time>2015-02-22T12:01:32Z</time>
      </trkpt>
      <trkpt lat="42.98076" lon="-0.70681">
        <ele>1696.8555272154</ele>
        <time>2015-02-22T12:01:44Z</time>
      </trkpt>
      <trkpt lat="42.98073" lon="-0.7068">
        <ele>1696.8555272154</ele>
        <time>2015-02-22T12:01:48Z</time>
      </trkpt>
      <trkpt lat="42.9807" lon="-0.70678">
        <ele>1696.8555272154</ele>
        <time>2015-02-22T12:01:53Z</time>
      </trkpt>
      <trkpt lat="42.98066" lon="-0.70676">
        <ele>1699.2704827698</ele>
        <time>2015-02-22T12:01:59Z</time>
      </trkpt>
      <trkpt lat="42.98063" lon="-0.70672">
        <ele>1699.2704827698</ele>
        <time>2015-02-22T12:02:03Z</time>
      </trkpt>
      <trkpt lat="42.98059" lon="-0.7067">
        <ele>1701.4420904367</ele>
        <time>2015-02-22T12:02:09Z</time>
      </trkpt>
      <trkpt lat="42.98058" lon="-0.70669">
        <ele>1701.4420904367</ele>
        <time>2015-02-22T12:02:12Z</time>
      </trkpt>
      <trkpt lat="42.98055" lon="-0.70669">
        <ele>1701.4420904367</ele>
        <time>2015-02-22T12:02:19Z</time>
      </trkpt>
      <trkpt lat="42.98055" lon="-0.7067">
        <ele>1701.4420904367</ele>
        <time>2015-02-22T12:02:24Z</time>
      </trkpt>
      <trkpt lat="42.98051" lon="-0.70672">
        <ele>1701.4420904367</ele>
        <time>2015-02-22T12:02:39Z</time>
      </trkpt>
      <trkpt lat="42.98048" lon="-0.70674">
        <ele>1703.7948693512</ele>
        <time>2015-02-22T12:02:43Z</time>
      </trkpt>
      <trkpt lat="42.98044" lon="-0.70676">
        <ele>1703.7948693512</ele>
        <time>2015-02-22T12:02:49Z</time>
      </trkpt>
      <trkpt lat="42.98041" lon="-0.70677">
        <ele>1703.7948693512</ele>
        <time>2015-02-22T12:02:52Z</time>
      </trkpt>
      <trkpt lat="42.98036" lon="-0.70679">
        <ele>1705.9434120762</ele>
        <time>2015-02-22T12:02:59Z</time>
      </trkpt>
      <trkpt lat="42.98034" lon="-0.7068">
        <ele>1705.9434120762</ele>
        <time>2015-02-22T12:03:03Z</time>
      </trkpt>
      <trkpt lat="42.98032" lon="-0.70682">
        <ele>1705.9434120762</ele>
        <time>2015-02-22T12:03:08Z</time>
      </trkpt>
      <trkpt lat="42.9803" lon="-0.70685">
        <ele>1705.9434120762</ele>
        <time>2015-02-22T12:03:13Z</time>
      </trkpt>
      <trkpt lat="42.98029" lon="-0.7069">
        <ele>1707.9058453025</ele>
        <time>2015-02-22T12:03:19Z</time>
      </trkpt>
      <trkpt lat="42.98028" lon="-0.70695">
        <ele>1707.9058453025</ele>
        <time>2015-02-22T12:03:23Z</time>
      </trkpt>
      <trkpt lat="42.98028" lon="-0.70697">
        <ele>1707.9058453025</ele>
        <time>2015-02-22T12:03:28Z</time>
      </trkpt>
      <trkpt lat="42.98028" lon="-0.70698">
        <ele>1707.9058453025</ele>
        <time>2015-02-22T12:03:32Z</time>
      </trkpt>
      <trkpt lat="42.98023" lon="-0.70698">
        <ele>1709.6850285859</ele>
        <time>2015-02-22T12:03:47Z</time>
      </trkpt>
      <trkpt lat="42.98024" lon="-0.70696">
        <ele>1709.6850285859</ele>
        <time>2015-02-22T12:03:52Z</time>
      </trkpt>
      <trkpt lat="42.98025" lon="-0.70704">
        <ele>1709.6850285859</ele>
        <time>2015-02-22T12:04:52Z</time>
      </trkpt>
      <trkpt lat="42.98021" lon="-0.70709">
        <ele>1711.9613952974</ele>
        <time>2015-02-22T12:04:57Z</time>
      </trkpt>
      <trkpt lat="42.98018" lon="-0.70712">
        <ele>1711.9613952974</ele>
        <time>2015-02-22T12:05:02Z</time>
      </trkpt>
      <trkpt lat="42.98015" lon="-0.70715">
        <ele>1711.9613952974</ele>
        <time>2015-02-22T12:05:07Z</time>
      </trkpt>
      <trkpt lat="42.98013" lon="-0.70719">
        <ele>1714.0092959149</ele>
        <time>2015-02-22T12:05:12Z</time>
      </trkpt>
      <trkpt lat="42.98011" lon="-0.70722">
        <ele>1714.0092959149</ele>
        <time>2015-02-22T12:05:17Z</time>
      </trkpt>
      <trkpt lat="42.98008" lon="-0.70726">
        <ele>1714.0092959149</ele>
        <time>2015-02-22T12:05:22Z</time>
      </trkpt>
      <trkpt lat="42.98005" lon="-0.70731">
        <ele>1715.863107535</ele>
        <time>2015-02-22T12:05:27Z</time>
      </trkpt>
      <trkpt lat="42.98001" lon="-0.70736">
        <ele>1715.863107535</ele>
        <time>2015-02-22T12:05:32Z</time>
      </trkpt>
      <trkpt lat="42.98" lon="-0.70738">
        <ele>1715.863107535</ele>
        <time>2015-02-22T12:05:38Z</time>
      </trkpt>
      <trkpt lat="42.97997" lon="-0.70743">
        <ele>1717.5407449895</ele>
        <time>2015-02-22T12:05:44Z</time>
      </trkpt>
      <trkpt lat="42.97997" lon="-0.70743">
        <ele>1717.5407449895</ele>
        <time>2015-02-22T12:05:48Z</time>
      </trkpt>
      <trkpt lat="42.97996" lon="-0.70743">
        <ele>1717.5407449895</ele>
        <time>2015-02-22T12:05:53Z</time>
      </trkpt>
      <trkpt lat="42.97991" lon="-0.70748">
        <ele>1717.5407449895</ele>
        <time>2015-02-22T12:06:09Z</time>
      </trkpt>
      <trkpt lat="42.9799" lon="-0.70752">
        <ele>1719.3762705661</ele>
        <time>2015-02-22T12:06:12Z</time>
      </trkpt>
      <trkpt lat="42.97987" lon="-0.70757">
        <ele>1719.3762705661</ele>
        <time>2015-02-22T12:06:21Z</time>
      </trkpt>
      <trkpt lat="42.97985" lon="-0.70759">
        <ele>1719.3762705661</ele>
        <time>2015-02-22T12:06:23Z</time>
      </trkpt>
      <trkpt lat="42.97984" lon="-0.70765">
        <ele>1721.1166493272</ele>
        <time>2015-02-22T12:06:29Z</time>
      </trkpt>
      <trkpt lat="42.97982" lon="-0.70767">
        <ele>1721.1166493272</ele>
        <time>2015-02-22T12:06:32Z</time>
      </trkpt>
      <trkpt lat="42.97978" lon="-0.70773">
        <ele>1721.1166493272</ele>
        <time>2015-02-22T12:06:39Z</time>
      </trkpt>
      <trkpt lat="42.97975" lon="-0.70776">
        <ele>1722.7581928308</ele>
        <time>2015-02-22T12:06:44Z</time>
      </trkpt>
      <trkpt lat="42.97972" lon="-0.70779">
        <ele>1722.7581928308</ele>
        <time>2015-02-22T12:06:48Z</time>
      </trkpt>
      <trkpt lat="42.97971" lon="-0.7078">
        <ele>1722.7581928308</ele>
        <time>2015-02-22T12:06:52Z</time>
      </trkpt>
      <trkpt lat="42.97967" lon="-0.70786">
        <ele>1724.3120807959</ele>
        <time>2015-02-22T12:06:59Z</time>
      </trkpt>
      <trkpt lat="42.97965" lon="-0.7079">
        <ele>1724.3120807959</ele>
        <time>2015-02-22T12:07:03Z</time>
      </trkpt>
      <trkpt lat="42.97964" lon="-0.70794">
        <ele>1724.3120807959</ele>
        <time>2015-02-22T12:07:08Z</time>
      </trkpt>
      <trkpt lat="42.97963" lon="-0.708">
        <ele>1725.803232706</ele>
        <time>2015-02-22T12:07:13Z</time>
      </trkpt>
      <trkpt lat="42.97962" lon="-0.70805">
        <ele>1725.803232706</ele>
        <time>2015-02-22T12:07:19Z</time>
      </trkpt>
      <trkpt lat="42.97961" lon="-0.70808">
        <ele>1725.803232706</ele>
        <time>2015-02-22T12:07:23Z</time>
      </trkpt>
      <trkpt lat="42.97959" lon="-0.70811">
        <ele>1727.3124572097</ele>
        <time>2015-02-22T12:07:29Z</time>
      </trkpt>
      <trkpt lat="42.97958" lon="-0.70812">
        <ele>1727.3124572097</ele>
        <time>2015-02-22T12:07:32Z</time>
      </trkpt>
      <trkpt lat="42.97959" lon="-0.70816">
        <ele>1727.3124572097</ele>
        <time>2015-02-22T12:07:59Z</time>
      </trkpt>
      <trkpt lat="42.97959" lon="-0.70818">
        <ele>1727.3124572097</ele>
        <time>2015-02-22T12:08:03Z</time>
      </trkpt>
      <trkpt lat="42.97959" lon="-0.70819">
        <ele>1727.3124572097</ele>
        <time>2015-02-22T12:08:09Z</time>
      </trkpt>
      <trkpt lat="42.97957" lon="-0.70821">
        <ele>1727.3124572097</ele>
        <time>2015-02-22T12:08:12Z</time>
      </trkpt>
      <trkpt lat="42.97954" lon="-0.70827">
        <ele>1729.3323941714</ele>
        <time>2015-02-22T12:08:19Z</time>
      </trkpt>
      <trkpt lat="42.97953" lon="-0.7083">
        <ele>1729.3323941714</ele>
        <time>2015-02-22T12:08:24Z</time>
      </trkpt>
      <trkpt lat="42.97951" lon="-0.70834">
        <ele>1729.3323941714</ele>
        <time>2015-02-22T12:08:28Z</time>
      </trkpt>
      <trkpt lat="42.97949" lon="-0.70839">
        <ele>1731.1794763718</ele>
        <time>2015-02-22T12:08:33Z</time>
      </trkpt>
      <trkpt lat="42.97945" lon="-0.7084">
        <ele>1731.1794763718</ele>
        <time>2015-02-22T12:08:38Z</time>
      </trkpt>
      <trkpt lat="42.97942" lon="-0.70837">
        <ele>1731.1794763718</ele>
        <time>2015-02-22T12:08:42Z</time>
      </trkpt>
      <trkpt lat="42.97937" lon="-0.70833">
        <ele>1733.1286278262</ele>
        <time>2015-02-22T12:08:47Z</time>
      </trkpt>
      <trkpt lat="42.97934" lon="-0.7083">
        <ele>1733.1286278262</ele>
        <time>2015-02-22T12:08:53Z</time>
      </trkpt>
      <trkpt lat="42.9793" lon="-0.70827">
        <ele>1733.1286278262</ele>
        <time>2015-02-22T12:08:58Z</time>
      </trkpt>
      <trkpt lat="42.97927" lon="-0.70825">
        <ele>1735.4053602452</ele>
        <time>2015-02-22T12:09:19Z</time>
      </trkpt>
      <trkpt lat="42.97925" lon="-0.70823">
        <ele>1735.4053602452</ele>
        <time>2015-02-22T12:09:24Z</time>
      </trkpt>
      <trkpt lat="42.97921" lon="-0.70821">
        <ele>1735.4053602452</ele>
        <time>2015-02-22T12:09:28Z</time>
      </trkpt>
      <trkpt lat="42.97917" lon="-0.70816">
        <ele>1737.6699717625</ele>
        <time>2015-02-22T12:09:32Z</time>
      </trkpt>
      <trkpt lat="42.97914" lon="-0.70813">
        <ele>1737.6699717625</ele>
        <time>2015-02-22T12:09:39Z</time>
      </trkpt>
      <trkpt lat="42.97911" lon="-0.70809">
        <ele>1737.6699717625</ele>
        <time>2015-02-22T12:09:43Z</time>
      </trkpt>
      <trkpt lat="42.97908" lon="-0.70807">
        <ele>1739.982334274</ele>
        <time>2015-02-22T12:09:49Z</time>
      </trkpt>
      <trkpt lat="42.97907" lon="-0.70806">
        <ele>1739.982334274</ele>
        <time>2015-02-22T12:09:52Z</time>
      </trkpt>
      <trkpt lat="42.97907" lon="-0.70805">
        <ele>1739.982334274</ele>
        <time>2015-02-22T12:09:59Z</time>
      </trkpt>
      <trkpt lat="42.97904" lon="-0.70803">
        <ele>1739.982334274</ele>
        <time>2015-02-22T12:10:12Z</time>
      </trkpt>
      <trkpt lat="42.979" lon="-0.708">
        <ele>1742.3256320581</ele>
        <time>2015-02-22T12:10:19Z</time>
      </trkpt>
      <trkpt lat="42.97897" lon="-0.70798">
        <ele>1742.3256320581</ele>
        <time>2015-02-22T12:10:23Z</time>
      </trkpt>
      <trkpt lat="42.97893" lon="-0.70795">
        <ele>1742.3256320581</ele>
        <time>2015-02-22T12:10:29Z</time>
      </trkpt>
      <trkpt lat="42.97891" lon="-0.70794">
        <ele>1744.5832242266</ele>
        <time>2015-02-22T12:10:32Z</time>
      </trkpt>
      <trkpt lat="42.97888" lon="-0.70793">
        <ele>1744.5832242266</ele>
        <time>2015-02-22T12:10:39Z</time>
      </trkpt>
      <trkpt lat="42.97884" lon="-0.70792">
        <ele>1744.5832242266</ele>
        <time>2015-02-22T12:10:44Z</time>
      </trkpt>
      <trkpt lat="42.97881" lon="-0.7079">
        <ele>1746.8777648718</ele>
        <time>2015-02-22T12:10:48Z</time>
      </trkpt>
      <trkpt lat="42.9788" lon="-0.7079">
        <ele>1746.8777648718</ele>
        <time>2015-02-22T12:10:52Z</time>
      </trkpt>
      <trkpt lat="42.9788" lon="-0.70788">
        <ele>1746.8777648718</ele>
        <time>2015-02-22T12:10:59Z</time>
      </trkpt>
      <trkpt lat="42.97877" lon="-0.70791">
        <ele>1746.8777648718</ele>
        <time>2015-02-22T12:11:09Z</time>
      </trkpt>
      <trkpt lat="42.97874" lon="-0.7079">
        <ele>1749.1930067518</ele>
        <time>2015-02-22T12:11:12Z</time>
      </trkpt>
      <trkpt lat="42.97869" lon="-0.70786">
        <ele>1749.1930067518</ele>
        <time>2015-02-22T12:11:19Z</time>
      </trkpt>
      <trkpt lat="42.97866" lon="-0.70782">
        <ele>1751.3984654785</ele>
        <time>2015-02-22T12:11:23Z</time>
      </trkpt>
      <trkpt lat="42.97862" lon="-0.70778">
        <ele>1751.3984654785</ele>
        <time>2015-02-22T12:11:28Z</time>
      </trkpt>
      <trkpt lat="42.97859" lon="-0.70776">
        <ele>1751.3984654785</ele>
        <time>2015-02-22T12:11:33Z</time>
      </trkpt>
      <trkpt lat="42.97859" lon="-0.70776">
        <ele>1751.3984654785</ele>
        <time>2015-02-22T12:11:39Z</time>
      </trkpt>
      <trkpt lat="42.97856" lon="-0.70777">
        <ele>1753.5031698592</ele>
        <time>2015-02-22T12:11:43Z</time>
      </trkpt>
      <trkpt lat="42.97853" lon="-0.70779">
        <ele>1753.5031698592</ele>
        <time>2015-02-22T12:11:49Z</time>
      </trkpt>
      <trkpt lat="42.97853" lon="-0.70779">
        <ele>1753.5031698592</ele>
        <time>2015-02-22T12:11:52Z</time>
      </trkpt>
      <trkpt lat="42.9785" lon="-0.70783">
        <ele>1753.5031698592</ele>
        <time>2015-02-22T12:11:59Z</time>
      </trkpt>
      <trkpt lat="42.97849" lon="-0.70784">
        <ele>1753.5031698592</ele>
        <time>2015-02-22T12:12:04Z</time>
      </trkpt>
      <trkpt lat="42.97848" lon="-0.70785">
        <ele>1755.5012798812</ele>
        <time>2015-02-22T12:12:07Z</time>
      </trkpt>
      <trkpt lat="42.97839" lon="-0.70785">
        <ele>1755.5012798812</ele>
        <time>2015-02-22T12:12:32Z</time>
      </trkpt>
      <trkpt lat="42.9784" lon="-0.70786">
        <ele>1757.5893647535</ele>
        <time>2015-02-22T12:12:39Z</time>
      </trkpt>
      <trkpt lat="42.97838" lon="-0.70776">
        <ele>1757.5893647535</ele>
        <time>2015-02-22T12:12:53Z</time>
      </trkpt>
      <trkpt lat="42.97836" lon="-0.70774">
        <ele>1759.71865141</ele>
        <time>2015-02-22T12:12:59Z</time>
      </trkpt>
      <trkpt lat="42.97835" lon="-0.70774">
        <ele>1759.71865141</ele>
        <time>2015-02-22T12:13:03Z</time>
      </trkpt>
      <trkpt lat="42.97832" lon="-0.70773">
        <ele>1759.71865141</ele>
        <time>2015-02-22T12:13:12Z</time>
      </trkpt>
      <trkpt lat="42.97827" lon="-0.70774">
        <ele>1761.6708304244</ele>
        <time>2015-02-22T12:13:19Z</time>
      </trkpt>
      <trkpt lat="42.97822" lon="-0.70775">
        <ele>1761.6708304244</ele>
        <time>2015-02-22T12:13:23Z</time>
      </trkpt>
      <trkpt lat="42.97818" lon="-0.70774">
        <ele>1761.6708304244</ele>
        <time>2015-02-22T12:13:28Z</time>
      </trkpt>
      <trkpt lat="42.97813" lon="-0.70774">
        <ele>1763.3449350805</ele>
        <time>2015-02-22T12:13:33Z</time>
      </trkpt>
      <trkpt lat="42.97806" lon="-0.70776">
        <ele>1763.3449350805</ele>
        <time>2015-02-22T12:13:39Z</time>
      </trkpt>
      <trkpt lat="42.978" lon="-0.70779">
        <ele>1764.7345940345</ele>
        <time>2015-02-22T12:13:43Z</time>
      </trkpt>
      <trkpt lat="42.97794" lon="-0.70781">
        <ele>1764.7345940345</ele>
        <time>2015-02-22T12:13:49Z</time>
      </trkpt>
      <trkpt lat="42.97789" lon="-0.7078">
        <ele>1765.8922770173</ele>
        <time>2015-02-22T12:13:52Z</time>
      </trkpt>
      <trkpt lat="42.97783" lon="-0.70779">
        <ele>1765.8922770173</ele>
        <time>2015-02-22T12:13:59Z</time>
      </trkpt>
      <trkpt lat="42.97779" lon="-0.70781">
        <ele>1766.8095334372</ele>
        <time>2015-02-22T12:14:04Z</time>
      </trkpt>
      <trkpt lat="42.97776" lon="-0.70783">
        <ele>1766.8095334372</ele>
        <time>2015-02-22T12:14:08Z</time>
      </trkpt>
      <trkpt lat="42.97773" lon="-0.70785">
        <ele>1766.8095334372</ele>
        <time>2015-02-22T12:14:13Z</time>
      </trkpt>
      <trkpt lat="42.97768" lon="-0.70788">
        <ele>1767.5511868531</ele>
        <time>2015-02-22T12:14:19Z</time>
      </trkpt>
      <trkpt lat="42.97765" lon="-0.70791">
        <ele>1767.5511868531</ele>
        <time>2015-02-22T12:14:23Z</time>
      </trkpt>
      <trkpt lat="42.97761" lon="-0.70795">
        <ele>1767.5511868531</ele>
        <time>2015-02-22T12:14:29Z</time>
      </trkpt>
      <trkpt lat="42.97759" lon="-0.70798">
        <ele>1768.1632980619</ele>
        <time>2015-02-22T12:14:32Z</time>
      </trkpt>
      <trkpt lat="42.97758" lon="-0.70801">
        <ele>1768.1632980619</ele>
        <time>2015-02-22T12:14:39Z</time>
      </trkpt>
      <trkpt lat="42.97755" lon="-0.70806">
        <ele>1768.1632980619</ele>
        <time>2015-02-22T12:14:43Z</time>
      </trkpt>
      <trkpt lat="42.97754" lon="-0.70807">
        <ele>1768.1632980619</ele>
        <time>2015-02-22T12:14:48Z</time>
      </trkpt>
      <trkpt lat="42.97749" lon="-0.70798">
        <ele>1768.6023519686</ele>
        <time>2015-02-22T12:15:19Z</time>
      </trkpt>
      <trkpt lat="42.97747" lon="-0.70795">
        <ele>1768.6023519686</ele>
        <time>2015-02-22T12:15:23Z</time>
      </trkpt>
      <trkpt lat="42.97747" lon="-0.70796">
        <ele>1768.6023519686</ele>
        <time>2015-02-22T12:15:28Z</time>
      </trkpt>
      <trkpt lat="42.97747" lon="-0.708">
        <ele>1768.6023519686</ele>
        <time>2015-02-22T12:15:33Z</time>
      </trkpt>
      <trkpt lat="42.97744" lon="-0.70805">
        <ele>1768.9725305628</ele>
        <time>2015-02-22T12:15:39Z</time>
      </trkpt>
      <trkpt lat="42.97742" lon="-0.70807">
        <ele>1768.9725305628</ele>
        <time>2015-02-22T12:15:43Z</time>
      </trkpt>
      <trkpt lat="42.97738" lon="-0.70808">
        <ele>1768.9725305628</ele>
        <time>2015-02-22T12:15:49Z</time>
      </trkpt>
      <trkpt lat="42.97735" lon="-0.70807">
        <ele>1769.3416302522</ele>
        <time>2015-02-22T12:15:52Z</time>
      </trkpt>
      <trkpt lat="42.97734" lon="-0.70805">
        <ele>1769.3416302522</ele>
        <time>2015-02-22T12:15:59Z</time>
      </trkpt>
      <trkpt lat="42.9773" lon="-0.70799">
        <ele>1769.3416302522</ele>
        <time>2015-02-22T12:16:07Z</time>
      </trkpt>
      <trkpt lat="42.97727" lon="-0.70795">
        <ele>1769.7579486738</ele>
        <time>2015-02-22T12:16:12Z</time>
      </trkpt>
      <trkpt lat="42.97727" lon="-0.70793">
        <ele>1769.7579486738</ele>
        <time>2015-02-22T12:16:19Z</time>
      </trkpt>
      <trkpt lat="42.97728" lon="-0.70795">
        <ele>1769.7579486738</ele>
        <time>2015-02-22T12:16:23Z</time>
      </trkpt>
      <trkpt lat="42.97728" lon="-0.70804">
        <ele>1770.3092198492</ele>
        <time>2015-02-22T12:16:44Z</time>
      </trkpt>
      <trkpt lat="42.97726" lon="-0.70807">
        <ele>1770.3092198492</ele>
        <time>2015-02-22T12:16:48Z</time>
      </trkpt>
      <trkpt lat="42.97723" lon="-0.70807">
        <ele>1770.3092198492</ele>
        <time>2015-02-22T12:16:53Z</time>
      </trkpt>
      <trkpt lat="42.97718" lon="-0.70809">
        <ele>1770.8024212411</ele>
        <time>2015-02-22T12:16:59Z</time>
      </trkpt>
      <trkpt lat="42.97716" lon="-0.70809">
        <ele>1770.8024212411</ele>
        <time>2015-02-22T12:17:03Z</time>
      </trkpt>
      <trkpt lat="42.97714" lon="-0.7081">
        <ele>1770.8024212411</ele>
        <time>2015-02-22T12:17:09Z</time>
      </trkpt>
      <trkpt lat="42.9771" lon="-0.7081">
        <ele>1770.8024212411</ele>
        <time>2015-02-22T12:17:19Z</time>
      </trkpt>
      <trkpt lat="42.97706" lon="-0.70808">
        <ele>1771.4478468613</ele>
        <time>2015-02-22T12:17:23Z</time>
      </trkpt>
      <trkpt lat="42.97702" lon="-0.70805">
        <ele>1771.4478468613</ele>
        <time>2015-02-22T12:17:28Z</time>
      </trkpt>
      <trkpt lat="42.977" lon="-0.70801">
        <ele>1771.4478468613</ele>
        <time>2015-02-22T12:17:33Z</time>
      </trkpt>
      <trkpt lat="42.97697" lon="-0.70794">
        <ele>1772.3244984012</ele>
        <time>2015-02-22T12:17:39Z</time>
      </trkpt>
      <trkpt lat="42.97695" lon="-0.7079">
        <ele>1772.3244984012</ele>
        <time>2015-02-22T12:17:43Z</time>
      </trkpt>
      <trkpt lat="42.97695" lon="-0.70785">
        <ele>1772.3244984012</ele>
        <time>2015-02-22T12:17:49Z</time>
      </trkpt>
      <trkpt lat="42.97695" lon="-0.70784">
        <ele>1772.3244984012</ele>
        <time>2015-02-22T12:17:52Z</time>
      </trkpt>
      <trkpt lat="42.97692" lon="-0.70774">
        <ele>1774.1244756343</ele>
        <time>2015-02-22T12:19:24Z</time>
      </trkpt>
      <trkpt lat="42.97697" lon="-0.70784">
        <ele>1777.1981016247</ele>
        <time>2015-02-22T12:30:03Z</time>
      </trkpt>
      <trkpt lat="42.97697" lon="-0.70784">
        <ele>1777.1981016247</ele>
        <time>2015-02-22T12:30:09Z</time>
      </trkpt>
      <trkpt lat="42.97691" lon="-0.70775">
        <ele>1779.6037317412</ele>
        <time>2015-02-22T12:37:13Z</time>
      </trkpt>
      <trkpt lat="42.97696" lon="-0.70786">
        <ele>1781.4608016694</ele>
        <time>2015-02-22T12:41:03Z</time>
      </trkpt>
      <trkpt lat="42.97697" lon="-0.70785">
        <ele>1781.4608016694</ele>
        <time>2015-02-22T12:41:08Z</time>
      </trkpt>
      <trkpt lat="42.97702" lon="-0.70775">
        <ele>1783.24169776</ele>
        <time>2015-02-22T12:45:04Z</time>
      </trkpt>
      <trkpt lat="42.9771" lon="-0.7078">
        <ele>1783.24169776</ele>
        <time>2015-02-22T12:45:08Z</time>
      </trkpt>
      <trkpt lat="42.97718" lon="-0.70777">
        <ele>1784.7645582161</ele>
        <time>2015-02-22T12:45:12Z</time>
      </trkpt>
      <trkpt lat="42.97731" lon="-0.7078">
        <ele>1786.0056394924</ele>
        <time>2015-02-22T12:45:19Z</time>
      </trkpt>
      <trkpt lat="42.97743" lon="-0.70782">
        <ele>1786.9292490893</ele>
        <time>2015-02-22T12:45:23Z</time>
      </trkpt>
      <trkpt lat="42.97761" lon="-0.70784">
        <ele>1787.5319582914</ele>
        <time>2015-02-22T12:45:28Z</time>
      </trkpt>
      <trkpt lat="42.97789" lon="-0.70778">
        <ele>1787.811418513</ele>
        <time>2015-02-22T12:45:33Z</time>
      </trkpt>
      <trkpt lat="42.97804" lon="-0.70776">
        <ele>1787.8239297649</ele>
        <time>2015-02-22T12:45:38Z</time>
      </trkpt>
      <trkpt lat="42.97809" lon="-0.70777">
        <ele>1787.8239297649</ele>
        <time>2015-02-22T12:45:44Z</time>
      </trkpt>
      <trkpt lat="42.97812" lon="-0.70777">
        <ele>1787.8239297649</ele>
        <time>2015-02-22T12:45:48Z</time>
      </trkpt>
      <trkpt lat="42.97815" lon="-0.70779">
        <ele>1787.0458790551</ele>
        <time>2015-02-22T12:45:53Z</time>
      </trkpt>
      <trkpt lat="42.97818" lon="-0.70779">
        <ele>1787.0458790551</ele>
        <time>2015-02-22T12:45:58Z</time>
      </trkpt>
      <trkpt lat="42.97818" lon="-0.70779">
        <ele>1787.0458790551</ele>
        <time>2015-02-22T12:46:04Z</time>
      </trkpt>
      <trkpt lat="42.97821" lon="-0.70777">
        <ele>1787.0458790551</ele>
        <time>2015-02-22T12:46:44Z</time>
      </trkpt>
      <trkpt lat="42.97831" lon="-0.70779">
        <ele>1784.6195539084</ele>
        <time>2015-02-22T12:47:08Z</time>
      </trkpt>
      <trkpt lat="42.97834" lon="-0.70779">
        <ele>1784.6195539084</ele>
        <time>2015-02-22T12:47:13Z</time>
      </trkpt>
      <trkpt lat="42.97835" lon="-0.7078">
        <ele>1784.6195539084</ele>
        <time>2015-02-22T12:47:18Z</time>
      </trkpt>
      <trkpt lat="42.97838" lon="-0.7078">
        <ele>1784.6195539084</ele>
        <time>2015-02-22T12:47:23Z</time>
      </trkpt>
      <trkpt lat="42.9784" lon="-0.7078">
        <ele>1784.6195539084</ele>
        <time>2015-02-22T12:47:28Z</time>
      </trkpt>
      <trkpt lat="42.97842" lon="-0.7078">
        <ele>1782.175833099</ele>
        <time>2015-02-22T12:47:33Z</time>
      </trkpt>
      <trkpt lat="42.97843" lon="-0.70779">
        <ele>1782.175833099</ele>
        <time>2015-02-22T12:47:38Z</time>
      </trkpt>
      <trkpt lat="42.97849" lon="-0.70779">
        <ele>1782.175833099</ele>
        <time>2015-02-22T12:47:58Z</time>
      </trkpt>
      <trkpt lat="42.97849" lon="-0.70778">
        <ele>1782.175833099</ele>
        <time>2015-02-22T12:48:03Z</time>
      </trkpt>
      <trkpt lat="42.97853" lon="-0.70779">
        <ele>1779.9863592309</ele>
        <time>2015-02-22T12:48:08Z</time>
      </trkpt>
      <trkpt lat="42.97855" lon="-0.7078">
        <ele>1779.9863592309</ele>
        <time>2015-02-22T12:48:13Z</time>
      </trkpt>
      <trkpt lat="42.97857" lon="-0.7078">
        <ele>1779.9863592309</ele>
        <time>2015-02-22T12:48:19Z</time>
      </trkpt>
      <trkpt lat="42.97861" lon="-0.70781">
        <ele>1779.9863592309</ele>
        <time>2015-02-22T12:48:43Z</time>
      </trkpt>
      <trkpt lat="42.97877" lon="-0.70787">
        <ele>1777.6390492538</ele>
        <time>2015-02-22T12:48:49Z</time>
      </trkpt>
      <trkpt lat="42.97894" lon="-0.70796">
        <ele>1775.1991116487</ele>
        <time>2015-02-22T12:48:53Z</time>
      </trkpt>
      <trkpt lat="42.97915" lon="-0.70794">
        <ele>1772.6549828004</ele>
        <time>2015-02-22T12:48:58Z</time>
      </trkpt>
      <trkpt lat="42.9793" lon="-0.70789">
        <ele>1769.5637029665</ele>
        <time>2015-02-22T12:49:03Z</time>
      </trkpt>
      <trkpt lat="42.97951" lon="-0.70771">
        <ele>1765.9629087176</ele>
        <time>2015-02-22T12:49:08Z</time>
      </trkpt>
      <trkpt lat="42.97976" lon="-0.70736">
        <ele>1761.7157254138</ele>
        <time>2015-02-22T12:49:13Z</time>
      </trkpt>
      <trkpt lat="42.97997" lon="-0.70726">
        <ele>1757.2733278737</ele>
        <time>2015-02-22T12:49:18Z</time>
      </trkpt>
      <trkpt lat="42.98027" lon="-0.70699">
        <ele>1752.1893423226</ele>
        <time>2015-02-22T12:49:23Z</time>
      </trkpt>
      <trkpt lat="42.98033" lon="-0.70673">
        <ele>1746.3398964284</ele>
        <time>2015-02-22T12:49:29Z</time>
      </trkpt>
      <trkpt lat="42.98035" lon="-0.7067">
        <ele>1746.3398964284</ele>
        <time>2015-02-22T12:49:32Z</time>
      </trkpt>
      <trkpt lat="42.98036" lon="-0.7067">
        <ele>1746.3398964284</ele>
        <time>2015-02-22T12:49:38Z</time>
      </trkpt>
      <trkpt lat="42.98038" lon="-0.70671">
        <ele>1746.3398964284</ele>
        <time>2015-02-22T12:50:08Z</time>
      </trkpt>
      <trkpt lat="42.98047" lon="-0.70671">
        <ele>1739.9723050425</ele>
        <time>2015-02-22T12:50:13Z</time>
      </trkpt>
      <trkpt lat="42.98064" lon="-0.70665">
        <ele>1734.066182829</ele>
        <time>2015-02-22T12:50:18Z</time>
      </trkpt>
      <trkpt lat="42.98087" lon="-0.70676">
        <ele>1728.5187199792</ele>
        <time>2015-02-22T12:50:24Z</time>
      </trkpt>
      <trkpt lat="42.9809" lon="-0.70679">
        <ele>1728.5187199792</ele>
        <time>2015-02-22T12:50:28Z</time>
      </trkpt>
      <trkpt lat="42.98099" lon="-0.70684">
        <ele>1722.7576726936</ele>
        <time>2015-02-22T12:50:33Z</time>
      </trkpt>
      <trkpt lat="42.98096" lon="-0.70668">
        <ele>1716.3682877291</ele>
        <time>2015-02-22T12:51:18Z</time>
      </trkpt>
      <trkpt lat="42.98112" lon="-0.70658">
        <ele>1710.2790020186</ele>
        <time>2015-02-22T12:51:24Z</time>
      </trkpt>
      <trkpt lat="42.98129" lon="-0.70654">
        <ele>1704.4696633867</ele>
        <time>2015-02-22T12:51:28Z</time>
      </trkpt>
      <trkpt lat="42.98151" lon="-0.70639">
        <ele>1698.6177014316</ele>
        <time>2015-02-22T12:51:33Z</time>
      </trkpt>
      <trkpt lat="42.98167" lon="-0.70645">
        <ele>1692.7841488922</ele>
        <time>2015-02-22T12:51:38Z</time>
      </trkpt>
      <trkpt lat="42.98172" lon="-0.70629">
        <ele>1686.7800167846</ele>
        <time>2015-02-22T12:51:43Z</time>
      </trkpt>
      <trkpt lat="42.98188" lon="-0.70614">
        <ele>1680.5166409456</ele>
        <time>2015-02-22T12:51:49Z</time>
      </trkpt>
      <trkpt lat="42.98197" lon="-0.70613">
        <ele>1674.1282562775</ele>
        <time>2015-02-22T12:51:53Z</time>
      </trkpt>
      <trkpt lat="42.98203" lon="-0.70608">
        <ele>1674.1282562775</ele>
        <time>2015-02-22T12:51:57Z</time>
      </trkpt>
      <trkpt lat="42.98202" lon="-0.70607">
        <ele>1674.1282562775</ele>
        <time>2015-02-22T12:52:04Z</time>
      </trkpt>
      <trkpt lat="42.98209" lon="-0.70616">
        <ele>1667.3355635756</ele>
        <time>2015-02-22T12:52:49Z</time>
      </trkpt>
      <trkpt lat="42.98209" lon="-0.70615">
        <ele>1667.3355635756</ele>
        <time>2015-02-22T12:52:53Z</time>
      </trkpt>
      <trkpt lat="42.9822" lon="-0.70615">
        <ele>1661.119755117</ele>
        <time>2015-02-22T12:52:58Z</time>
      </trkpt>
      <trkpt lat="42.98236" lon="-0.7062">
        <ele>1655.4366763049</ele>
        <time>2015-02-22T12:53:03Z</time>
      </trkpt>
      <trkpt lat="42.98251" lon="-0.70624">
        <ele>1650.1425289226</ele>
        <time>2015-02-22T12:53:09Z</time>
      </trkpt>
      <trkpt lat="42.98257" lon="-0.70637">
        <ele>1645.1168894314</ele>
        <time>2015-02-22T12:53:13Z</time>
      </trkpt>
      <trkpt lat="42.98265" lon="-0.70638">
        <ele>1645.1168894314</ele>
        <time>2015-02-22T12:53:18Z</time>
      </trkpt>
      <trkpt lat="42.98277" lon="-0.70651">
        <ele>1639.7713614612</ele>
        <time>2015-02-22T12:53:23Z</time>
      </trkpt>
      <trkpt lat="42.98287" lon="-0.70656">
        <ele>1634.0367485812</ele>
        <time>2015-02-22T12:53:29Z</time>
      </trkpt>
      <trkpt lat="42.98286" lon="-0.70652">
        <ele>1634.0367485812</ele>
        <time>2015-02-22T12:53:33Z</time>
      </trkpt>
      <trkpt lat="42.9829" lon="-0.70646">
        <ele>1634.0367485812</ele>
        <time>2015-02-22T12:53:38Z</time>
      </trkpt>
      <trkpt lat="42.98301" lon="-0.70626">
        <ele>1627.518096322</ele>
        <time>2015-02-22T12:53:43Z</time>
      </trkpt>
      <trkpt lat="42.98315" lon="-0.70614">
        <ele>1621.3931850567</ele>
        <time>2015-02-22T12:53:48Z</time>
      </trkpt>
      <trkpt lat="42.98325" lon="-0.70614">
        <ele>1615.5844125548</ele>
        <time>2015-02-22T12:53:53Z</time>
      </trkpt>
      <trkpt lat="42.98337" lon="-0.70611">
        <ele>1609.8600182108</ele>
        <time>2015-02-22T12:53:57Z</time>
      </trkpt>
      <trkpt lat="42.98345" lon="-0.70605">
        <ele>1603.3704992842</ele>
        <time>2015-02-22T12:54:03Z</time>
      </trkpt>
      <trkpt lat="42.98348" lon="-0.70594">
        <ele>1603.3704992842</ele>
        <time>2015-02-22T12:54:09Z</time>
      </trkpt>
      <trkpt lat="42.9835" lon="-0.7059">
        <ele>1595.978970338</ele>
        <time>2015-02-22T12:54:13Z</time>
      </trkpt>
      <trkpt lat="42.98351" lon="-0.70588">
        <ele>1595.978970338</ele>
        <time>2015-02-22T12:54:18Z</time>
      </trkpt>
      <trkpt lat="42.98354" lon="-0.7057">
        <ele>1589.1315176986</ele>
        <time>2015-02-22T12:54:23Z</time>
      </trkpt>
      <trkpt lat="42.98358" lon="-0.70567">
        <ele>1589.1315176986</ele>
        <time>2015-02-22T12:54:29Z</time>
      </trkpt>
      <trkpt lat="42.98369" lon="-0.7056">
        <ele>1582.912286435</ele>
        <time>2015-02-22T12:54:33Z</time>
      </trkpt>
      <trkpt lat="42.98382" lon="-0.70565">
        <ele>1577.1376661307</ele>
        <time>2015-02-22T12:54:38Z</time>
      </trkpt>
      <trkpt lat="42.98385" lon="-0.70563">
        <ele>1577.1376661307</ele>
        <time>2015-02-22T12:54:44Z</time>
      </trkpt>
      <trkpt lat="42.98391" lon="-0.70565">
        <ele>1571.7367634942</ele>
        <time>2015-02-22T12:54:48Z</time>
      </trkpt>
      <trkpt lat="42.98393" lon="-0.70566">
        <ele>1571.7367634942</ele>
        <time>2015-02-22T12:54:53Z</time>
      </trkpt>
      <trkpt lat="42.98393" lon="-0.70566">
        <ele>1571.7367634942</ele>
        <time>2015-02-22T12:54:58Z</time>
      </trkpt>
      <trkpt lat="42.98387" lon="-0.70556">
        <ele>1566.4262909704</ele>
        <time>2015-02-22T12:55:09Z</time>
      </trkpt>
      <trkpt lat="42.98392" lon="-0.70554">
        <ele>1566.4262909704</ele>
        <time>2015-02-22T12:55:38Z</time>
      </trkpt>
      <trkpt lat="42.98397" lon="-0.70552">
        <ele>1561.5916487646</ele>
        <time>2015-02-22T12:55:43Z</time>
      </trkpt>
      <trkpt lat="42.98414" lon="-0.70548">
        <ele>1557.3288427989</ele>
        <time>2015-02-22T12:55:48Z</time>
      </trkpt>
      <trkpt lat="42.98423" lon="-0.70548">
        <ele>1553.6528424295</ele>
        <time>2015-02-22T12:55:53Z</time>
      </trkpt>
      <trkpt lat="42.9843" lon="-0.70542">
        <ele>1553.6528424295</ele>
        <time>2015-02-22T12:55:58Z</time>
      </trkpt>
      <trkpt lat="42.98431" lon="-0.70541">
        <ele>1553.6528424295</ele>
        <time>2015-02-22T12:56:03Z</time>
      </trkpt>
      <trkpt lat="42.98431" lon="-0.70555">
        <ele>1549.7109054679</ele>
        <time>2015-02-22T12:56:23Z</time>
      </trkpt>
      <trkpt lat="42.9843" lon="-0.7056">
        <ele>1549.7109054679</ele>
        <time>2015-02-22T12:56:29Z</time>
      </trkpt>
      <trkpt lat="42.98444" lon="-0.70559">
        <ele>1545.9671735724</ele>
        <time>2015-02-22T12:56:44Z</time>
      </trkpt>
      <trkpt lat="42.98449" lon="-0.7056">
        <ele>1545.9671735724</ele>
        <time>2015-02-22T12:56:48Z</time>
      </trkpt>
      <trkpt lat="42.98455" lon="-0.70574">
        <ele>1541.683592006</ele>
        <time>2015-02-22T12:56:53Z</time>
      </trkpt>
      <trkpt lat="42.9846" lon="-0.70583">
        <ele>1541.683592006</ele>
        <time>2015-02-22T12:56:57Z</time>
      </trkpt>
      <trkpt lat="42.98469" lon="-0.70574">
        <ele>1537.0134628411</ele>
        <time>2015-02-22T12:57:02Z</time>
      </trkpt>
      <trkpt lat="42.98476" lon="-0.70585">
        <ele>1532.1141243657</ele>
        <time>2015-02-22T12:57:10Z</time>
      </trkpt>
      <trkpt lat="42.98482" lon="-0.70588">
        <ele>1532.1141243657</ele>
        <time>2015-02-22T12:57:13Z</time>
      </trkpt>
      <trkpt lat="42.98491" lon="-0.70578">
        <ele>1526.3968524153</ele>
        <time>2015-02-22T12:57:17Z</time>
      </trkpt>
      <trkpt lat="42.98496" lon="-0.70578">
        <ele>1526.3968524153</ele>
        <time>2015-02-22T12:57:23Z</time>
      </trkpt>
      <trkpt lat="42.98497" lon="-0.70577">
        <ele>1526.3968524153</ele>
        <time>2015-02-22T12:57:28Z</time>
      </trkpt>
      <trkpt lat="42.98501" lon="-0.70566">
        <ele>1519.3471175243</ele>
        <time>2015-02-22T12:57:42Z</time>
      </trkpt>
      <trkpt lat="42.98501" lon="-0.70565">
        <ele>1519.3471175243</ele>
        <time>2015-02-22T12:57:49Z</time>
      </trkpt>
      <trkpt lat="42.98504" lon="-0.70558">
        <ele>1519.3471175243</ele>
        <time>2015-02-22T12:57:52Z</time>
      </trkpt>
      <trkpt lat="42.98519" lon="-0.70551">
        <ele>1512.5813745365</ele>
        <time>2015-02-22T12:57:58Z</time>
      </trkpt>
      <trkpt lat="42.98527" lon="-0.70557">
        <ele>1506.1408554792</ele>
        <time>2015-02-22T12:58:03Z</time>
      </trkpt>
      <trkpt lat="42.9854" lon="-0.70552">
        <ele>1499.7168254073</ele>
        <time>2015-02-22T12:58:08Z</time>
      </trkpt>
      <trkpt lat="42.98547" lon="-0.70545">
        <ele>1499.7168254073</ele>
        <time>2015-02-22T12:58:13Z</time>
      </trkpt>
      <trkpt lat="42.98556" lon="-0.70543">
        <ele>1492.922145675</ele>
        <time>2015-02-22T12:58:17Z</time>
      </trkpt>
      <trkpt lat="42.98568" lon="-0.70552">
        <ele>1486.2780765509</ele>
        <time>2015-02-22T12:58:23Z</time>
      </trkpt>
      <trkpt lat="42.98581" lon="-0.70539">
        <ele>1479.5032184118</ele>
        <time>2015-02-22T12:58:29Z</time>
      </trkpt>
      <trkpt lat="42.98587" lon="-0.70542">
        <ele>1479.5032184118</ele>
        <time>2015-02-22T12:58:33Z</time>
      </trkpt>
      <trkpt lat="42.98601" lon="-0.70543">
        <ele>1471.0976954212</ele>
        <time>2015-02-22T12:58:38Z</time>
      </trkpt>
      <trkpt lat="42.98601" lon="-0.70544">
        <ele>1471.0976954212</ele>
        <time>2015-02-22T12:58:43Z</time>
      </trkpt>
      <trkpt lat="42.98601" lon="-0.70544">
        <ele>1471.0976954212</ele>
        <time>2015-02-22T12:58:49Z</time>
      </trkpt>
      <trkpt lat="42.98607" lon="-0.70546">
        <ele>1471.0976954212</ele>
        <time>2015-02-22T12:59:28Z</time>
      </trkpt>
      <trkpt lat="42.98612" lon="-0.70538">
        <ele>1462.169346125</ele>
        <time>2015-02-22T12:59:33Z</time>
      </trkpt>
      <trkpt lat="42.98619" lon="-0.70518">
        <ele>1454.1062026997</ele>
        <time>2015-02-22T12:59:38Z</time>
      </trkpt>
      <trkpt lat="42.98623" lon="-0.70501">
        <ele>1446.6497390695</ele>
        <time>2015-02-22T12:59:43Z</time>
      </trkpt>
      <trkpt lat="42.98631" lon="-0.70489">
        <ele>1440.0773352489</ele>
        <time>2015-02-22T12:59:47Z</time>
      </trkpt>
      <trkpt lat="42.98639" lon="-0.70493">
        <ele>1440.0773352489</ele>
        <time>2015-02-22T12:59:52Z</time>
      </trkpt>
      <trkpt lat="42.9864" lon="-0.70495">
        <ele>1433.9227752214</ele>
        <time>2015-02-22T12:59:58Z</time>
      </trkpt>
      <trkpt lat="42.98651" lon="-0.70489">
        <ele>1427.2627606845</ele>
        <time>2015-02-22T13:00:49Z</time>
      </trkpt>
      <trkpt lat="42.98685" lon="-0.70469">
        <ele>1421.4623764904</ele>
        <time>2015-02-22T13:00:53Z</time>
      </trkpt>
      <trkpt lat="42.98707" lon="-0.70461">
        <ele>1416.5012684287</ele>
        <time>2015-02-22T13:00:58Z</time>
      </trkpt>
      <trkpt lat="42.98718" lon="-0.70453">
        <ele>1412.3292562946</ele>
        <time>2015-02-22T13:01:03Z</time>
      </trkpt>
      <trkpt lat="42.9873" lon="-0.70441">
        <ele>1408.8686852613</ele>
        <time>2015-02-22T13:01:08Z</time>
      </trkpt>
      <trkpt lat="42.98749" lon="-0.70423">
        <ele>1405.8005198311</ele>
        <time>2015-02-22T13:01:14Z</time>
      </trkpt>
      <trkpt lat="42.98761" lon="-0.70409">
        <ele>1402.9144542241</ele>
        <time>2015-02-22T13:01:18Z</time>
      </trkpt>
      <trkpt lat="42.9877" lon="-0.70394">
        <ele>1400.0294892036</ele>
        <time>2015-02-22T13:01:23Z</time>
      </trkpt>
      <trkpt lat="42.9878" lon="-0.70379">
        <ele>1397.0643720864</ele>
        <time>2015-02-22T13:01:29Z</time>
      </trkpt>
      <trkpt lat="42.98785" lon="-0.70374">
        <ele>1397.0643720864</ele>
        <time>2015-02-22T13:01:33Z</time>
      </trkpt>
      <trkpt lat="42.98791" lon="-0.70362">
        <ele>1393.987291906</ele>
        <time>2015-02-22T13:01:38Z</time>
      </trkpt>
      <trkpt lat="42.98797" lon="-0.70375">
        <ele>1391.2446964333</ele>
        <time>2015-02-22T13:01:43Z</time>
      </trkpt>
      <trkpt lat="42.98809" lon="-0.70374">
        <ele>1388.5432198369</ele>
        <time>2015-02-22T13:01:48Z</time>
      </trkpt>
      <trkpt lat="42.98824" lon="-0.70372">
        <ele>1386.0721753961</ele>
        <time>2015-02-22T13:01:53Z</time>
      </trkpt>
      <trkpt lat="42.98834" lon="-0.70389">
        <ele>1383.6893888519</ele>
        <time>2015-02-22T13:01:58Z</time>
      </trkpt>
      <trkpt lat="42.98842" lon="-0.70396">
        <ele>1381.5080031949</ele>
        <time>2015-02-22T13:02:03Z</time>
      </trkpt>
      <trkpt lat="42.98855" lon="-0.70411">
        <ele>1379.2001035525</ele>
        <time>2015-02-22T13:02:09Z</time>
      </trkpt>
      <trkpt lat="42.98857" lon="-0.70425">
        <ele>1377.0244231731</ele>
        <time>2015-02-22T13:02:14Z</time>
      </trkpt>
      <trkpt lat="42.9887" lon="-0.70407">
        <ele>1374.889051258</ele>
        <time>2015-02-22T13:02:18Z</time>
      </trkpt>
      <trkpt lat="42.9888" lon="-0.70405">
        <ele>1372.7521540724</ele>
        <time>2015-02-22T13:02:23Z</time>
      </trkpt>
      <trkpt lat="42.98886" lon="-0.7041">
        <ele>1372.7521540724</ele>
        <time>2015-02-22T13:02:28Z</time>
      </trkpt>
      <trkpt lat="42.98891" lon="-0.70411">
        <ele>1370.0275713222</ele>
        <time>2015-02-22T13:02:33Z</time>
      </trkpt>
      <trkpt lat="42.98893" lon="-0.70412">
        <ele>1370.0275713222</ele>
        <time>2015-02-22T13:02:38Z</time>
      </trkpt>
      <trkpt lat="42.98899" lon="-0.70422">
        <ele>1367.110802315</ele>
        <time>2015-02-22T13:02:49Z</time>
      </trkpt>
      <trkpt lat="42.98904" lon="-0.70432">
        <ele>1367.110802315</ele>
        <time>2015-02-22T13:02:53Z</time>
      </trkpt>
      <trkpt lat="42.9891" lon="-0.70441">
        <ele>1364.4267145634</ele>
        <time>2015-02-22T13:02:58Z</time>
      </trkpt>
      <trkpt lat="42.98922" lon="-0.70425">
        <ele>1361.3021324073</ele>
        <time>2015-02-22T13:03:03Z</time>
      </trkpt>
      <trkpt lat="42.98936" lon="-0.70421">
        <ele>1358.1956460518</ele>
        <time>2015-02-22T13:03:08Z</time>
      </trkpt>
      <trkpt lat="42.98946" lon="-0.70403">
        <ele>1354.6244523005</ele>
        <time>2015-02-22T13:03:14Z</time>
      </trkpt>
      <trkpt lat="42.98955" lon="-0.70401">
        <ele>1351.1947735407</ele>
        <time>2015-02-22T13:03:17Z</time>
      </trkpt>
      <trkpt lat="42.98965" lon="-0.70398">
        <ele>1347.7475871098</ele>
        <time>2015-02-22T13:03:23Z</time>
      </trkpt>
      <trkpt lat="42.98976" lon="-0.70406">
        <ele>1344.4528819448</ele>
        <time>2015-02-22T13:03:28Z</time>
      </trkpt>
      <trkpt lat="42.98991" lon="-0.70388">
        <ele>1340.9923961373</ele>
        <time>2015-02-22T13:03:34Z</time>
      </trkpt>
      <trkpt lat="42.99" lon="-0.7039">
        <ele>1337.3025154709</ele>
        <time>2015-02-22T13:03:37Z</time>
      </trkpt>
      <trkpt lat="42.99015" lon="-0.70381">
        <ele>1333.4548612778</ele>
        <time>2015-02-22T13:03:43Z</time>
      </trkpt>
      <trkpt lat="42.99024" lon="-0.70373">
        <ele>1329.6461477764</ele>
        <time>2015-02-22T13:03:50Z</time>
      </trkpt>
      <trkpt lat="42.99042" lon="-0.70364">
        <ele>1325.3669980651</ele>
        <time>2015-02-22T13:03:53Z</time>
      </trkpt>
      <trkpt lat="42.99052" lon="-0.70367">
        <ele>1320.9683988057</ele>
        <time>2015-02-22T13:03:57Z</time>
      </trkpt>
      <trkpt lat="42.99053" lon="-0.70367">
        <ele>1320.9683988057</ele>
        <time>2015-02-22T13:04:03Z</time>
      </trkpt>
      <trkpt lat="42.99063" lon="-0.70362">
        <ele>1316.3869680873</ele>
        <time>2015-02-22T13:04:13Z</time>
      </trkpt>
      <trkpt lat="42.99066" lon="-0.70361">
        <ele>1316.3869680873</ele>
        <time>2015-02-22T13:04:29Z</time>
      </trkpt>
      <trkpt lat="42.99068" lon="-0.70355">
        <ele>1316.3869680873</ele>
        <time>2015-02-22T13:05:23Z</time>
      </trkpt>
      <trkpt lat="42.99069" lon="-0.70354">
        <ele>1310.7288130902</ele>
        <time>2015-02-22T13:05:28Z</time>
      </trkpt>
      <trkpt lat="42.99069" lon="-0.70353">
        <ele>1310.7288130902</ele>
        <time>2015-02-22T13:05:33Z</time>
      </trkpt>
      <trkpt lat="42.99067" lon="-0.70344">
        <ele>1310.7288130902</ele>
        <time>2015-02-22T13:05:38Z</time>
      </trkpt>
      <trkpt lat="42.99075" lon="-0.70336">
        <ele>1305.5178872525</ele>
        <time>2015-02-22T13:05:42Z</time>
      </trkpt>
      <trkpt lat="42.99083" lon="-0.70315">
        <ele>1300.7816057257</ele>
        <time>2015-02-22T13:05:49Z</time>
      </trkpt>
      <trkpt lat="42.99093" lon="-0.70291">
        <ele>1296.5009213311</ele>
        <time>2015-02-22T13:05:53Z</time>
      </trkpt>
      <trkpt lat="42.99101" lon="-0.70268">
        <ele>1292.5273109856</ele>
        <time>2015-02-22T13:05:58Z</time>
      </trkpt>
      <trkpt lat="42.99113" lon="-0.70262">
        <ele>1288.8665055463</ele>
        <time>2015-02-22T13:06:03Z</time>
      </trkpt>
      <trkpt lat="42.99125" lon="-0.70253">
        <ele>1285.321269511</ele>
        <time>2015-02-22T13:06:08Z</time>
      </trkpt>
      <trkpt lat="42.99142" lon="-0.70251">
        <ele>1281.9824275227</ele>
        <time>2015-02-22T13:06:13Z</time>
      </trkpt>
      <trkpt lat="42.9916" lon="-0.70243">
        <ele>1278.6886468541</ele>
        <time>2015-02-22T13:06:18Z</time>
      </trkpt>
      <trkpt lat="42.9917" lon="-0.7023">
        <ele>1275.535390767</ele>
        <time>2015-02-22T13:06:23Z</time>
      </trkpt>
      <trkpt lat="42.99187" lon="-0.70199">
        <ele>1271.8902410718</ele>
        <time>2015-02-22T13:06:29Z</time>
      </trkpt>
      <trkpt lat="42.99195" lon="-0.70185">
        <ele>1268.2927640764</ele>
        <time>2015-02-22T13:06:33Z</time>
      </trkpt>
      <trkpt lat="42.99206" lon="-0.70173">
        <ele>1264.6952124872</ele>
        <time>2015-02-22T13:06:38Z</time>
      </trkpt>
      <trkpt lat="42.99216" lon="-0.70161">
        <ele>1261.3128235357</ele>
        <time>2015-02-22T13:06:43Z</time>
      </trkpt>
      <trkpt lat="42.99226" lon="-0.7015">
        <ele>1257.9553938563</ele>
        <time>2015-02-22T13:06:48Z</time>
      </trkpt>
      <trkpt lat="42.99241" lon="-0.70138">
        <ele>1254.7060950465</ele>
        <time>2015-02-22T13:06:53Z</time>
      </trkpt>
      <trkpt lat="42.9926" lon="-0.70127">
        <ele>1251.3535346091</ele>
        <time>2015-02-22T13:06:58Z</time>
      </trkpt>
      <trkpt lat="42.99273" lon="-0.70117">
        <ele>1248.1921870806</ele>
        <time>2015-02-22T13:07:03Z</time>
      </trkpt>
      <trkpt lat="42.99288" lon="-0.70107">
        <ele>1244.9900395665</ele>
        <time>2015-02-22T13:07:09Z</time>
      </trkpt>
      <trkpt lat="42.99293" lon="-0.70108">
        <ele>1244.9900395665</ele>
        <time>2015-02-22T13:07:13Z</time>
      </trkpt>
      <trkpt lat="42.99297" lon="-0.70108">
        <ele>1241.4314281928</ele>
        <time>2015-02-22T13:07:18Z</time>
      </trkpt>
      <trkpt lat="42.99306" lon="-0.70102">
        <ele>1237.8590339341</ele>
        <time>2015-02-22T13:07:23Z</time>
      </trkpt>
      <trkpt lat="42.99304" lon="-0.70097">
        <ele>1237.8590339341</ele>
        <time>2015-02-22T13:07:28Z</time>
      </trkpt>
      <trkpt lat="42.993" lon="-0.70079">
        <ele>1233.0340654999</ele>
        <time>2015-02-22T13:07:34Z</time>
      </trkpt>
      <trkpt lat="42.99287" lon="-0.70065">
        <ele>1228.0748474489</ele>
        <time>2015-02-22T13:07:38Z</time>
      </trkpt>
      <trkpt lat="42.99285" lon="-0.70046">
        <ele>1222.879496774</ele>
        <time>2015-02-22T13:07:43Z</time>
      </trkpt>
      <trkpt lat="42.99285" lon="-0.70029">
        <ele>1217.455187308</ele>
        <time>2015-02-22T13:07:49Z</time>
      </trkpt>
      <trkpt lat="42.9928" lon="-0.70018">
        <ele>1212.1839148053</ele>
        <time>2015-02-22T13:07:53Z</time>
      </trkpt>
      <trkpt lat="42.99288" lon="-0.7001">
        <ele>1206.9436206997</ele>
        <time>2015-02-22T13:07:58Z</time>
      </trkpt>
      <trkpt lat="42.99295" lon="-0.70001">
        <ele>1201.9669822846</ele>
        <time>2015-02-22T13:08:03Z</time>
      </trkpt>
      <trkpt lat="42.99296" lon="-0.69986">
        <ele>1196.9932557056</ele>
        <time>2015-02-22T13:08:09Z</time>
      </trkpt>
      <trkpt lat="42.99289" lon="-0.69962">
        <ele>1192.0978552552</ele>
        <time>2015-02-22T13:08:13Z</time>
      </trkpt>
      <trkpt lat="42.99294" lon="-0.69927">
        <ele>1186.3992597001</ele>
        <time>2015-02-22T13:08:18Z</time>
      </trkpt>
      <trkpt lat="42.99293" lon="-0.69925">
        <ele>1186.3992597001</ele>
        <time>2015-02-22T13:08:23Z</time>
      </trkpt>
      <trkpt lat="42.99293" lon="-0.69923">
        <ele>1186.3992597001</ele>
        <time>2015-02-22T13:08:29Z</time>
      </trkpt>
      <trkpt lat="42.99292" lon="-0.69921">
        <ele>1186.3992597001</ele>
        <time>2015-02-22T13:08:33Z</time>
      </trkpt>
      <trkpt lat="42.993" lon="-0.69917">
        <ele>1179.1981916083</ele>
        <time>2015-02-22T13:08:53Z</time>
      </trkpt>
      <trkpt lat="42.99303" lon="-0.69919">
        <ele>1179.1981916083</ele>
        <time>2015-02-22T13:08:58Z</time>
      </trkpt>
      <trkpt lat="42.99306" lon="-0.69914">
        <ele>1179.1981916083</ele>
        <time>2015-02-22T13:09:03Z</time>
      </trkpt>
      <trkpt lat="42.99322" lon="-0.69883">
        <ele>1172.1854892284</ele>
        <time>2015-02-22T13:09:09Z</time>
      </trkpt>
      <trkpt lat="42.99345" lon="-0.69863">
        <ele>1165.8463359397</ele>
        <time>2015-02-22T13:09:13Z</time>
      </trkpt>
      <trkpt lat="42.99358" lon="-0.69849">
        <ele>1160.195949894</ele>
        <time>2015-02-22T13:09:18Z</time>
      </trkpt>
      <trkpt lat="42.99362" lon="-0.69845">
        <ele>1160.195949894</ele>
        <time>2015-02-22T13:09:22Z</time>
      </trkpt>
      <trkpt lat="42.99369" lon="-0.6984">
        <ele>1155.1310962418</ele>
        <time>2015-02-22T13:09:31Z</time>
      </trkpt>
      <trkpt lat="42.9938" lon="-0.69836">
        <ele>1150.6264158349</ele>
        <time>2015-02-22T13:09:42Z</time>
      </trkpt>
      <trkpt lat="42.9938" lon="-0.69835">
        <ele>1150.6264158349</ele>
        <time>2015-02-22T13:09:49Z</time>
      </trkpt>
      <trkpt lat="42.9938" lon="-0.69837">
        <ele>1150.6264158349</ele>
        <time>2015-02-22T13:09:59Z</time>
      </trkpt>
      <trkpt lat="42.99381" lon="-0.69837">
        <ele>1150.6264158349</ele>
        <time>2015-02-22T13:10:02Z</time>
      </trkpt>
      <trkpt lat="42.99382" lon="-0.69837">
        <ele>1150.6264158349</ele>
        <time>2015-02-22T13:10:09Z</time>
      </trkpt>
      <trkpt lat="42.99382" lon="-0.69846">
        <ele>1146.0946847145</ele>
        <time>2015-02-22T13:10:14Z</time>
      </trkpt>
      <trkpt lat="42.99385" lon="-0.69837">
        <ele>1146.0946847145</ele>
        <time>2015-02-22T13:10:42Z</time>
      </trkpt>
      <trkpt lat="42.99392" lon="-0.6983">
        <ele>1141.279993009</ele>
        <time>2015-02-22T13:10:49Z</time>
      </trkpt>
      <trkpt lat="42.99392" lon="-0.69826">
        <ele>1141.279993009</ele>
        <time>2015-02-22T13:10:53Z</time>
      </trkpt>
      <trkpt lat="42.99397" lon="-0.69795">
        <ele>1136.5655837118</ele>
        <time>2015-02-22T13:10:59Z</time>
      </trkpt>
      <trkpt lat="42.99397" lon="-0.69774">
        <ele>1132.2340965371</ele>
        <time>2015-02-22T13:11:02Z</time>
      </trkpt>
      <trkpt lat="42.99403" lon="-0.69743">
        <ele>1128.344470497</ele>
        <time>2015-02-22T13:11:09Z</time>
      </trkpt>
      <trkpt lat="42.9941" lon="-0.69739">
        <ele>1128.344470497</ele>
        <time>2015-02-22T13:11:14Z</time>
      </trkpt>
      <trkpt lat="42.99411" lon="-0.69738">
        <ele>1128.344470497</ele>
        <time>2015-02-22T13:11:18Z</time>
      </trkpt>
      <trkpt lat="42.99413" lon="-0.69738">
        <ele>1124.820274081</ele>
        <time>2015-02-22T13:11:23Z</time>
      </trkpt>
      <trkpt lat="42.99426" lon="-0.6973">
        <ele>1121.4886955626</ele>
        <time>2015-02-22T13:11:29Z</time>
      </trkpt>
      <trkpt lat="42.9943" lon="-0.69727">
        <ele>1121.4886955626</ele>
        <time>2015-02-22T13:11:33Z</time>
      </trkpt>
      <trkpt lat="42.99437" lon="-0.69725">
        <ele>1118.448397635</ele>
        <time>2015-02-22T13:11:38Z</time>
      </trkpt>
      <trkpt lat="42.99444" lon="-0.69727">
        <ele>1118.448397635</ele>
        <time>2015-02-22T13:11:42Z</time>
      </trkpt>
      <trkpt lat="42.99458" lon="-0.69732">
        <ele>1115.5449227859</ele>
        <time>2015-02-22T13:11:48Z</time>
      </trkpt>
      <trkpt lat="42.99469" lon="-0.69734">
        <ele>1112.9517691613</ele>
        <time>2015-02-22T13:11:53Z</time>
      </trkpt>
      <trkpt lat="42.99476" lon="-0.69742">
        <ele>1112.9517691613</ele>
        <time>2015-02-22T13:11:59Z</time>
      </trkpt>
      <trkpt lat="42.99492" lon="-0.69744">
        <ele>1110.5549724901</ele>
        <time>2015-02-22T13:12:02Z</time>
      </trkpt>
      <trkpt lat="42.995" lon="-0.6975">
        <ele>1108.421304002</ele>
        <time>2015-02-22T13:12:09Z</time>
      </trkpt>
      <trkpt lat="42.995" lon="-0.69754">
        <ele>1108.421304002</ele>
        <time>2015-02-22T13:12:12Z</time>
      </trkpt>
      <trkpt lat="42.995" lon="-0.69764">
        <ele>1106.2948455538</ele>
        <time>2015-02-22T13:12:19Z</time>
      </trkpt>
      <trkpt lat="42.99504" lon="-0.69768">
        <ele>1106.2948455538</ele>
        <time>2015-02-22T13:12:22Z</time>
      </trkpt>
      <trkpt lat="42.99513" lon="-0.69779">
        <ele>1104.2266963196</ele>
        <time>2015-02-22T13:12:29Z</time>
      </trkpt>
      <trkpt lat="42.99518" lon="-0.69785">
        <ele>1104.2266963196</ele>
        <time>2015-02-22T13:12:33Z</time>
      </trkpt>
      <trkpt lat="42.99526" lon="-0.69792">
        <ele>1102.3937710685</ele>
        <time>2015-02-22T13:12:38Z</time>
      </trkpt>
      <trkpt lat="42.99527" lon="-0.69797">
        <ele>1102.3937710685</ele>
        <time>2015-02-22T13:12:43Z</time>
      </trkpt>
      <trkpt lat="42.99531" lon="-0.69798">
        <ele>1102.3937710685</ele>
        <time>2015-02-22T13:12:47Z</time>
      </trkpt>
      <trkpt lat="42.99536" lon="-0.698">
        <ele>1100.7576228019</ele>
        <time>2015-02-22T13:12:53Z</time>
      </trkpt>
      <trkpt lat="42.9954" lon="-0.69799">
        <ele>1100.7576228019</ele>
        <time>2015-02-22T13:12:59Z</time>
      </trkpt>
      <trkpt lat="42.99545" lon="-0.69797">
        <ele>1100.7576228019</ele>
        <time>2015-02-22T13:13:02Z</time>
      </trkpt>
      <trkpt lat="42.99554" lon="-0.69793">
        <ele>1099.2965543995</ele>
        <time>2015-02-22T13:13:09Z</time>
      </trkpt>
      <trkpt lat="42.99554" lon="-0.69792">
        <ele>1099.2965543995</ele>
        <time>2015-02-22T13:13:13Z</time>
      </trkpt>
      <trkpt lat="42.9956" lon="-0.69788">
        <ele>1099.2965543995</ele>
        <time>2015-02-22T13:13:22Z</time>
      </trkpt>
      <trkpt lat="42.99571" lon="-0.69791">
        <ele>1098.2062217335</ele>
        <time>2015-02-22T13:13:29Z</time>
      </trkpt>
      <trkpt lat="42.99579" lon="-0.69794">
        <ele>1098.2062217335</ele>
        <time>2015-02-22T13:13:33Z</time>
      </trkpt>
      <trkpt lat="42.99592" lon="-0.698">
        <ele>1097.4219800399</ele>
        <time>2015-02-22T13:13:39Z</time>
      </trkpt>
      <trkpt lat="42.99597" lon="-0.69799">
        <ele>1097.4219800399</ele>
        <time>2015-02-22T13:13:42Z</time>
      </trkpt>
      <trkpt lat="42.99607" lon="-0.69804">
        <ele>1096.8687828066</ele>
        <time>2015-02-22T13:13:49Z</time>
      </trkpt>
      <trkpt lat="42.99613" lon="-0.69804">
        <ele>1096.8687828066</ele>
        <time>2015-02-22T13:13:53Z</time>
      </trkpt>
      <trkpt lat="42.99617" lon="-0.69805">
        <ele>1096.5774641108</ele>
        <time>2015-02-22T13:13:59Z</time>
      </trkpt>
      <trkpt lat="42.99618" lon="-0.69806">
        <ele>1096.5774641108</ele>
        <time>2015-02-22T13:14:02Z</time>
      </trkpt>
      <trkpt lat="42.9962" lon="-0.6981">
        <ele>1096.5774641108</ele>
        <time>2015-02-22T13:14:09Z</time>
      </trkpt>
      <trkpt lat="42.99615" lon="-0.69818">
        <ele>1096.5327823178</ele>
        <time>2015-02-22T13:14:13Z</time>
      </trkpt>
      <trkpt lat="42.99605" lon="-0.69835">
        <ele>1096.6480446674</ele>
        <time>2015-02-22T13:14:19Z</time>
      </trkpt>
      <trkpt lat="42.99597" lon="-0.69846">
        <ele>1096.9147295732</ele>
        <time>2015-02-22T13:14:22Z</time>
      </trkpt>
      <trkpt lat="42.99587" lon="-0.69864">
        <ele>1097.2814978622</ele>
        <time>2015-02-22T13:14:28Z</time>
      </trkpt>
      <trkpt lat="42.99581" lon="-0.69875">
        <ele>1097.7872001439</ele>
        <time>2015-02-22T13:14:34Z</time>
      </trkpt>
      <trkpt lat="42.99579" lon="-0.69878">
        <ele>1097.7872001439</ele>
        <time>2015-02-22T13:14:38Z</time>
      </trkpt>
      <trkpt lat="42.99572" lon="-0.69887">
        <ele>1098.3956372126</ele>
        <time>2015-02-22T13:14:43Z</time>
      </trkpt>
      <trkpt lat="42.99562" lon="-0.69902">
        <ele>1099.0876572996</ele>
        <time>2015-02-22T13:14:49Z</time>
      </trkpt>
      <trkpt lat="42.9956" lon="-0.69907">
        <ele>1099.0876572996</ele>
        <time>2015-02-22T13:14:53Z</time>
      </trkpt>
      <trkpt lat="42.99552" lon="-0.69913">
        <ele>1099.83114997</ele>
        <time>2015-02-22T13:14:59Z</time>
      </trkpt>
      <trkpt lat="42.99672" lon="-0.70088">
        <ele>1099.7750775804</ele>
        <time>2015-02-22T13:15:09Z</time>
      </trkpt>
      <trkpt lat="42.99683" lon="-0.70094">
        <ele>1099.0557740805</ele>
        <time>2015-02-22T13:15:13Z</time>
      </trkpt>
      <trkpt lat="42.99683" lon="-0.70094">
        <ele>1099.0557740805</ele>
        <time>2015-02-22T13:15:19Z</time>
      </trkpt>
      <trkpt lat="42.99697" lon="-0.70118">
        <ele>1096.274141902</ele>
        <time>2015-02-22T13:15:42Z</time>
      </trkpt>
      <trkpt lat="42.99698" lon="-0.70133">
        <ele>1093.5409649915</ele>
        <time>2015-02-22T13:15:47Z</time>
      </trkpt>
      <trkpt lat="42.99689" lon="-0.70183">
        <ele>1090.3045822146</ele>
        <time>2015-02-22T13:16:03Z</time>
      </trkpt>
      <trkpt lat="42.99698" lon="-0.70166">
        <ele>1086.3581641191</ele>
        <time>2015-02-22T13:16:08Z</time>
      </trkpt>
      <trkpt lat="42.99698" lon="-0.70148">
        <ele>1081.7717034068</ele>
        <time>2015-02-22T13:16:13Z</time>
      </trkpt>
      <trkpt lat="42.99696" lon="-0.70129">
        <ele>1076.943511244</ele>
        <time>2015-02-22T13:16:18Z</time>
      </trkpt>
      <trkpt lat="42.99695" lon="-0.70117">
        <ele>1076.943511244</ele>
        <time>2015-02-22T13:16:22Z</time>
      </trkpt>
      <trkpt lat="42.99689" lon="-0.70098">
        <ele>1071.2635387154</ele>
        <time>2015-02-22T13:16:28Z</time>
      </trkpt>
      <trkpt lat="42.99685" lon="-0.70089">
        <ele>1071.2635387154</ele>
        <time>2015-02-22T13:16:33Z</time>
      </trkpt>
      <trkpt lat="42.99679" lon="-0.7008">
        <ele>1065.2931507704</ele>
        <time>2015-02-22T13:16:37Z</time>
      </trkpt>
      <trkpt lat="42.99678" lon="-0.70068">
        <ele>1065.2931507704</ele>
        <time>2015-02-22T13:16:43Z</time>
      </trkpt>
      <trkpt lat="42.9968" lon="-0.70056">
        <ele>1059.0201857871</ele>
        <time>2015-02-22T13:16:47Z</time>
      </trkpt>
      <trkpt lat="42.99678" lon="-0.70042">
        <ele>1052.6504620374</ele>
        <time>2015-02-22T13:16:54Z</time>
      </trkpt>
      <trkpt lat="42.99679" lon="-0.70029">
        <ele>1046.4326290612</ele>
        <time>2015-02-22T13:17:00Z</time>
      </trkpt>
      <trkpt lat="42.99678" lon="-0.70015">
        <ele>1040.2507779496</ele>
        <time>2015-02-22T13:17:02Z</time>
      </trkpt>
      <trkpt lat="42.99679" lon="-0.70008">
        <ele>1040.2507779496</ele>
        <time>2015-02-22T13:17:08Z</time>
      </trkpt>
      <trkpt lat="42.99676" lon="-0.69995">
        <ele>1033.2047684706</ele>
        <time>2015-02-22T13:17:14Z</time>
      </trkpt>
      <trkpt lat="42.99676" lon="-0.69992">
        <ele>1033.2047684706</ele>
        <time>2015-02-22T13:17:18Z</time>
      </trkpt>
      <trkpt lat="42.99676" lon="-0.69987">
        <ele>1033.2047684706</ele>
        <time>2015-02-22T13:17:22Z</time>
      </trkpt>
      <trkpt lat="42.99674" lon="-0.69983">
        <ele>1026.0769878268</ele>
        <time>2015-02-22T13:17:28Z</time>
      </trkpt>
      <trkpt lat="42.99671" lon="-0.69977">
        <ele>1026.0769878268</ele>
        <time>2015-02-22T13:17:34Z</time>
      </trkpt>
      <trkpt lat="42.99672" lon="-0.69973">
        <ele>1026.0769878268</ele>
        <time>2015-02-22T13:17:39Z</time>
      </trkpt>
      <trkpt lat="42.99672" lon="-0.69971">
        <ele>1018.9728042925</ele>
        <time>2015-02-22T13:17:42Z</time>
      </trkpt>
      <trkpt lat="42.99669" lon="-0.69965">
        <ele>1018.9728042925</ele>
        <time>2015-02-22T13:17:49Z</time>
      </trkpt>
      <trkpt lat="42.99667" lon="-0.69962">
        <ele>1018.9728042925</ele>
        <time>2015-02-22T13:17:53Z</time>
      </trkpt>
      <trkpt lat="42.99666" lon="-0.69957">
        <ele>1011.8167194275</ele>
        <time>2015-02-22T13:18:08Z</time>
      </trkpt>
      <trkpt lat="42.9966" lon="-0.69953">
        <ele>1011.8167194275</ele>
        <time>2015-02-22T13:18:14Z</time>
      </trkpt>
      <trkpt lat="42.99659" lon="-0.6995">
        <ele>1004.9566936382</ele>
        <time>2015-02-22T13:18:18Z</time>
      </trkpt>
      <trkpt lat="42.99658" lon="-0.69945">
        <ele>1004.9566936382</ele>
        <time>2015-02-22T13:18:22Z</time>
      </trkpt>
      <trkpt lat="42.99654" lon="-0.69942">
        <ele>1004.9566936382</ele>
        <time>2015-02-22T13:18:28Z</time>
      </trkpt>
      <trkpt lat="42.99653" lon="-0.69942">
        <ele>998.08002594378</ele>
        <time>2015-02-22T13:18:33Z</time>
      </trkpt>
      <trkpt lat="42.99649" lon="-0.69934">
        <ele>998.08002594378</ele>
        <time>2015-02-22T13:18:39Z</time>
      </trkpt>
      <trkpt lat="42.9965" lon="-0.69932">
        <ele>998.08002594378</ele>
        <time>2015-02-22T13:18:42Z</time>
      </trkpt>
      <trkpt lat="42.99651" lon="-0.6992">
        <ele>991.43004129673</ele>
        <time>2015-02-22T13:18:49Z</time>
      </trkpt>
      <trkpt lat="42.99644" lon="-0.69904">
        <ele>985.44750018848</ele>
        <time>2015-02-22T13:18:53Z</time>
      </trkpt>
      <trkpt lat="42.99625" lon="-0.6986">
        <ele>979.94782286657</ele>
        <time>2015-02-22T13:18:59Z</time>
      </trkpt>
      <trkpt lat="42.99616" lon="-0.69839">
        <ele>974.81603603415</ele>
        <time>2015-02-22T13:19:02Z</time>
      </trkpt>
      <trkpt lat="42.99608" lon="-0.69816">
        <ele>969.90110072384</ele>
        <time>2015-02-22T13:19:10Z</time>
      </trkpt>
      <trkpt lat="42.99604" lon="-0.69809">
        <ele>969.90110072384</ele>
        <time>2015-02-22T13:19:12Z</time>
      </trkpt>
      <trkpt lat="42.99596" lon="-0.69793">
        <ele>964.78840750085</ele>
        <time>2015-02-22T13:19:19Z</time>
      </trkpt>
      <trkpt lat="42.99593" lon="-0.69781">
        <ele>960.07407145059</ele>
        <time>2015-02-22T13:19:23Z</time>
      </trkpt>
      <trkpt lat="42.99587" lon="-0.69765">
        <ele>955.6605615841</ele>
        <time>2015-02-22T13:19:28Z</time>
      </trkpt>
      <trkpt lat="42.99578" lon="-0.69738">
        <ele>951.31232502062</ele>
        <time>2015-02-22T13:19:34Z</time>
      </trkpt>
      <trkpt lat="42.99574" lon="-0.69734">
        <ele>951.31232502062</ele>
        <time>2015-02-22T13:19:38Z</time>
      </trkpt>
      <trkpt lat="42.99569" lon="-0.69729">
        <ele>947.15657317837</ele>
        <time>2015-02-22T13:19:43Z</time>
      </trkpt>
      <trkpt lat="42.99566" lon="-0.69729">
        <ele>947.15657317837</ele>
        <time>2015-02-22T13:19:48Z</time>
      </trkpt>
      <trkpt lat="42.99565" lon="-0.69728">
        <ele>947.15657317837</ele>
        <time>2015-02-22T13:19:53Z</time>
      </trkpt>
      <trkpt lat="42.99557" lon="-0.69718">
        <ele>943.0942530581</ele>
        <time>2015-02-22T13:20:03Z</time>
      </trkpt>
      <trkpt lat="42.99556" lon="-0.69717">
        <ele>943.0942530581</ele>
        <time>2015-02-22T13:20:10Z</time>
      </trkpt>
      <trkpt lat="42.99553" lon="-0.69707">
        <ele>939.43663616735</ele>
        <time>2015-02-22T13:20:13Z</time>
      </trkpt>
      <trkpt lat="42.9955" lon="-0.697">
        <ele>939.43663616735</ele>
        <time>2015-02-22T13:20:18Z</time>
      </trkpt>
      <trkpt lat="42.99549" lon="-0.69696">
        <ele>939.43663616735</ele>
        <time>2015-02-22T13:20:22Z</time>
      </trkpt>
      <trkpt lat="42.99546" lon="-0.69687">
        <ele>936.18258291912</ele>
        <time>2015-02-22T13:20:27Z</time>
      </trkpt>
      <trkpt lat="42.99542" lon="-0.69676">
        <ele>936.18258291912</ele>
        <time>2015-02-22T13:20:34Z</time>
      </trkpt>
      <trkpt lat="42.9954" lon="-0.69668">
        <ele>933.28649974027</ele>
        <time>2015-02-22T13:20:39Z</time>
      </trkpt>
      <trkpt lat="42.99539" lon="-0.69665">
        <ele>933.28649974027</ele>
        <time>2015-02-22T13:20:43Z</time>
      </trkpt>
      <trkpt lat="42.9954" lon="-0.69658">
        <ele>933.28649974027</ele>
        <time>2015-02-22T13:20:48Z</time>
      </trkpt>
      <trkpt lat="42.9954" lon="-0.69646">
        <ele>930.90673940421</ele>
        <time>2015-02-22T13:20:58Z</time>
      </trkpt>
      <trkpt lat="42.99538" lon="-0.69641">
        <ele>930.90673940421</ele>
        <time>2015-02-22T13:21:03Z</time>
      </trkpt>
      <trkpt lat="42.99537" lon="-0.69636">
        <ele>930.90673940421</ele>
        <time>2015-02-22T13:21:08Z</time>
      </trkpt>
      <trkpt lat="42.99537" lon="-0.6963">
        <ele>928.92903976144</ele>
        <time>2015-02-22T13:21:14Z</time>
      </trkpt>
      <trkpt lat="42.99535" lon="-0.69627">
        <ele>928.92903976144</ele>
        <time>2015-02-22T13:21:19Z</time>
      </trkpt>
      <trkpt lat="42.99535" lon="-0.69625">
        <ele>928.92903976144</ele>
        <time>2015-02-22T13:21:23Z</time>
      </trkpt>
      <trkpt lat="42.99535" lon="-0.69616">
        <ele>927.34717119118</ele>
        <time>2015-02-22T13:21:33Z</time>
      </trkpt>
      <trkpt lat="42.99535" lon="-0.69615">
        <ele>927.34717119118</ele>
        <time>2015-02-22T13:21:38Z</time>
      </trkpt>
      <trkpt lat="42.99548" lon="-0.69594">
        <ele>926.18298754474</ele>
        <time>2015-02-22T13:21:43Z</time>
      </trkpt>
      <trkpt lat="42.99557" lon="-0.69578">
        <ele>925.41227322826</ele>
        <time>2015-02-22T13:21:48Z</time>
      </trkpt>
      <trkpt lat="42.99565" lon="-0.69565">
        <ele>925.01145717443</ele>
        <time>2015-02-22T13:21:54Z</time>
      </trkpt>
      <trkpt lat="42.99572" lon="-0.69554">
        <ele>924.92883899375</ele>
        <time>2015-02-22T13:21:58Z</time>
      </trkpt>
      <trkpt lat="42.9958" lon="-0.69543">
        <ele>925.13006410845</ele>
        <time>2015-02-22T13:22:03Z</time>
      </trkpt>
      <trkpt lat="42.9958" lon="-0.69539">
        <ele>925.13006410845</ele>
        <time>2015-02-22T13:22:08Z</time>
      </trkpt>
      <trkpt lat="42.99582" lon="-0.69533">
        <ele>925.13006410845</ele>
        <time>2015-02-22T13:22:14Z</time>
      </trkpt>
      <trkpt lat="42.99584" lon="-0.69528">
        <ele>925.55374323764</ele>
        <time>2015-02-22T13:22:19Z</time>
      </trkpt>
      <trkpt lat="42.99587" lon="-0.69518">
        <ele>925.55374323764</ele>
        <time>2015-02-22T13:22:23Z</time>
      </trkpt>
      <trkpt lat="42.99591" lon="-0.6951">
        <ele>926.20010782453</ele>
        <time>2015-02-22T13:22:28Z</time>
      </trkpt>
      <trkpt lat="42.99594" lon="-0.69502">
        <ele>926.20010782453</ele>
        <time>2015-02-22T13:22:34Z</time>
      </trkpt>
      <trkpt lat="42.99596" lon="-0.69495">
        <ele>927.06886839376</ele>
        <time>2015-02-22T13:22:38Z</time>
      </trkpt>
      <trkpt lat="42.99603" lon="-0.69487">
        <ele>927.06886839376</ele>
        <time>2015-02-22T13:22:43Z</time>
      </trkpt>
      <trkpt lat="42.99603" lon="-0.69486">
        <ele>928.14487189405</ele>
        <time>2015-02-22T13:22:48Z</time>
      </trkpt>
      <trkpt lat="42.99608" lon="-0.69468">
        <ele>929.39926455426</ele>
        <time>2015-02-22T13:22:59Z</time>
      </trkpt>
      <trkpt lat="42.99607" lon="-0.69466">
        <ele>929.39926455426</ele>
        <time>2015-02-22T13:23:03Z</time>
      </trkpt>
      <trkpt lat="42.99614" lon="-0.69456">
        <ele>930.77619554718</ele>
        <time>2015-02-22T13:23:14Z</time>
      </trkpt>
      <trkpt lat="42.99619" lon="-0.69443">
        <ele>932.28144970317</ele>
        <time>2015-02-22T13:23:23Z</time>
      </trkpt>
      <trkpt lat="42.99622" lon="-0.69442">
        <ele>932.28144970317</ele>
        <time>2015-02-22T13:23:28Z</time>
      </trkpt>
      <trkpt lat="42.99628" lon="-0.69436">
        <ele>933.87705041611</ele>
        <time>2015-02-22T13:23:33Z</time>
      </trkpt>
      <trkpt lat="42.9963" lon="-0.69433">
        <ele>933.87705041611</ele>
        <time>2015-02-22T13:23:39Z</time>
      </trkpt>
      <trkpt lat="42.99644" lon="-0.69428">
        <ele>935.61430404771</ele>
        <time>2015-02-22T13:23:48Z</time>
      </trkpt>
      <trkpt lat="42.99645" lon="-0.69428">
        <ele>935.61430404771</ele>
        <time>2015-02-22T13:23:54Z</time>
      </trkpt>
      <trkpt lat="42.99654" lon="-0.69426">
        <ele>937.4397742773</ele>
        <time>2015-02-22T13:23:59Z</time>
      </trkpt>
      <trkpt lat="42.99655" lon="-0.69426">
        <ele>937.4397742773</ele>
        <time>2015-02-22T13:24:03Z</time>
      </trkpt>
      <trkpt lat="42.99664" lon="-0.69427">
        <ele>939.15991249402</ele>
        <time>2015-02-22T13:24:08Z</time>
      </trkpt>
      <trkpt lat="42.9967" lon="-0.69427">
        <ele>939.15991249402</ele>
        <time>2015-02-22T13:24:14Z</time>
      </trkpt>
      <trkpt lat="42.99682" lon="-0.6943">
        <ele>940.75454404435</ele>
        <time>2015-02-22T13:24:19Z</time>
      </trkpt>
      <trkpt lat="42.99698" lon="-0.6943">
        <ele>942.26332582629</ele>
        <time>2015-02-22T13:24:23Z</time>
      </trkpt>
      <trkpt lat="42.99704" lon="-0.6943">
        <ele>942.26332582629</ele>
        <time>2015-02-22T13:24:27Z</time>
      </trkpt>
      <trkpt lat="42.99719" lon="-0.69442">
        <ele>943.03187260291</ele>
        <time>2015-02-22T13:24:34Z</time>
      </trkpt>
      <trkpt lat="42.99725" lon="-0.69456">
        <ele>943.27775034327</ele>
        <time>2015-02-22T13:24:38Z</time>
      </trkpt>
      <trkpt lat="42.99726" lon="-0.69458">
        <ele>943.27775034327</ele>
        <time>2015-02-22T13:24:43Z</time>
      </trkpt>
      <trkpt lat="42.9973" lon="-0.69462">
        <ele>943.27775034327</ele>
        <time>2015-02-22T13:24:54Z</time>
      </trkpt>
      <trkpt lat="42.9974" lon="-0.69469">
        <ele>942.80086893652</ele>
        <time>2015-02-22T13:25:14Z</time>
      </trkpt>
      <trkpt lat="42.99743" lon="-0.69466">
        <ele>942.80086893652</ele>
        <time>2015-02-22T13:25:28Z</time>
      </trkpt>
      <trkpt lat="42.99744" lon="-0.69469">
        <ele>942.80086893652</ele>
        <time>2015-02-22T13:25:34Z</time>
      </trkpt>
      <trkpt lat="42.99746" lon="-0.69472">
        <ele>942.80086893652</ele>
        <time>2015-02-22T13:25:38Z</time>
      </trkpt>
      <trkpt lat="42.99748" lon="-0.69481">
        <ele>942.13878720399</ele>
        <time>2015-02-22T13:25:42Z</time>
      </trkpt>
      <trkpt lat="42.99753" lon="-0.69488">
        <ele>942.13878720399</ele>
        <time>2015-02-22T13:25:48Z</time>
      </trkpt>
      <trkpt lat="42.99758" lon="-0.69494">
        <ele>941.30047478171</ele>
        <time>2015-02-22T13:25:54Z</time>
      </trkpt>
      <trkpt lat="42.99768" lon="-0.69499">
        <ele>940.35272683911</ele>
        <time>2015-02-22T13:25:58Z</time>
      </trkpt>
      <trkpt lat="42.99775" lon="-0.695">
        <ele>940.35272683911</ele>
        <time>2015-02-22T13:26:03Z</time>
      </trkpt>
      <trkpt lat="42.99782" lon="-0.69501">
        <ele>938.81044657334</ele>
        <time>2015-02-22T13:26:08Z</time>
      </trkpt>
      <trkpt lat="42.99783" lon="-0.69499">
        <ele>938.81044657334</ele>
        <time>2015-02-22T13:26:13Z</time>
      </trkpt>
      <trkpt lat="42.99791" lon="-0.69497">
        <ele>936.84583057579</ele>
        <time>2015-02-22T13:26:19Z</time>
      </trkpt>
      <trkpt lat="42.99803" lon="-0.69495">
        <ele>934.60549233723</ele>
        <time>2015-02-22T13:26:23Z</time>
      </trkpt>
      <trkpt lat="42.99809" lon="-0.69493">
        <ele>934.60549233723</ele>
        <time>2015-02-22T13:26:28Z</time>
      </trkpt>
      <trkpt lat="42.99816" lon="-0.69497">
        <ele>932.31278614517</ele>
        <time>2015-02-22T13:26:33Z</time>
      </trkpt>
      <trkpt lat="42.99813" lon="-0.69509">
        <ele>932.31278614517</ele>
        <time>2015-02-22T13:26:38Z</time>
      </trkpt>
      <trkpt lat="42.99811" lon="-0.69514">
        <ele>930.2038756509</ele>
        <time>2015-02-22T13:26:43Z</time>
      </trkpt>
      <trkpt lat="42.99807" lon="-0.69522">
        <ele>930.2038756509</ele>
        <time>2015-02-22T13:26:48Z</time>
      </trkpt>
      <trkpt lat="42.99805" lon="-0.69529">
        <ele>928.20906299067</ele>
        <time>2015-02-22T13:26:53Z</time>
      </trkpt>
      <trkpt lat="42.99797" lon="-0.69539">
        <ele>926.1483642788</ele>
        <time>2015-02-22T13:26:59Z</time>
      </trkpt>
      <trkpt lat="42.99795" lon="-0.69541">
        <ele>926.1483642788</ele>
        <time>2015-02-22T13:27:03Z</time>
      </trkpt>
      <trkpt lat="42.99797" lon="-0.69541">
        <ele>926.1483642788</ele>
        <time>2015-02-22T13:27:08Z</time>
      </trkpt>
      <trkpt lat="42.99806" lon="-0.69536">
        <ele>923.88420653014</ele>
        <time>2015-02-22T13:27:14Z</time>
      </trkpt>
      <trkpt lat="42.99812" lon="-0.69534">
        <ele>923.88420653014</ele>
        <time>2015-02-22T13:27:18Z</time>
      </trkpt>
      <trkpt lat="42.99818" lon="-0.69529">
        <ele>921.60690082008</ele>
        <time>2015-02-22T13:27:22Z</time>
      </trkpt>
      <trkpt lat="42.9983" lon="-0.69527">
        <ele>919.27679179323</ele>
        <time>2015-02-22T13:27:28Z</time>
      </trkpt>
      <trkpt lat="42.99836" lon="-0.69522">
        <ele>919.27679179323</ele>
        <time>2015-02-22T13:27:33Z</time>
      </trkpt>
      <trkpt lat="42.99846" lon="-0.6952">
        <ele>916.87182114832</ele>
        <time>2015-02-22T13:27:39Z</time>
      </trkpt>
      <trkpt lat="42.99856" lon="-0.69516">
        <ele>914.61685669723</ele>
        <time>2015-02-22T13:27:43Z</time>
      </trkpt>
      <trkpt lat="42.99868" lon="-0.69516">
        <ele>912.47492768458</ele>
        <time>2015-02-22T13:27:48Z</time>
      </trkpt>
      <trkpt lat="42.99875" lon="-0.69511">
        <ele>912.47492768458</ele>
        <time>2015-02-22T13:27:54Z</time>
      </trkpt>
      <trkpt lat="42.99887" lon="-0.69504">
        <ele>910.22419169165</ele>
        <time>2015-02-22T13:27:58Z</time>
      </trkpt>
      <trkpt lat="42.99892" lon="-0.695">
        <ele>910.22419169165</ele>
        <time>2015-02-22T13:28:03Z</time>
      </trkpt>
      <trkpt lat="42.99892" lon="-0.69497">
        <ele>910.22419169165</ele>
        <time>2015-02-22T13:28:08Z</time>
      </trkpt>
      <trkpt lat="42.99903" lon="-0.69493">
        <ele>908.0197455261</ele>
        <time>2015-02-22T13:28:14Z</time>
      </trkpt>
      <trkpt lat="42.99909" lon="-0.69487">
        <ele>908.0197455261</ele>
        <time>2015-02-22T13:28:17Z</time>
      </trkpt>
      <trkpt lat="42.99922" lon="-0.69468">
        <ele>905.97638727398</ele>
        <time>2015-02-22T13:28:23Z</time>
      </trkpt>
      <trkpt lat="42.99929" lon="-0.69465">
        <ele>905.97638727398</ele>
        <time>2015-02-22T13:28:28Z</time>
      </trkpt>
      <trkpt lat="42.99949" lon="-0.69461">
        <ele>904.18565425728</ele>
        <time>2015-02-22T13:28:34Z</time>
      </trkpt>
      <trkpt lat="42.99955" lon="-0.69457">
        <ele>904.18565425728</ele>
        <time>2015-02-22T13:28:38Z</time>
      </trkpt>
      <trkpt lat="42.99969" lon="-0.69448">
        <ele>902.08317523533</ele>
        <time>2015-02-22T13:28:43Z</time>
      </trkpt>
      <trkpt lat="42.99978" lon="-0.69436">
        <ele>900.01159421238</ele>
        <time>2015-02-22T13:28:48Z</time>
      </trkpt>
      <trkpt lat="42.9999" lon="-0.69427">
        <ele>898.04331607214</ele>
        <time>2015-02-22T13:28:53Z</time>
      </trkpt>
      <trkpt lat="42.99996" lon="-0.69414">
        <ele>896.21631424412</ele>
        <time>2015-02-22T13:28:59Z</time>
      </trkpt>
      <trkpt lat="43.00002" lon="-0.69402">
        <ele>894.50772451012</ele>
        <time>2015-02-22T13:29:04Z</time>
      </trkpt>
      <trkpt lat="43.00011" lon="-0.69388">
        <ele>892.89601736435</ele>
        <time>2015-02-22T13:29:07Z</time>
      </trkpt>
      <trkpt lat="43.00018" lon="-0.69376">
        <ele>891.30331182554</ele>
        <time>2015-02-22T13:29:14Z</time>
      </trkpt>
      <trkpt lat="43.00021" lon="-0.69376">
        <ele>891.30331182554</ele>
        <time>2015-02-22T13:29:18Z</time>
      </trkpt>
      <trkpt lat="43.00023" lon="-0.69387">
        <ele>889.70060820476</ele>
        <time>2015-02-22T13:29:24Z</time>
      </trkpt>
      <trkpt lat="43.00023" lon="-0.69395">
        <ele>889.70060820476</ele>
        <time>2015-02-22T13:29:28Z</time>
      </trkpt>
      <trkpt lat="43.0002" lon="-0.69403">
        <ele>888.01780942795</ele>
        <time>2015-02-22T13:29:33Z</time>
      </trkpt>
      <trkpt lat="43.00012" lon="-0.69403">
        <ele>888.01780942795</ele>
        <time>2015-02-22T13:29:39Z</time>
      </trkpt>
      <trkpt lat="43.00013" lon="-0.69396">
        <ele>886.39192351415</ele>
        <time>2015-02-22T13:29:44Z</time>
      </trkpt>
      <trkpt lat="43.00013" lon="-0.69392">
        <ele>886.39192351415</ele>
        <time>2015-02-22T13:29:47Z</time>
      </trkpt>
      <trkpt lat="43.00013" lon="-0.69393">
        <ele>886.39192351415</ele>
        <time>2015-02-22T13:29:54Z</time>
      </trkpt>
      <trkpt lat="43.00013" lon="-0.69397">
        <ele>886.39192351415</ele>
        <time>2015-02-22T13:29:58Z</time>
      </trkpt>
      <trkpt lat="43.0006" lon="-0.69377">
        <ele>884.82000783725</ele>
        <time>2015-02-22T13:30:04Z</time>
      </trkpt>
      <trkpt lat="43.00107" lon="-0.69358">
        <ele>883.32797884631</ele>
        <time>2015-02-22T13:30:08Z</time>
      </trkpt>
      <trkpt lat="43.00129" lon="-0.69348">
        <ele>881.86754054249</ele>
        <time>2015-02-22T13:30:14Z</time>
      </trkpt>
      <trkpt lat="43.00145" lon="-0.69335">
        <ele>880.4802935023</ele>
        <time>2015-02-22T13:30:18Z</time>
      </trkpt>
      <trkpt lat="43.00159" lon="-0.69326">
        <ele>879.26219265053</ele>
        <time>2015-02-22T13:30:23Z</time>
      </trkpt>
      <trkpt lat="43.0017" lon="-0.69319">
        <ele>878.1863531465</ele>
        <time>2015-02-22T13:30:28Z</time>
      </trkpt>
      <trkpt lat="43.00188" lon="-0.69304">
        <ele>877.09774041991</ele>
        <time>2015-02-22T13:30:34Z</time>
      </trkpt>
      <trkpt lat="43.00202" lon="-0.69293">
        <ele>876.0400661452</ele>
        <time>2015-02-22T13:30:38Z</time>
      </trkpt>
      <trkpt lat="43.00211" lon="-0.69291">
        <ele>875.05372452224</ele>
        <time>2015-02-22T13:30:43Z</time>
      </trkpt>
      <trkpt lat="43.00212" lon="-0.69293">
        <ele>875.05372452224</ele>
        <time>2015-02-22T13:30:48Z</time>
      </trkpt>
      <trkpt lat="43.00215" lon="-0.69308">
        <ele>874.11828162606</ele>
        <time>2015-02-22T13:30:53Z</time>
      </trkpt>
      <trkpt lat="43.00218" lon="-0.69312">
        <ele>874.11828162606</ele>
        <time>2015-02-22T13:30:59Z</time>
      </trkpt>
      <trkpt lat="43.00217" lon="-0.69288">
        <ele>873.66139452407</ele>
        <time>2015-02-22T13:31:03Z</time>
      </trkpt>
      <trkpt lat="43.00218" lon="-0.69292">
        <ele>873.66139452407</ele>
        <time>2015-02-22T13:31:08Z</time>
      </trkpt>
      <trkpt lat="43.00218" lon="-0.69308">
        <ele>872.83859873763</ele>
        <time>2015-02-22T13:31:14Z</time>
      </trkpt>
      <trkpt lat="43.0021" lon="-0.69327">
        <ele>871.67550918843</ele>
        <time>2015-02-22T13:31:18Z</time>
      </trkpt>
      <trkpt lat="43.00211" lon="-0.69341">
        <ele>870.49944733461</ele>
        <time>2015-02-22T13:31:23Z</time>
      </trkpt>
      <trkpt lat="43.00209" lon="-0.69351">
        <ele>870.49944733461</ele>
        <time>2015-02-22T13:31:28Z</time>
      </trkpt>
      <trkpt lat="43.00204" lon="-0.69368">
        <ele>869.02287252373</ele>
        <time>2015-02-22T13:31:33Z</time>
      </trkpt>
      <trkpt lat="43.00195" lon="-0.69377">
        <ele>867.29725619348</ele>
        <time>2015-02-22T13:31:38Z</time>
      </trkpt>
      <trkpt lat="43.00197" lon="-0.69378">
        <ele>867.29725619348</ele>
        <time>2015-02-22T13:31:43Z</time>
      </trkpt>
      <trkpt lat="43.00198" lon="-0.69367">
        <ele>865.16923132561</ele>
        <time>2015-02-22T13:31:47Z</time>
      </trkpt>
      <trkpt lat="43.00204" lon="-0.69352">
        <ele>862.94456626408</ele>
        <time>2015-02-22T13:31:54Z</time>
      </trkpt>
      <trkpt lat="43.0021" lon="-0.69343">
        <ele>860.77712903555</ele>
        <time>2015-02-22T13:31:58Z</time>
      </trkpt>
      <trkpt lat="43.00221" lon="-0.69325">
        <ele>858.46344096018</ele>
        <time>2015-02-22T13:32:04Z</time>
      </trkpt>
      <trkpt lat="43.00224" lon="-0.69305">
        <ele>856.04593565904</ele>
        <time>2015-02-22T13:32:08Z</time>
      </trkpt>
      <trkpt lat="43.00227" lon="-0.69273">
        <ele>853.2327343929</ele>
        <time>2015-02-22T13:32:13Z</time>
      </trkpt>
      <trkpt lat="43.00226" lon="-0.6925">
        <ele>850.31650451774</ele>
        <time>2015-02-22T13:32:19Z</time>
      </trkpt>
      <trkpt lat="43.00225" lon="-0.69229">
        <ele>847.38131135008</ele>
        <time>2015-02-22T13:32:24Z</time>
      </trkpt>
      <trkpt lat="43.00226" lon="-0.69213">
        <ele>844.50504173792</ele>
        <time>2015-02-22T13:32:27Z</time>
      </trkpt>
      <trkpt lat="43.00226" lon="-0.69187">
        <ele>841.54346377919</ele>
        <time>2015-02-22T13:32:35Z</time>
      </trkpt>
      <trkpt lat="43.00227" lon="-0.69176">
        <ele>841.54346377919</ele>
        <time>2015-02-22T13:32:38Z</time>
      </trkpt>
      <trkpt lat="43.00229" lon="-0.69153">
        <ele>838.57927344488</ele>
        <time>2015-02-22T13:32:44Z</time>
      </trkpt>
      <trkpt lat="43.00232" lon="-0.69137">
        <ele>835.70342968273</ele>
        <time>2015-02-22T13:32:48Z</time>
      </trkpt>
      <trkpt lat="43.00233" lon="-0.69119">
        <ele>832.85576355752</ele>
        <time>2015-02-22T13:32:53Z</time>
      </trkpt>
      <trkpt lat="43.00236" lon="-0.69097">
        <ele>829.9371209362</ele>
        <time>2015-02-22T13:32:58Z</time>
      </trkpt>
      <trkpt lat="43.00239" lon="-0.69078">
        <ele>826.98543297782</ele>
        <time>2015-02-22T13:33:04Z</time>
      </trkpt>
      <trkpt lat="43.00241" lon="-0.69061">
        <ele>824.10789094142</ele>
        <time>2015-02-22T13:33:08Z</time>
      </trkpt>
      <trkpt lat="43.00243" lon="-0.69034">
        <ele>821.1440982811</ele>
        <time>2015-02-22T13:33:14Z</time>
      </trkpt>
      <trkpt lat="43.00241" lon="-0.69016">
        <ele>818.24820788033</ele>
        <time>2015-02-22T13:33:18Z</time>
      </trkpt>
      <trkpt lat="43.0024" lon="-0.68987">
        <ele>815.27452453888</ele>
        <time>2015-02-22T13:33:24Z</time>
      </trkpt>
      <trkpt lat="43.0024" lon="-0.68971">
        <ele>812.37638298678</ele>
        <time>2015-02-22T13:33:28Z</time>
      </trkpt>
      <trkpt lat="43.00239" lon="-0.68955">
        <ele>809.56582736514</ele>
        <time>2015-02-22T13:33:33Z</time>
      </trkpt>
      <trkpt lat="43.00239" lon="-0.68929">
        <ele>806.82483374156</ele>
        <time>2015-02-22T13:33:39Z</time>
      </trkpt>
      <trkpt lat="43.00245" lon="-0.68911">
        <ele>804.33814784298</ele>
        <time>2015-02-22T13:33:44Z</time>
      </trkpt>
      <trkpt lat="43.00248" lon="-0.68902">
        <ele>804.33814784298</ele>
        <time>2015-02-22T13:33:47Z</time>
      </trkpt>
      <trkpt lat="43.00256" lon="-0.6889">
        <ele>801.68526133494</ele>
        <time>2015-02-22T13:33:54Z</time>
      </trkpt>
      <trkpt lat="43.00258" lon="-0.68882">
        <ele>801.68526133494</ele>
        <time>2015-02-22T13:33:58Z</time>
      </trkpt>
      <trkpt lat="43.00258" lon="-0.68875">
        <ele>798.98129995941</ele>
        <time>2015-02-22T13:34:03Z</time>
      </trkpt>
      <trkpt lat="43.00257" lon="-0.68867">
        <ele>798.98129995941</ele>
        <time>2015-02-22T13:34:08Z</time>
      </trkpt>
      <trkpt lat="43.00255" lon="-0.68861">
        <ele>796.3185554706</ele>
        <time>2015-02-22T13:34:13Z</time>
      </trkpt>
      <trkpt lat="43.00259" lon="-0.68851">
        <ele>796.3185554706</ele>
        <time>2015-02-22T13:34:47Z</time>
      </trkpt>
      <trkpt lat="43.00258" lon="-0.68852">
        <ele>796.3185554706</ele>
        <time>2015-02-22T13:34:54Z</time>
      </trkpt>
      <trkpt lat="43.00267" lon="-0.68846">
        <ele>794.24347454013</ele>
        <time>2015-02-22T13:35:14Z</time>
      </trkpt>
      <trkpt lat="43.00277" lon="-0.68849">
        <ele>792.55446826322</ele>
        <time>2015-02-22T13:35:18Z</time>
      </trkpt>
      <trkpt lat="43.00351" lon="-0.68868">
        <ele>789.8530436122</ele>
        <time>2015-02-22T13:35:24Z</time>
      </trkpt>
      <trkpt lat="43.00352" lon="-0.68867">
        <ele>789.8530436122</ele>
        <time>2015-02-22T13:35:28Z</time>
      </trkpt>
      <trkpt lat="43.0036" lon="-0.68871">
        <ele>786.63316721373</ele>
        <time>2015-02-22T13:35:43Z</time>
      </trkpt>
      <trkpt lat="43.00361" lon="-0.68873">
        <ele>786.63316721373</ele>
        <time>2015-02-22T13:35:48Z</time>
      </trkpt>
      <trkpt lat="43.00364" lon="-0.68875">
        <ele>786.63316721373</ele>
        <time>2015-02-22T13:35:57Z</time>
      </trkpt>
    </trkseg>
  </trk>
</gpx>